[[{"header":{"parameterUnit":"m.s-1","parameterCategory":1,"la1":30.6,"la2":28.766,"lo1":-90.7593,"lo2":-88.6598,"dy":0.0162,"dx":0.0183,"nx":116,"ny":114,"refTime":"2024-05-07T12:00:00:Z","depth":0,"parameterNumber":2,"parameterNumberName":"U-component_of_WINDS"},"data":[0.0,0.0,0.0,0.0,0.0,0.0,0.0,0.0,0.0,0.0,0.0,0.0,0.0,0.0,0.0,0.0,0.0,0.0,0.0,0.0,0.0,0.0,0.0,0.0,0.0,0.0,0.0,0.0,0.0,0.0,0.0,0.0,0.0,0.0,0.0,0.0,0.0,0.0,0.0,0.0,0.0,0.0,0.0,0.0,0.0,0.0,0.0,0.0,0.0,0.0,0.0,0.0,0.0,0.0,0.0,0.0,0.0,0.0,0.0,0.0,0.0,0.0,0.0,0.0,0.0,0.0,0.0,0.0,0.0,0.0,0.0,0.0,0.0,0.0,0.0,0.0,0.0,0.0,0.0,0.0,0.0,0.0,0.0,0.0,0.0,0.0,0.0,0.0,0.0,0.0,0.0,0.0,0.0,0.0,0.0,0.0,0.0,0.0,0.0,0.0,0.0,0.0,0.0,0.0,0.0,0.0,0.0,0.0,0.0,0.0,0.0,0.0,0.0,0.0,0.0,0.0,0.0,0.0,0.0,0.0,0.0,0.0,0.0,0.0,0.0,0.0,0.0,0.0,0.0,0.0,0.0,0.0,0.0,0.0,0.0,0.0,0.0,0.0,0.0,0.0,0.0,0.0,0.0,0.0,0.0,0.0,0.0,0.0,0.0,0.0,0.0,0.0,0.0,0.0,0.0,0.0,0.0,0.0,0.0,0.0,0.0,0.0,0.0,0.0,0.0,0.0,0.0,0.0,0.0,0.0,0.0,0.0,0.0,0.0,0.0,0.0,0.0,0.0,0.0,0.0,0.0,0.0,0.0,0.0,0.0,0.0,0.0,0.0,0.0,0.0,0.0,0.0,0.0,0.0,0.0,0.0,0.0,0.0,0.0,0.0,0.0,0.0,0.0,0.0,0.0,0.0,0.0,0.0,0.0,0.0,0.0,0.0,0.0,0.0,0.0,0.0,0.0,0.0,0.0,0.0,0.0,0.0,0.0,0.0,0.0,0.0,0.0,0.0,0.0,0.0,0.0,0.0,0.0,0.0,0.0,0.0,0.0,0.0,0.0,0.0,0.0,0.0,0.0,0.0,0.0,0.0,0.0,0.0,0.0,0.0,0.0,0.0,0.0,0.0,0.0,0.0,0.0,0.0,0.0,0.0,0.0,0.0,0.0,0.0,0.0,0.0,0.0,0.0,0.0,0.0,0.0,0.0,0.0,0.0,0.0,0.0,0.0,0.0,0.0,0.0,0.0,0.0,0.0,0.0,0.0,0.0,0.0,0.0,0.0,0.0,0.0,0.0,0.0,0.0,0.0,0.0,0.0,0.0,0.0,0.0,0.0,0.0,0.0,0.0,0.0,0.0,0.0,0.0,0.0,0.0,0.0,0.0,0.0,0.0,0.0,0.0,0.0,0.0,0.0,0.0,0.0,0.0,0.0,0.0,0.0,0.0,0.0,0.0,0.0,0.0,0.0,0.0,0.0,0.0,0.0,0.0,0.0,0.0,0.0,0.0,0.0,0.0,0.0,0.0,0.0,0.0,0.0,0.0,0.0,0.0,0.0,0.0,0.0,0.0,0.0,0.0,0.0,0.0,0.0,0.0,0.0,0.0,0.0,0.0,0.0,0.0,0.0,0.0,0.0,0.0,0.0,0.0,0.0,0.0,0.0,0.0,0.0,0.0,0.0,0.0,0.0,0.0,0.0,0.0,0.0,0.0,0.0,0.0,0.0,0.0,0.0,0.0,0.0,0.0,0.0,0.0,0.0,0.0,0.0,0.0,0.0,0.0,0.0,0.0,0.0,0.0,0.0,0.0,0.0,0.0,0.0,0.0,0.0,0.0,0.0,0.0,0.0,0.0,0.0,0.0,0.0,0.0,0.0,0.0,0.0,0.0,0.0,0.0,0.0,0.0,0.0,0.0,0.0,0.0,0.0,0.0,0.0,0.0,0.0,0.0,0.0,0.0,0.0,0.0,0.0,0.0,0.0,0.0,0.0,0.0,0.0,0.0,0.0,0.0,0.0,0.0,0.0,0.0,0.0,0.0,0.0,0.0,0.0,0.0,0.0,0.0,0.0,0.0,0.0,0.0,0.0,0.0,0.0,0.0,0.0,0.0,0.0,0.0,0.0,0.0,0.0,0.0,0.0,0.0,0.0,0.0,0.0,0.0,0.0,0.0,0.0,0.0,0.0,0.0,0.0,0.0,0.0,0.0,0.0,0.0,0.0,0.0,0.0,0.0,0.0,0.0,0.0,0.0,0.0,0.0,0.0,0.0,0.0,0.0,0.0,0.0,0.0,0.0,0.0,0.0,0.0,0.0,0.0,0.0,0.0,0.0,0.0,0.0,0.0,0.0,0.0,0.0,0.0,0.0,0.0,0.0,0.0,0.0,0.0,0.0,0.0,0.0,0.0,0.0,0.0,0.0,0.0,0.0,0.0,0.0,0.0,0.0,0.0,0.0,0.0,0.0,0.0,0.0,0.0,0.0,0.0,0.0,0.0,0.0,0.0,0.0,0.0,0.0,0.0,0.0,0.0,0.0,0.0,0.0,0.0,0.0,0.0,0.0,0.0,0.0,0.0,0.0,0.0,0.0,0.0,0.0,0.0,0.0,0.0,0.0,0.0,0.0,0.0,0.0,0.0,0.0,0.0,0.0,0.0,0.0,0.0,0.0,0.0,0.0,0.0,0.0,0.0,0.0,0.0,0.0,0.0,0.0,0.0,0.0,0.0,0.0,0.0,0.0,0.0,0.0,0.0,0.0,0.0,0.0,0.0,0.0,0.0,0.0,0.0,0.0,0.0,0.0,0.0,0.0,0.0,0.0,0.0,0.0,0.0,0.0,0.0,0.0,0.0,0.0,0.0,0.0,0.0,0.0,0.0,0.0,0.0,0.0,0.0,0.0,0.0,0.0,0.0,0.0,0.0,0.0,0.0,0.0,0.0,0.0,0.0,0.0,0.0,0.0,0.0,0.0,0.0,0.0,0.0,0.0,0.0,0.0,0.0,0.0,0.0,0.0,0.0,0.0,0.0,0.0,0.0,0.0,0.0,0.0,0.0,0.0,0.0,0.0,0.0,0.0,0.0,0.0,0.0,0.0,0.0,0.0,0.0,0.0,0.0,0.0,0.0,0.0,0.0,0.0,0.0,0.0,0.0,0.0,0.0,0.0,0.0,0.0,0.0,0.0,0.0,0.0,0.0,0.0,0.0,0.0,0.0,0.0,0.0,0.0,0.0,0.0,0.0,0.0,0.0,0.0,0.0,0.0,0.0,0.0,0.0,0.0,0.0,0.0,0.0,0.0,0.0,0.0,0.0,0.0,0.0,0.0,0.0,0.0,0.0,0.0,0.0,0.0,0.0,0.0,0.0,0.0,0.0,0.0,0.0,0.0,0.0,0.0,0.0,0.0,0.0,0.0,0.0,0.0,0.0,0.0,0.0,0.0,0.0,0.0,0.0,0.0,0.0,0.0,0.0,0.0,0.0,0.0,0.0,0.0,0.0,0.0,0.0,0.0,0.0,0.0,0.0,0.0,0.0,0.0,0.0,0.0,0.0,0.0,0.0,0.0,0.0,0.0,0.0,0.0,0.0,0.0,0.0,0.0,0.0,0.0,0.0,0.0,0.0,0.0,0.0,0.0,0.0,0.0,0.0,0.0,0.0,0.0,0.0,0.0,0.0,0.0,0.0,0.0,0.0,0.0,0.0,0.0,0.0,0.0,0.0,0.0,0.0,0.0,0.0,0.0,0.0,0.0,0.0,0.0,0.0,0.0,0.0,0.0,0.0,0.0,0.0,0.0,0.0,0.0,0.0,0.0,0.0,0.0,0.0,0.0,0.0,0.0,0.0,0.0,0.0,0.0,0.0,0.0,0.0,0.0,0.0,0.0,0.0,0.0,0.0,0.0,0.0,0.0,0.0,0.0,0.0,0.0,0.0,0.0,0.0,0.0,0.0,0.0,0.0,0.0,0.0,0.0,0.0,0.0,0.0,0.0,0.0,0.0,0.0,0.0,0.0,0.0,0.0,0.0,0.0,0.0,0.0,0.0,0.0,0.0,0.0,0.0,0.0,0.0,0.0,0.0,0.0,0.0,0.0,0.0,0.0,0.0,0.0,0.0,0.0,0.0,0.0,0.0,0.0,0.0,0.0,0.0,0.0,0.0,0.0,0.0,0.0,0.0,0.0,0.0,0.0,0.0,0.0,0.0,0.0,0.0,0.0,0.0,0.0,0.0,0.0,0.0,0.0,0.0,0.0,0.0,0.0,0.0,0.0,0.0,0.0,0.0,0.0,0.0,0.0,0.0,0.0,0.0,0.0,0.0,0.0,0.0,0.0,0.0,0.0,0.0,0.0,0.0,0.0,0.0,0.0,0.0,0.0,0.0,0.0,0.0,0.0,0.0,0.0,0.0,0.0,0.0,0.0,0.0,0.0,0.0,0.0,0.0,0.0,0.0,0.0,0.0,0.0,0.0,0.0,0.0,0.0,0.0,0.0,0.0,0.0,0.0,0.0,0.0,0.0,0.0,0.0,0.0,0.0,0.0,0.0,0.0,0.0,0.0,0.0,0.0,0.0,0.0,0.0,0.0,0.0,0.0,0.0,0.0,0.0,0.0,0.0,0.0,0.0,0.0,0.0,0.0,0.0,0.0,0.0,0.0,0.0,0.0,0.0,0.0,0.0,0.0,0.0,0.0,0.0,0.0,0.0,0.0,0.0,0.0,0.0,0.0,0.0,0.0,0.0,0.0,0.0,0.0,0.0,0.0,0.0,0.0,0.0,0.0,0.0,0.0,0.0,0.0,0.0,0.0,0.0,0.0,0.0,0.0,0.0,0.0,0.0,0.0,0.0,0.0,0.0,0.0,0.0,0.0,0.0,0.0,0.0,0.0,0.0,0.0,0.0,0.0,0.0,0.0,0.0,0.0,0.0,0.0,0.0,0.0,0.0,0.0,0.0,0.0,0.0,0.0,0.0,0.0,0.0,0.0,0.0,0.0,0.0,0.0,0.0,0.0,0.0,0.0,0.0,0.0,0.0,0.0,0.0,0.0,0.0,0.0,0.0,0.0,0.0,0.0,0.0,0.0,0.0,0.0,0.0,0.0,0.0,0.0,0.0,0.0,0.0,0.0,0.0,0.0,0.0,0.0,0.0,0.0,0.0,0.0,0.0,0.0,0.0,0.0,0.0,0.0,0.0,0.0,0.0,0.0,0.0,0.0,0.0,0.0,0.0,0.0,0.0,0.0,0.0,0.0,0.0,0.0,0.0,0.0,0.0,0.0,0.0,0.0,0.0,0.0,0.0,0.0,0.0,0.0,0.0,0.0,0.0,0.0,0.0,0.0,0.0,0.0,0.0,0.0,0.0,0.0,0.0,0.0,0.0,0.0,0.0,0.0,0.0,0.0,0.0,0.0,0.0,0.0,0.0,0.0,0.0,0.0,0.0,0.0,0.0,0.0,0.0,0.0,0.0,0.0,0.0,0.0,0.0,0.0,0.0,0.0,0.0,0.0,0.0,0.0,0.0,0.0,0.0,0.0,0.0,0.0,0.0,0.0,0.0,0.0,0.0,0.0,0.0,0.0,0.0,0.0,0.0,0.0,0.0,0.0,0.0,0.0,0.0,0.0,0.0,0.0,0.0,0.0,0.0,0.0,0.0,0.0,0.0,0.0,0.0,0.0,0.0,0.0,0.0,0.0,0.0,0.0,0.0,0.0,0.0,0.0,0.0,0.0,0.0,0.0,0.0,0.0,0.0,0.0,0.0,0.0,0.0,0.0,0.0,0.0,0.0,0.0,0.0,0.0,0.0,0.0,0.0,0.0,0.0,0.0,0.0,0.0,0.0,0.0,0.0,0.0,0.0,0.0,0.0,0.0,0.0,0.0,0.0,0.0,0.0,0.0,0.0,0.0,0.0,0.0,0.0,0.0,0.0,0.0,0.0,0.0,0.0,0.0,0.0,0.0,0.0,0.0,0.0,0.0,0.0,0.0,0.0,0.0,0.0,0.0,0.0,0.0,0.0,0.0,0.0,0.0,0.0,0.0,0.0,0.0,0.0,0.0,0.0,0.0,0.0,0.0,0.0,0.0,0.0,0.0,0.0,0.0,0.0,0.0,0.0,0.0,1.6723,1.6066,0.0,0.0,0.0,0.0,0.0,0.0,0.0,0.0,0.0,0.0,0.0,0.0,0.0,0.0,0.0,0.0,0.0,0.0,0.0,0.0,0.0,0.0,0.0,3.7122,3.7602,3.8249,3.7967,3.7839,3.8091,0.0,0.0,0.0,0.0,0.0,3.3983,3.4147,3.396,3.3393,3.3196,3.3203,3.3387,3.3746,3.3484,3.2641,0.0,0.0,0.0,0.0,0.0,0.0,0.0,0.0,0.0,0.0,0.0,0.0,0.0,0.0,0.0,0.0,0.0,0.0,0.0,0.0,0.0,0.0,0.0,0.0,0.0,0.0,0.0,0.0,0.0,0.0,0.0,0.0,0.0,0.0,0.0,0.0,0.0,0.0,0.0,0.0,0.0,0.0,0.0,0.0,0.0,0.0,0.0,0.0,0.0,0.0,0.0,0.0,0.0,0.0,0.0,0.0,0.0,0.0,0.0,0.0,0.0,0.0,0.0,0.0,0.0,0.0,0.0,0.0,0.0,0.0,1.6355,1.6063,0.0,0.0,0.0,0.0,0.0,0.0,0.0,0.0,0.0,0.0,0.0,0.0,0.0,0.0,0.0,0.0,0.0,0.0,0.0,0.0,0.0,3.3789,3.6465,3.634,3.6527,3.7697,3.7368,3.7293,3.7765,3.7828,3.7403,3.6448,3.6777,3.6021,3.3964,3.4211,3.4142,3.3615,3.3373,3.3384,3.3722,3.4305,3.39,3.2633,3.2617,0.0,0.0,0.0,0.0,0.0,0.0,0.0,0.0,0.0,0.0,0.0,0.0,0.0,0.0,0.0,0.0,0.0,0.0,0.0,0.0,0.0,0.0,0.0,0.0,0.0,0.0,0.0,0.0,0.0,0.0,0.0,0.0,0.0,0.0,0.0,0.0,0.0,0.0,0.0,0.0,0.0,0.0,0.0,0.0,0.0,0.0,0.0,0.0,0.0,0.0,0.0,0.0,0.0,0.0,0.0,0.0,0.0,0.0,0.0,0.0,0.0,0.0,0.0,1.847,1.7914,1.7122,1.7206,1.6745,1.5899,1.6081,1.6007,1.5759,1.4432,0.0,0.0,0.0,0.0,0.0,0.0,0.0,0.0,0.0,0.0,0.0,0.0,0.0,0.0,0.0,0.0,0.0,0.0,0.0,3.3885,3.4915,3.6058,3.6844,3.7019,3.7497,3.7538,3.6994,3.6853,3.6358,3.5348,3.4568,3.4186,3.431,3.3499,3.3681,3.4936,3.4173,3.3788,3.3775,3.3794,3.3511,3.3154,3.3703,3.3714,3.3242,0.0,0.0,0.0,0.0,0.0,0.0,0.0,0.0,0.0,0.0,0.0,0.0,0.0,0.0,0.0,0.0,0.0,0.0,0.0,0.0,0.0,0.0,0.0,0.0,0.0,0.0,0.0,0.0,0.0,0.0,0.0,0.0,0.0,0.0,0.0,0.0,0.0,0.0,0.0,0.0,0.0,1.9256,1.8812,0.0,0.0,0.0,0.0,0.0,0.0,0.0,0.0,0.0,0.0,0.0,0.0,0.0,1.9727,1.9678,1.9335,1.8941,1.8537,1.818,1.8008,1.7767,1.7371,1.705,1.6897,1.6061,0.0,1.5012,1.3974,0.0,0.0,0.0,0.0,0.0,0.0,0.0,0.0,0.0,0.0,0.0,0.0,0.0,0.0,0.0,0.0,0.0,0.0,0.0,0.0,0.0,3.5707,3.6217,3.6623,3.6968,3.697,3.6555,3.6897,3.6463,3.4999,3.5253,3.4891,3.3761,3.4014,3.4193,3.4235,3.427,3.4373,3.4547,3.5265,3.5462,3.5164,3.5377,3.4746,3.3439,3.247,0.0,0.0,0.0,0.0,0.0,0.0,0.0,0.0,0.0,0.0,0.0,0.0,0.0,0.0,0.0,0.0,0.0,0.0,0.0,0.0,0.0,0.0,0.0,0.0,0.0,0.0,0.0,0.0,0.0,0.0,0.0,0.0,0.0,0.0,0.0,0.0,0.0,0.0,0.0,1.8791,1.9317,1.8543,1.8641,1.8393,0.0,0.0,0.0,0.0,0.0,0.0,0.0,0.0,0.0,1.9622,1.951,1.9263,1.8889,1.8838,1.8678,1.8496,1.8464,1.8075,1.742,1.6937,1.6419,1.5649,1.4938,1.4261,1.3756,1.3273,1.2667,1.1914,0.0,0.0,0.0,0.0,0.9622,0.9203,0.0,0.0,0.0,0.0,0.0,0.0,0.0,0.0,0.0,0.0,0.0,0.0,3.4409,3.5002,3.5502,3.6067,3.6307,3.638,3.6256,3.6597,3.6161,3.4709,3.5408,3.5033,3.3283,3.4584,3.4941,3.4222,3.4554,3.5062,3.5725,3.6482,3.6644,3.6388,3.6404,3.5434,3.3654,3.2684,3.166,3.0583,0.0,0.0,0.0,0.0,0.0,0.0,0.0,0.0,0.0,0.0,0.0,0.0,0.0,0.0,0.0,0.0,0.0,0.0,0.0,0.0,0.0,0.0,0.0,0.0,0.0,0.0,0.0,0.0,0.0,0.0,0.0,0.0,0.0,0.0,0.0,0.0,0.0,1.9206,1.9522,1.8735,1.8966,1.8784,0.0,0.0,0.0,0.0,0.0,0.0,1.8943,1.8733,1.8898,1.9478,1.9277,1.8886,1.8415,1.8232,1.8174,1.797,1.8002,1.7421,1.6503,1.6192,1.5386,1.449,1.3751,1.3195,1.27,1.262,1.213,1.1327,1.0529,1.0018,0.9656,0.9566,0.9336,0.888,0.0,0.0,0.0,0.0,0.0,0.0,0.0,0.0,0.0,0.0,0.0,3.1846,3.1895,3.3713,3.4952,3.5073,3.5674,3.6054,3.6113,3.5301,3.4655,3.4235,3.3398,3.3048,3.337,3.4781,3.57,3.617,3.5497,3.5887,3.7275,3.629,3.5735,3.5508,3.5916,3.556,3.4591,3.3848,3.3142,3.2367,3.0161,0.0,0.0,0.0,0.0,0.0,0.0,0.0,0.0,0.0,0.0,0.0,0.0,0.0,0.0,0.0,0.0,0.0,0.0,0.0,0.0,0.0,0.0,0.0,0.0,0.0,0.0,0.0,0.0,0.0,0.0,0.0,0.0,0.0,0.0,0.0,0.0,0.0,0.0,1.9773,2.0175,0.0,0.0,0.0,0.0,1.8366,1.8489,1.8723,1.9071,1.8793,1.8958,1.9668,1.9438,1.9199,1.9199,1.809,1.7391,1.6973,1.5877,1.5266,1.5137,1.4535,1.4311,1.4216,1.3138,1.2479,1.1914,1.1952,1.1319,1.0289,0.9922,0.9493,0.9201,0.9236,0.8873,0.8224,0.0,0.0,0.0,0.0,0.0,2.932,2.9767,2.9774,2.9795,3.0057,3.1054,3.2056,3.2912,3.4165,3.5164,3.5705,3.593,3.5757,3.5175,3.5123,3.476,3.3926,3.3829,3.4012,3.4545,3.4557,3.4858,3.5435,3.5776,3.6225,3.6831,3.7337,3.7301,3.6852,3.6366,3.5896,3.5311,3.3646,3.2755,3.226,3.0856,2.9042,0.0,0.0,0.0,0.0,0.0,0.0,0.0,0.0,0.0,0.0,0.0,0.0,0.0,0.0,0.0,0.0,0.0,0.0,0.0,0.0,0.0,0.0,0.0,0.0,0.0,0.0,0.0,0.0,0.0,0.0,0.0,0.0,0.0,0.0,0.0,0.0,0.0,1.9379,1.9735,0.0,1.8434,1.8342,1.8374,1.8288,1.8318,1.8386,1.8335,1.8188,1.8014,1.7848,1.7724,1.7494,1.7051,1.6703,1.6304,1.6109,1.5438,1.4939,1.4505,1.3721,1.3147,1.2548,1.1651,1.1027,1.0614,0.9954,0.9807,1.0054,0.9592,0.9111,0.8619,0.8258,0.7894,0.7641,0.0,0.0,0.0,2.962,2.9404,2.9151,2.9608,2.9531,2.963,3.018,3.1009,3.2059,3.3515,3.4582,3.5549,3.6364,3.6315,3.5833,3.4898,3.5137,3.4581,3.2895,3.3242,3.3943,3.4949,3.4552,3.4854,3.6036,3.6275,3.6684,3.7261,3.767,3.7513,3.6901,3.606,3.5546,3.5179,3.3298,3.2767,3.3077,3.1867,3.0171,2.8312,0.0,0.0,0.0,0.0,0.0,0.0,0.0,0.0,0.0,0.0,0.0,0.0,0.0,0.0,0.0,0.0,0.0,0.0,0.0,0.0,0.0,0.0,0.0,0.0,0.0,0.0,0.0,0.0,0.0,0.0,0.0,0.0,0.0,0.0,1.9126,1.9973,1.9082,1.9568,1.9524,1.8483,1.8555,1.8573,1.8313,1.8335,1.8101,1.7554,1.7385,1.6982,1.6337,1.6392,1.6046,1.5432,1.5458,1.5227,1.4871,1.4454,1.3913,1.3287,1.2496,1.1886,1.117,1.0361,0.9838,0.9624,0.8766,0.8779,0.9268,0.8661,0.8284,0.783,0.7413,0.7028,0.6905,0.0,2.7502,2.7956,2.9607,2.9718,2.9607,2.9588,2.9312,2.9377,3.0073,3.0789,3.181,3.3403,3.4787,3.589,3.6801,3.6708,3.6249,3.5309,3.5168,3.3949,3.1288,3.1543,3.2605,3.4479,3.4806,3.5983,3.8027,3.705,3.7295,3.8673,3.7281,3.6214,3.5375,3.4819,3.446,3.4211,3.2943,3.3423,3.4924,3.3239,3.1866,3.0737,0.0,0.0,0.0,0.0,0.0,0.0,0.0,0.0,0.0,0.0,0.0,0.0,0.0,0.0,0.0,0.0,0.0,0.0,0.0,0.0,0.0,0.0,0.0,0.0,0.0,0.0,0.0,0.0,0.0,0.0,0.0,0.0,0.0,1.858,1.9508,1.9768,1.9093,1.9638,1.9569,1.8211,1.9022,1.9253,1.8286,1.8202,1.7745,1.6776,1.6563,1.6089,1.5344,1.5512,1.5142,1.449,1.4525,1.4159,1.3501,1.2772,1.2053,1.1499,1.0899,1.0525,1.0131,0.9506,0.9082,0.8772,0.833,0.7972,0.7674,0.7125,0.6977,0.696,0.6832,0.6412,0.5794,2.7262,2.7903,2.8579,2.9513,2.9683,2.9569,2.9286,2.9156,2.9297,2.9766,3.0584,3.1683,3.3141,3.4158,3.5047,3.5825,3.5126,3.4547,3.4215,3.3476,3.2963,3.2826,3.3837,3.4665,3.5166,3.5825,3.6417,3.6791,3.7664,3.777,3.7077,3.7196,3.6648,3.5486,3.465,3.4423,3.4638,3.3486,3.3414,3.3966,3.215,3.0485,2.9034,0.0,0.0,0.0,0.0,0.0,0.0,0.0,0.0,0.0,0.0,0.0,0.0,0.0,0.0,0.0,0.0,0.0,0.0,0.0,0.0,0.0,0.0,0.0,0.0,0.0,0.0,0.0,0.0,0.0,0.0,0.0,1.719,1.8153,1.79,1.8647,1.9168,1.9106,1.8619,1.8222,1.8203,1.7971,1.7467,1.6908,1.6874,1.6552,1.5825,1.5784,1.5453,1.4814,1.4529,1.4083,1.3595,1.3304,1.2858,1.2394,1.1779,1.1298,1.0853,1.0114,0.9564,0.9319,0.861,0.8049,0.7566,0.7011,0.6541,0.6423,0.6588,0.6715,0.6589,0.5774,0.5243,0.4808,2.7172,2.7679,2.8255,2.9363,2.9491,2.946,2.9467,2.913,2.9246,3.0366,3.0756,3.1585,3.3297,3.3938,3.458,3.5252,3.4657,3.4058,3.3653,3.2283,3.2228,3.3913,3.4074,3.4471,3.5241,3.6055,3.6544,3.6718,3.7719,3.7392,3.5925,3.6696,3.6318,3.492,3.4163,3.4125,3.4616,3.3417,3.3078,3.3261,3.1582,3.0253,2.9245,2.8502,2.7781,2.704,2.6244,2.6096,2.6133,2.5273,0.0,0.0,0.0,0.0,0.0,0.0,0.0,0.0,0.0,0.0,0.0,0.0,0.0,0.0,0.0,0.0,0.0,0.0,0.0,0.0,0.0,0.0,0.0,0.0,1.7095,1.7901,1.7246,1.7963,1.8466,1.8287,1.7783,1.7383,1.7352,1.7046,1.6661,1.5958,1.5936,1.5577,1.4745,1.4606,1.427,1.3581,1.3363,1.2888,1.217,1.2143,1.1837,1.1135,1.0919,1.059,1.0176,0.9236,0.864,0.8274,0.7245,0.6843,0.6553,0.5775,0.552,0.5783,0.0,0.0,0.0,0.0,0.4237,0.4195,2.7062,2.732,2.7737,2.9191,2.9317,2.9389,2.988,2.9254,2.9395,3.123,3.1058,3.1505,3.3395,3.3855,3.4298,3.4853,3.4658,3.4158,3.3347,3.1662,3.182,3.4398,3.3161,3.3232,3.4875,3.5773,3.6505,3.7037,3.7265,3.6534,3.5101,3.5888,3.543,3.4006,3.3584,3.3679,3.4143,3.2975,3.2527,3.2541,3.1278,3.0702,3.0409,2.9387,2.8623,2.7992,2.7614,2.7048,2.6491,2.5972,0.0,0.0,0.0,0.0,0.0,0.0,0.0,0.0,0.0,0.0,0.0,0.0,0.0,0.0,0.0,0.0,0.0,0.0,0.0,0.0,0.0,0.0,0.0,0.0,1.6687,1.7145,1.6692,1.7161,1.7444,1.7018,1.6942,1.668,1.6054,1.6226,1.5979,1.5137,1.508,1.4614,1.3681,1.3339,0.0,0.0,0.0,1.1587,1.0682,1.1209,1.1075,1.0163,1.0181,0.9837,0.9284,0.8389,0.7791,0.725,0.5898,0.5386,0.5629,0.4561,0.4653,0.5361,0.5222,0.4797,0.4292,0.3725,0.358,0.3703,2.7078,2.8147,2.9021,2.9104,2.9559,2.985,2.9692,3.0016,3.0353,3.0538,3.1067,3.1515,3.1714,3.2877,3.3706,3.3722,3.343,3.3059,3.2633,3.2019,3.2185,3.3285,3.4091,3.4326,3.3912,3.5876,3.6471,3.5587,3.6145,3.5658,3.432,3.4933,3.4602,3.3527,3.3299,3.3145,3.3017,3.2482,3.2016,3.154,3.1133,3.0577,2.9813,2.8727,2.8333,2.821,2.7502,2.6821,2.6115,2.5421,2.445,2.3509,2.3042,2.2699,0.0,0.0,0.0,0.0,0.0,0.0,0.0,0.0,0.0,0.0,0.0,0.0,0.0,0.0,0.0,0.0,0.0,0.0,0.0,1.5113,1.5931,1.6314,1.5843,1.5606,1.5781,1.6343,1.5665,1.521,1.5232,1.463,1.4237,1.3915,1.3742,1.346,1.3044,1.2946,1.2735,1.2258,1.1698,1.1225,1.0966,1.0313,0.992,0.9543,0.9413,0.0,0.8268,0.7505,0.6857,0.6061,0.5223,0.4523,0.4097,0.3821,0.3766,0.3817,0.481,0.4453,0.333,0.3116,0.2961,0.2714,2.7414,2.8079,2.8719,2.8952,2.9497,2.9961,3.0086,3.032,3.0485,3.061,3.0997,3.121,3.1027,3.2039,3.2581,3.2143,3.1654,3.1618,3.2124,3.1483,3.1553,3.2597,3.2892,3.3069,3.3176,3.5068,3.5682,3.4924,3.5751,3.5197,3.3365,3.4182,3.4017,3.3084,3.2851,3.2601,3.2303,3.1804,3.1464,3.1103,3.068,3.0235,2.9813,2.8961,2.8675,2.8664,2.7925,2.6988,2.6008,2.5299,2.4259,2.315,2.2616,2.2165,2.1692,0.0,0.0,0.0,0.0,0.0,0.0,0.0,0.0,0.0,0.0,0.0,0.0,0.0,0.0,1.5436,1.5458,0.0,1.507,1.5146,1.5336,1.5199,1.4476,1.438,1.4482,1.4944,1.4521,1.4078,1.3672,1.3355,1.2908,1.2632,1.2358,1.2199,1.2039,1.177,1.1552,1.1247,1.0789,1.0352,1.0074,0.9685,0.9291,0.8766,0.8619,0.8241,0.7514,0.6583,0.6051,0.5656,0.4309,0.3621,0.3328,0.2637,0.2207,0.2041,0.2041,0.2032,0.1889,0.1862,0.1605,0.1234,2.8105,2.8109,2.8315,2.8814,2.9308,2.9853,3.0463,3.0437,3.0504,3.0888,3.1097,3.1063,3.0768,3.1389,3.1543,3.0795,3.0298,3.052,3.1658,3.0695,3.0675,3.1962,3.1537,3.1675,3.2514,3.4053,3.4702,3.4238,3.5012,3.44,3.2453,3.3356,3.3365,3.2586,3.2258,3.2001,3.1819,3.1252,3.0935,3.0786,3.0224,2.9948,2.9797,2.9127,2.8844,2.8844,2.8276,2.7114,2.5811,2.5231,2.4042,2.2702,2.2235,2.1566,2.0932,2.0423,2.0042,0.0,0.0,0.0,0.0,0.0,0.0,0.0,0.0,0.0,1.6346,1.648,1.5922,1.5571,1.6031,1.5331,1.4694,1.5007,1.4657,1.3967,1.3272,1.3197,1.3194,1.3082,1.3301,1.3138,1.2084,1.2012,1.1729,1.1113,1.0896,1.0749,1.0686,1.0297,1.0051,0.9958,0.9636,0.9355,0.8853,0.8954,0.8685,0.7927,0.8015,0.7605,0.6851,0.5915,0.5383,0.525,0.3231,0.2424,0.2557,0.133,0.0787,0.0388,-0.0646,-0.0634,-0.0,-0.0,-0.0124,-0.0372,2.9311,2.9457,2.9268,2.8611,2.899,2.9654,3.0332,3.0695,3.0938,3.1078,3.1516,3.1495,3.0623,3.1207,3.1355,3.0599,3.0476,3.0658,3.1144,3.0291,3.017,3.1005,3.1967,3.219,3.1564,3.3466,3.3966,3.302,3.277,3.2348,3.1796,3.2124,3.2136,3.1909,3.1573,3.1387,3.1353,3.1157,3.0811,3.0378,3.0174,2.9794,2.9174,2.8266,2.8066,2.821,2.7921,2.6713,2.518,2.4757,2.3374,2.1753,2.1577,2.1101,2.0531,2.0081,1.9721,1.9208,1.8181,1.7542,1.7152,1.7556,1.7254,1.7258,0.0,0.0,1.7309,1.7675,1.711,1.6145,1.5077,1.4827,1.4629,1.403,1.3401,1.2918,1.2511,1.1939,1.1397,1.0964,1.1714,1.1883,1.1012,1.0686,1.0211,0.9602,0.9351,0.928,0.9016,0.9184,0.9045,0.8877,0.8792,0.86,0.8192,0.7937,0.7672,0.7526,0.7266,0.6998,0.6587,0.5919,0.525,0.4313,0.1885,0.0673,0.0404,0.0134,-0.0133,-0.0525,-0.0648,-0.1277,-0.2392,-0.2517,-0.2014,-0.1381,2.8685,2.8729,2.8556,2.8088,2.9024,2.9981,3.0238,3.0169,2.992,2.9504,3.0262,3.0526,2.9649,3.0133,3.0342,2.9921,2.9633,2.9691,3.0319,2.9736,2.9669,3.037,3.0529,3.067,3.0807,3.2107,3.2579,3.216,3.2273,3.1985,3.1263,3.119,3.1081,3.0913,3.0483,3.0282,3.0108,3.0014,2.9957,2.9943,2.9412,2.9078,2.8778,2.7721,2.7242,2.7069,2.6814,2.5843,0.0,2.3689,2.2432,2.1135,2.0903,2.0442,1.9901,1.9349,1.9275,1.9266,1.8697,1.8364,1.8162,1.7648,1.7774,1.7943,1.7938,1.7486,1.7121,1.7231,1.653,1.5756,1.5111,1.4342,1.3753,1.3563,1.2735,1.195,1.1643,1.109,1.054,0.9838,0.9968,1.0105,0.9792,0.9402,0.8964,0.8482,0.8407,0.8298,0.8156,0.8109,0.7962,0.7716,0.76,0.7309,0.7123,0.6774,0.6637,0.6585,0.6371,0.6101,0.5653,0.4574,0.3229,0.175,-0.0135,-0.0938,-0.0931,-0.1744,-0.2125,-0.2346,-0.237,-0.2883,-0.3613,-0.327,-0.3005,-0.2767,2.7984,2.8156,2.8253,2.8176,2.898,2.9656,2.9737,2.9363,2.8905,2.863,2.9274,2.958,2.9097,2.9465,2.9674,2.9469,2.9091,2.9058,2.9589,2.9213,2.9171,2.9577,2.9296,2.9443,3.0121,3.0899,3.1338,3.1437,3.1797,3.1545,3.0732,3.0447,3.0205,2.996,2.954,2.9212,2.9022,2.8852,2.886,2.9,2.8523,2.8172,2.7784,2.6955,2.633,2.5878,2.5682,2.4983,2.3969,2.2722,2.156,2.0506,2.0194,1.9736,1.9253,1.9038,1.9101,1.9238,1.9063,1.885,1.8515,1.7777,1.7956,1.8193,1.7181,1.6815,1.672,1.6651,1.586,1.5099,1.5102,1.3902,1.2895,1.2873,1.1804,1.0922,1.0486,1.0179,0.9745,0.901,0.8589,0.8428,0.8444,0.8179,0.7867,0.7383,0.7288,0.7151,0.7107,0.6801,0.6632,0.6619,0.6252,0.6109,0.5915,0.5701,0.544,0.5406,0.5468,0.5206,0.4768,0.2982,0.0945,-0.1211,-0.2289,-0.2677,-0.252,-0.3349,-0.3855,-0.3923,-0.3987,-0.4386,-0.4721,-0.4303,-0.4147,-0.4302,2.7719,2.8363,2.9039,2.9299,2.8682,2.8269,2.8612,2.837,2.8391,2.9178,2.9119,2.9114,2.9341,2.9756,2.9853,2.9528,2.9364,2.9243,2.9121,2.8811,2.8573,2.8558,2.8947,2.9316,2.9505,3.0163,3.0651,3.0837,3.0702,3.0462,3.0129,2.9789,2.9477,2.9099,2.878,2.8509,2.8327,2.8206,2.7717,2.7007,2.7632,2.6941,2.5725,2.5865,2.5383,2.4635,2.4779,2.4359,2.3574,2.2197,2.0907,1.977,1.9441,1.8967,1.8748,1.9758,1.9495,1.8985,1.9141,1.8345,1.757,1.788,1.7727,1.7402,1.7133,1.6493,1.5981,1.6213,1.5376,1.4564,1.4482,1.336,1.2307,1.1557,1.0782,1.006,0.9065,0.902,0.8816,0.811,0.7616,0.713,0.6996,0.7008,0.6646,0.6039,0.5747,0.5487,0.5386,0.5265,0.5335,0.5486,0.5148,0.4842,0.4841,0.4571,0.4333,0.4388,0.4395,0.4428,0.4341,0.138,-0.1498,-0.4172,-0.4172,-0.4442,-0.4845,-0.4437,-0.4434,-0.4695,-0.4766,-0.5134,-0.5777,-0.6078,-0.5919,-0.5527,2.7512,2.7687,2.7774,2.7741,2.7369,2.7131,2.7266,2.7182,2.7402,2.8218,2.88,0.0,0.0,0.0,0.0,0.0,2.8944,2.8978,2.8474,2.8561,2.8759,2.9128,2.9143,2.944,3.0012,3.0122,3.0192,3.0358,3.019,2.9822,2.9415,2.9435,2.9227,2.8729,2.8665,2.8266,2.7789,2.7851,2.7564,2.6959,2.6895,2.6478,2.5708,2.5113,2.4371,2.3595,0.0,2.2638,2.224,2.1027,2.0247,1.9714,1.9792,1.952,1.929,1.9421,1.8859,1.8179,1.8556,1.8355,1.7931,1.7494,1.7211,1.6993,1.6404,1.5809,1.5225,1.5059,1.4294,1.3469,1.3158,1.2381,1.1604,1.0961,1.0472,0.9881,0.9183,0.8775,0.841,0.787,0.7072,0.6415,0.6272,0.6091,0.5852,0.555,0.5423,0.5009,0.4543,0.4586,0.4385,0.3926,0.3775,0.3765,0.4035,0.3901,0.3776,0.3526,0.26,0.1101,-0.0967,-0.1652,-0.2727,-0.4037,-0.4172,-0.4575,-0.4842,-0.5242,-0.551,-0.5912,-0.6148,-0.6533,-0.706,-0.7556,-0.7762,-0.7816,0.0,2.7341,2.7451,2.7486,2.7143,0.0,0.0,0.0,0.0,0.0,0.0,0.0,0.0,0.0,0.0,0.0,0.0,2.867,2.8232,2.8278,2.8452,2.8717,2.8546,2.8659,2.9124,2.897,2.8986,2.9285,2.9161,2.8976,2.8844,2.8901,2.8624,2.821,2.8104,2.7647,2.704,2.693,2.6602,2.6153,2.5749,2.5277,2.4653,2.3801,2.295,0.0,2.1004,2.0733,2.0651,2.0139,1.9691,1.9392,1.9471,1.9538,1.9515,1.9137,1.8541,1.8105,1.8519,1.8207,1.7638,1.7079,1.6585,1.6071,1.5388,1.4678,1.4128,1.3881,1.3111,1.2418,1.2172,1.1393,1.0591,0.9998,0.9717,0.9245,0.8408,0.8336,0.799,0.7222,0.6593,0.6054,0.5838,0.529,0.4925,0.4852,0.4703,0.4263,0.3768,0.369,0.36,0.3362,0.296,0.3096,0.35,0.2691,0.2159,0.1764,0.0691,-0.1248,-0.3848,-0.373,-0.3974,-0.444,-0.4708,-0.5109,-0.5644,-0.6046,-0.6583,-0.7254,-0.7519,-0.792,-0.8318,-0.8856,-0.9174,-0.9441,0.0,0.0,2.7958,0.0,0.0,0.0,0.0,0.0,0.0,0.0,0.0,0.0,0.0,0.0,0.0,0.0,0.0,0.0,2.8301,2.7974,2.7655,2.7446,2.7248,2.7123,2.7018,2.6877,2.7106,2.7858,2.7699,2.7872,2.8141,2.8039,2.7776,2.7378,2.7053,2.6645,2.6045,2.5475,2.5004,2.4671,2.4241,2.3428,2.2468,2.197,2.1141,2.0075,1.8893,1.8753,1.9053,1.9452,1.9312,1.8982,1.8737,0.0,0.0,1.9004,1.8747,1.8676,1.9002,1.7839,1.6603,1.6773,1.5924,1.4857,1.4087,1.3243,1.2709,1.2678,1.1953,1.1403,0.0,1.0409,0.9336,0.8657,0.8644,0.8184,0.6875,0.7515,0.7602,0.631,0.0,0.5892,0.5434,0.4602,0.3974,0.3921,0.3712,0.3376,0.3163,0.2807,0.2962,0.3499,0.2692,0.2424,0.2964,0.0943,-0.0407,-0.0826,-0.1412,-0.268,-0.4405,-0.4877,-0.5247,-0.5381,-0.578,-0.6313,-0.6985,-0.6985,-0.7653,-0.8587,-0.8587,-0.9123,-0.9794,-0.9794,-1.0103,-1.0504,0.0,0.0,0.0,0.0,0.0,0.0,0.0,0.0,0.0,0.0,0.0,0.0,0.0,0.0,0.0,0.0,0.0,0.0,2.7197,2.7355,2.7646,2.8055,2.7103,2.6895,2.7582,2.6759,2.6548,2.6938,2.7198,2.7013,2.6433,2.7403,2.6989,2.5509,2.6107,2.5715,2.4735,2.4131,2.3863,2.3745,2.2428,2.1843,2.1783,2.0938,2.006,1.9253,1.8844,1.8385,1.8119,1.8486,0.0,0.0,0.0,2.0148,1.9826,0.0,0.0,1.8243,1.7936,1.751,1.6918,1.6259,1.5445,1.4549,1.3805,1.2788,1.1894,1.1327,1.0531,0.9843,0.929,0.9032,0.8613,0.7721,0.8367,0.8349,0.6715,0.711,0.0,0.5835,0.0,0.4632,0.4488,0.3732,0.3235,0.3128,0.3271,0.3152,0.2901,0.2807,0.2694,0.2558,0.175,0.1212,0.0808,-0.0816,-0.1927,-0.2511,-0.298,-0.3828,-0.4881,-0.4897,-0.5245,-0.578,-0.6183,-0.6585,-0.6985,-0.7655,-0.832,-0.8984,-0.8984,-0.9519,-1.0455,-1.0455,-1.0829,-1.1585,0.0,0.0,0.0,0.0,0.0,0.0,0.0,0.0,0.0,0.0,0.0,0.0,0.0,0.0,0.0,0.0,0.0,0.0,0.0,2.6945,2.7106,2.7297,2.6429,2.6147,2.6563,2.5772,2.5486,2.5786,2.5857,2.5662,2.5294,2.5924,2.5528,2.4353,2.4626,2.4294,2.3501,2.2844,2.2565,0.0,0.0,2.0481,2.0219,1.9244,1.8555,1.8011,1.7352,1.7153,1.7264,0.0,0.0,1.9925,2.0015,1.9895,1.9541,1.8981,0.0,1.7974,1.7448,1.7035,1.6467,1.5559,1.4781,1.3848,1.2762,1.1781,1.0874,0.9884,0.9204,0.8648,0.814,0.7945,0.7617,0.0,0.0,0.0,0.584,0.6133,0.6223,0.0,0.4302,0.0,0.3908,0.3386,0.2883,0.2792,0.2911,0.291,0.2528,0.2279,0.1885,0.1212,0.0808,-0.0,-0.1212,-0.2036,-0.2872,-0.3582,-0.3932,-0.4491,-0.5234,-0.5571,-0.5933,-0.6183,-0.6721,-0.7254,-0.7786,-0.8189,-0.8853,-0.9785,-0.9785,-1.0316,-1.1251,-1.1383,-1.178,-1.2309,0.0,0.0,0.0,0.0,0.0,0.0,0.0,0.0,0.0,0.0,2.6448,2.6658,0.0,0.0,0.0,0.0,0.0,0.0,0.0,0.0,2.619,2.5879,2.5329,2.4939,2.4765,2.4213,2.4053,2.432,2.4077,2.4079,2.4184,2.3993,2.3718,2.3311,2.2907,2.2468,2.2082,2.145,2.1021,2.0699,1.9833,1.9083,1.8356,0.0,1.6927,1.656,1.5539,1.5528,0.0,0.0,1.8693,1.888,1.9063,1.9066,1.8964,1.824,1.7891,1.753,1.6914,1.627,1.5394,1.4599,1.3719,1.2796,1.1447,1.0509,0.9638,0.8404,0.8031,0.7722,0.7356,0.6934,0.6537,0.5938,0.0,0.5856,0.4558,0.5136,0.5243,0.4024,0.3844,0.3616,0.3571,0.3041,0.2661,0.2563,0.2403,0.2131,0.1884,0.1346,0.0539,-0.027,-0.0405,-0.1215,-0.2971,-0.2977,-0.3517,-0.4455,-0.4714,-0.4985,-0.5669,-0.6503,-0.6758,-0.6721,-0.739,-0.8056,-0.872,-0.872,-0.9522,-1.0721,-1.0721,-1.1251,-1.1912,-1.2309,-1.2572,-1.2964,0.0,0.0,0.0,0.0,0.0,0.0,0.0,0.0,0.0,0.0,2.5164,2.5597,0.0,0.0,0.0,0.0,0.0,0.0,0.0,0.0,0.0,2.4794,2.376,2.3264,2.3433,2.2471,2.2151,2.2555,2.2742,2.2587,2.2163,2.2768,2.2313,2.0969,2.1098,2.0834,2.0218,1.9534,1.9173,1.9063,1.837,1.7708,1.7139,1.683,0.0,0.0,1.517,0.0,0.0,0.0,1.7818,1.8645,1.8732,1.8508,1.8034,1.7259,1.6624,1.6111,1.5517,1.4736,1.3885,1.3128,1.225,1.1344,1.0153,0.9259,0.0,0.7358,0.7142,0.6816,0.5986,0.6208,0.6228,0.5411,0.5568,0.5383,0.4315,0.4686,0.4628,0.0,0.3355,0.3229,0.3087,0.255,0.1755,0.0547,-0.0273,-0.0272,0.0404,0.0269,-0.0406,-0.178,-0.2192,-0.274,-0.3423,-0.3601,-0.429,-0.5333,-0.5759,-0.6314,-0.6838,-0.7362,-0.7719,-0.7791,-0.8189,-0.8587,-0.9117,-0.9655,-1.019,-1.0721,-1.0986,-1.1776,-1.2572,-1.2704,-1.3095,-1.3748,0.0,0.0,0.0,0.0,0.0,0.0,2.2944,2.3112,2.3126,2.294,2.3512,2.4204,2.4941,2.5351,2.5635,0.0,0.0,0.0,0.0,0.0,0.0,2.38,0.0,0.0,2.2592,2.1995,2.1689,2.1753,0.0,2.1406,2.0805,2.0952,2.0389,1.9386,1.9431,1.917,1.8704,1.8241,1.7735,1.7278,1.7085,1.6475,1.5683,0.0,0.0,0.0,0.0,0.0,0.0,0.0,1.5283,1.5807,1.7323,1.7633,1.7206,1.6328,1.5766,1.5224,1.4576,1.3826,1.3033,1.1959,1.1295,1.0467,0.8825,0.0,0.0,0.6106,0.5891,0.5692,0.4934,0.5045,0.0,0.4657,0.4552,0.4375,0.3533,0.3744,0.3448,0.2252,0.2412,0.2289,0.1481,0.1212,0.0675,-0.0272,-0.1767,-0.2312,-0.1633,-0.1756,-0.2167,-0.3022,-0.3276,-0.3547,-0.3981,-0.4392,-0.5197,-0.5973,-0.6647,-0.7192,-0.76,-0.8252,-0.8755,-0.8851,-0.9256,-0.9788,-1.0183,-1.085,-1.1383,-1.1776,-1.2169,-1.2828,-1.3358,-1.3752,-1.4146,-1.4539,0.0,0.0,0.0,0.0,0.0,0.0,2.1744,2.1983,2.2034,2.1623,2.1852,2.26,2.4141,2.4378,2.46,0.0,0.0,0.0,0.0,0.0,0.0,0.0,0.0,0.0,0.0,0.0,0.0,2.0963,2.0442,0.0,0.0,0.0,0.0,0.0,1.7736,1.7349,1.7076,1.6797,1.618,0.0,0.0,1.5215,0.0,0.0,0.0,0.0,0.0,0.0,0.0,0.0,1.2667,1.2623,1.5023,1.5884,1.5798,1.5041,1.4735,1.4213,1.3397,1.2716,1.199,1.0674,1.0137,0.9331,0.7396,0.6737,0.0,0.4794,0.4684,0.4613,0.4026,0.4072,0.4066,0.0,0.3643,0.325,0.2558,0.2276,0.1857,0.0,0.1068,0.0,-0.0,-0.0673,-0.1078,-0.1487,-0.3107,-0.3798,-0.3421,-0.3655,-0.3795,-0.3861,-0.4084,-0.4352,-0.4823,-0.5439,-0.6203,-0.6989,-0.7626,-0.8163,-0.8595,-0.9253,-0.9642,-0.9911,-1.0319,-1.0853,-1.1512,-1.1909,-1.2441,-1.3095,-1.3481,-1.3875,-1.4268,-1.4796,-1.5062,-1.5323,0.0,0.0,0.0,0.0,0.0,0.0,2.0498,2.0481,2.0428,2.0218,2.0398,2.0811,2.1325,2.2566,2.3393,0.0,0.0,0.0,0.0,0.0,0.0,0.0,0.0,0.0,0.0,0.0,0.0,1.9379,1.8438,0.0,0.0,0.0,0.0,0.0,0.0,1.5368,1.4917,1.4463,0.0,0.0,0.0,0.0,0.0,0.0,0.0,0.0,0.0,0.0,0.0,0.0,0.0,1.0476,1.1253,1.2289,1.3191,1.322,0.0,0.0,1.1693,1.0992,1.0044,0.8884,0.8165,0.7343,0.5655,0.0,0.4894,0.3944,0.381,0.3781,0.3275,0.3427,0.3556,0.3305,0.3052,0.2412,0.1395,0.0605,0.0125,0.0131,0.0,0.0,-0.0673,-0.2557,-0.3924,-0.4111,-0.4795,-0.4905,-0.4178,-0.417,-0.4354,-0.4471,-0.4965,-0.5514,-0.5871,-0.6889,-0.7747,-0.8456,-0.8979,-0.9514,-1.006,-1.0197,-1.0588,-1.1115,-1.1115,-1.1512,-1.2177,-1.2572,-1.3095,-1.3879,-1.4141,-1.4791,-1.5313,-1.5443,-1.5578,-1.5974,0.0,0.0,0.0,0.0,0.0,0.0,1.9225,1.9465,1.9652,1.9736,1.9798,1.9825,1.9861,2.0502,2.1316,2.2177,2.1801,0.0,0.0,0.0,0.0,0.0,0.0,0.0,0.0,0.0,1.8516,1.8594,1.7691,0.0,0.0,0.0,0.0,0.0,0.0,1.4154,1.387,1.3462,0.0,0.0,0.0,0.0,0.0,0.0,0.0,0.0,0.0,0.0,0.9781,0.9189,0.0,0.0,0.8636,0.9106,0.0,0.0,1.0986,1.0623,1.0241,0.9621,0.8723,0.7586,0.693,0.6157,0.4632,0.41,0.3863,0.3052,0.3125,0.3149,0.2826,0.2467,0.2037,0.1609,0.1463,0.0867,-0.0323,-0.0335,-0.0697,-0.1737,-0.2058,-0.2369,-0.2788,-0.4019,-0.4856,-0.5286,-0.5829,-0.6217,-0.6583,-0.5912,-0.5559,-0.5665,-0.6139,-0.6545,-0.7048,-0.7769,-0.8496,-0.925,-0.9841,-1.0375,-1.0853,-1.1311,-1.1703,-1.2173,-1.2433,-1.2828,-1.3354,-1.3884,-1.4277,-1.4534,-1.5187,-1.5714,-1.6104,-1.6359,-1.6618,-1.7012,0.0,0.0,0.0,0.0,0.0,1.7578,1.7944,1.8323,1.8685,1.8996,1.9042,1.9003,1.892,1.8985,1.9465,2.0467,2.018,0.0,0.0,0.0,0.0,0.0,0.0,0.0,0.0,0.0,1.7525,1.7592,1.667,1.6048,0.0,0.0,1.4322,1.3745,0.0,0.0,0.0,0.0,0.0,0.0,0.0,0.0,0.0,0.0,0.0,0.0,0.0,0.0,0.0,0.0,0.0,0.0,0.0,0.0,0.0,0.0,0.9217,0.9,0.8765,0.813,0.7428,0.6347,0.576,0.507,0.3723,0.321,0.2904,0.2298,0.2119,0.2041,0.1886,0.1353,0.0733,0.0169,-0.0087,-0.0639,-0.193,-0.1801,-0.189,-0.3107,0.0,-0.3331,-0.4312,-0.5192,-0.5917,-0.6449,-0.6851,-0.7522,-0.8454,-0.792,-0.7432,-0.7122,-0.7572,-0.797,-0.8217,-0.9046,-0.9649,-1.0309,-1.0846,-1.138,-1.1905,-1.2433,-1.2964,-1.3227,-1.3617,-1.4006,-1.4399,-1.4926,-1.5187,-1.5578,-1.6099,-1.6623,-1.7012,-1.7265,-1.7529,-1.7922,0.0,0.0,0.0,0.0,0.0,1.6076,1.6798,1.6959,1.7194,1.7632,1.8069,1.8317,1.8391,1.8144,1.8016,1.8065,1.8613,0.0,0.0,0.0,0.0,0.0,0.0,0.0,1.7816,1.6738,1.6164,1.6117,1.5067,1.437,1.3977,1.3105,1.2599,1.2586,0.0,0.0,0.0,0.0,0.0,0.0,0.0,0.0,0.0,0.0,0.0,0.0,0.0,0.0,0.0,0.0,0.0,0.0,0.0,0.5302,0.5474,0.0,0.7694,0.7793,0.7067,0.6531,0.605,0.4942,0.4344,0.3675,0.2809,0.2431,0.2159,0.1428,0.0628,0.0079,0.0314,0.0157,-0.0158,-0.073,-0.1291,-0.2032,-0.3098,-0.3759,-0.3996,0.0,-0.4272,-0.4737,-0.5011,-0.6211,-0.7254,-0.8058,-0.8323,-0.8851,-0.9513,-0.9918,-0.9719,-0.8764,-0.9317,-0.9713,-0.9712,-1.0658,-1.138,-1.178,-1.2177,-1.27,-1.335,-1.3744,-1.401,-1.4403,-1.48,-1.5057,-1.5443,-1.5443,-1.6094,-1.7007,-1.7001,-1.7389,-1.8033,-1.8033,-1.8302,-1.8699,0.0,0.0,0.0,0.0,0.0,0.0,1.5669,1.5775,1.6011,1.6537,1.6813,1.6869,1.6729,1.6471,1.6233,1.5887,1.676,0.0,0.0,0.0,0.0,0.0,0.0,0.0,1.6005,1.4993,1.4676,1.5083,1.3563,1.2689,1.2565,1.177,1.1093,1.0559,1.0019,0.9696,0.0,0.0,0.0,0.0,0.0,0.0,0.7635,0.0,0.0,0.0,0.0,0.0,0.0,0.0,0.0,0.0,0.0,0.0,0.0,0.4353,0.5161,0.5844,0.5435,0.4975,0.4571,0.4087,0.3636,0.3022,0.1814,0.1511,0.1142,0.0316,-0.0079,-0.055,-0.1412,-0.1492,-0.1689,-0.2497,-0.2744,-0.3152,0.0,0.0,0.0,-0.4989,-0.5888,-0.6521,-0.6909,-0.7832,-0.8584,-0.9117,-0.93,-0.9817,-1.0707,-1.0882,-1.0764,-1.0114,-1.0209,-1.0605,-1.1185,-1.1405,-1.2173,-1.3223,-1.3354,-1.3748,-1.4403,-1.5057,-1.5448,-1.5448,-1.5849,-1.6234,-1.6483,-1.6737,-1.7001,-1.74,-1.8173,-1.8553,-1.881,-1.9066,-1.945,-1.9973,0.0,0.0,0.0,0.0,0.0,0.0,1.4714,1.487,1.5121,1.5556,1.577,1.5841,1.5693,1.5237,1.487,1.4476,1.4899,0.0,0.0,0.0,0.0,0.0,0.0,0.0,1.4474,1.3565,1.3223,1.3383,1.1941,1.1187,1.1024,1.0257,0.9658,0.9135,0.8697,0.8496,0.0,0.0,0.0,0.0,0.0,0.0,0.616,0.0,0.0,0.0,0.0,0.0,0.0,0.0,0.0,0.0,0.0,0.0,0.0,0.0,0.3487,0.4238,0.3903,0.3662,0.3456,0.276,0.2545,0.216,0.0929,0.0574,0.024,-0.0551,-0.0936,-0.1399,-0.2271,-0.2433,-0.2648,-0.3338,-0.3707,-0.4066,0.0,0.0,0.0,-0.645,-0.7362,-0.8063,-0.852,-0.9249,-0.9918,-1.0445,-1.0444,-1.0921,-1.1807,-1.1972,-1.2094,-1.1942,-1.1875,-1.2037,-1.2565,-1.27,-1.3354,-1.453,-1.466,-1.4926,-1.5583,-1.6234,-1.6618,-1.6748,-1.7012,-1.7394,0.0,-1.7905,-1.8039,-1.8425,-1.9194,-1.9577,-1.9717,-2.0087,-2.0469,-2.0982,0.0,0.0,0.0,0.0,0.0,0.0,0.0,1.4089,1.4356,1.4544,1.4902,1.5142,1.5081,1.4324,1.3777,1.3561,1.3104,0.0,0.0,0.0,0.0,0.0,0.0,1.3237,1.3011,1.2306,1.1702,1.1304,1.0341,0.9725,0.9442,0.8685,0.8304,0.8228,0.7617,0.7318,0.7249,0.6623,0.6079,0.569,0.5532,0.522,0.0,0.0,0.0,0.0,0.0,0.0,0.0,0.0,0.0,0.0,0.0,0.0,0.0,0.0,0.0,0.0,0.0,0.2583,0.2569,0.1214,0.1122,0.1115,-0.0,-0.0405,0.0,-0.1257,-0.193,-0.2375,-0.2353,-0.2752,-0.3173,-0.344,-0.4247,-0.5059,0.0,-0.6287,0.0,0.0,-0.8824,-0.9433,-0.9679,-1.0456,-1.1118,-1.1912,-1.1743,-1.2036,-1.2963,-1.3071,-1.3456,-1.4134,-1.3787,-1.3744,-1.4006,-1.4403,-1.4931,-1.5598,-1.5979,-1.6244,-1.6655,-1.7282,-1.7787,-1.8033,-1.8033,-1.8553,-1.9206,-1.8828,-1.9078,-1.9705,-2.0081,-2.0342,-2.0736,-2.0982,-2.1362,-2.174,0.0,0.0,0.0,0.0,0.0,0.0,0.0,0.0,0.0,0.0,1.3096,1.3378,1.2878,1.2391,1.2077,0.0,0.0,0.0,0.0,0.0,0.0,0.0,1.1842,1.1471,1.1156,1.0692,1.0321,1.004,0.9052,0.8444,0.8237,0.7548,0.7011,0.6475,0.6321,0.5935,0.5318,0.4846,0.4377,0.3984,0.391,0.3656,0.0,0.0,0.0,0.0,0.3503,0.3279,0.0,0.0,0.0,0.0,0.0,0.0,0.0,0.0,0.11,0.1229,0.0994,0.0,0.0729,0.0322,-0.0,-0.0402,0.0,-0.1346,-0.1571,0.0,0.0,0.0,-0.3444,-0.3583,-0.3839,-0.5085,0.0,-0.6064,-0.6708,-0.7657,0.0,-0.8944,-1.0008,-1.084,-1.084,-1.2071,-1.2824,-1.2955,-1.2917,-1.311,-1.3665,-1.3916,-1.428,-1.4721,-1.5163,-1.5313,-1.5183,-1.5448,-1.605,-1.7002,-1.7093,-1.7369,-1.7943,-1.8271,-1.8565,-1.8816,-1.8816,-1.9206,-1.9845,-2.01,-2.01,-2.01,-2.1229,-2.1355,-2.1109,-2.1607,-2.2111,-2.2397,0.0,0.0,0.0,0.0,0.0,0.0,0.0,0.0,0.0,0.0,1.2018,1.2171,1.1958,1.1351,1.0853,0.0,0.0,0.0,0.0,0.0,0.0,1.0495,1.0226,0.9846,0.9134,0.8854,0.8452,0.8071,0.7318,0.682,0.6594,0.5987,0.5533,0.531,0.506,0.4618,0.4073,0.3682,0.3448,0.3365,0.3054,0.0,0.0,0.0,0.0,0.0,0.2329,0.2109,0.0,0.1641,0.1518,0.1175,0.0,0.0,0.0,0.0,-0.0,-0.0139,-0.0147,-0.0153,-0.0236,-0.0557,-0.0959,-0.1438,-0.1836,0.0,0.0,0.0,0.0,0.0,0.0,0.0,0.0,0.0,-0.6244,0.0,0.0,0.0,-0.9603,-1.0042,-1.0968,-1.1697,-1.1771,-1.2797,-1.3652,-1.387,-1.3855,-1.4034,-1.4382,-1.4832,-1.5199,-1.5688,-1.6177,-1.6359,-1.6224,-1.6359,-1.6806,-1.7712,-1.7849,-1.8125,-1.8522,-1.9012,-1.945,-1.9851,-1.9977,-2.0342,-2.0982,-2.1109,-2.1109,-2.1362,-2.2111,-2.2237,-2.2111,-2.2606,-2.2856,-2.3135,0.0,0.0,0.0,0.0,0.0,0.0,0.0,0.0,0.0,0.0,0.0,0.0,0.0,0.0,0.0,0.0,0.0,0.0,0.0,0.0,0.0,0.8758,0.8731,0.8218,0.7204,0.7071,0.6612,0.5899,0.5588,0.5304,0.4975,0.4433,0.4211,0.431,0.3876,0.3528,0.3212,0.2904,0.2827,0.282,0.2359,0.0,0.0,0.0,0.0,0.0,0.0,0.0,0.0,0.0483,0.0349,0.0071,-0.0074,0.0,0.0,0.0,0.0,0.0,-0.1082,-0.0983,-0.0943,-0.1374,-0.1714,-0.2045,-0.2207,0.0,0.0,0.0,0.0,0.0,0.0,-0.5175,0.0,0.0,0.0,0.0,-0.9108,-1.0003,-1.0574,-1.1154,-1.1853,-1.2374,-1.2649,-1.3378,-1.4096,-1.4651,-1.4733,-1.4885,-1.5302,-1.5666,-1.6175,-1.6843,-1.7161,-1.7265,-1.7265,-1.7265,-1.754,-1.822,-1.8583,-1.8869,-1.8953,-1.9733,-2.0361,-2.0873,-2.0902,-2.1491,-2.2174,-2.188,-2.2111,-2.2487,-2.2663,-2.2935,-2.3186,-2.3561,-2.3686,-2.3693,0.0,0.0,0.0,0.0,0.0,0.0,0.0,0.0,0.0,0.0,0.0,0.0,0.0,0.0,0.0,0.0,0.0,0.0,0.0,0.0,0.0,0.6013,0.6768,0.6779,0.5793,0.6007,0.5637,0.4626,0.4696,0.446,0.3916,0.3691,0.3405,0.3104,0.3182,0.2981,0.2668,0.2594,0.1886,0.086,0.0598,0.0,0.0,0.0,0.0,0.0,0.0,0.0,0.0,-0.0878,-0.1238,-0.1193,-0.0637,0.0,0.0,0.0,0.0,0.0,-0.2273,-0.2344,-0.2307,-0.2091,-0.231,-0.2595,-0.2595,0.0,0.0,0.0,0.0,0.0,0.0,-0.5938,-0.6715,0.0,0.0,-0.9264,-0.9902,-1.049,-1.1171,-1.1894,-1.3269,-1.4029,-1.4057,-1.5041,-1.5674,-1.5709,-1.5643,-1.5731,-1.6307,-1.6387,-1.6754,-1.7339,-1.8033,-1.8437,-1.8816,-1.8437,-1.8677,-1.9268,-1.9432,-1.9825,-2.0523,-2.0232,-2.0657,-2.1693,-2.1241,-2.1672,-2.2482,-2.2468,-2.2355,-2.2258,-2.316,-2.3268,-2.3141,-2.3776,-2.403,-2.4194,0.0,0.0,0.0,0.0,0.0,0.0,0.0,0.0,0.0,0.0,0.0,0.0,0.0,0.0,0.0,0.0,0.0,0.0,0.0,0.0,0.4985,0.4772,0.4817,0.468,0.4286,0.4368,0.4144,0.3554,0.3373,0.2976,0.2391,0.2179,0.1758,0.1262,0.1389,0.1324,0.1153,0.0937,0.0624,0.0154,0.0,0.0,0.0,0.0,0.0,0.0,0.0,0.0,0.0,0.0,-0.1628,-0.1857,-0.1535,0.0,0.0,0.0,0.0,0.0,-0.2759,-0.2993,-0.3222,-0.3177,-0.3168,-0.3288,-0.3498,0.0,0.0,0.0,0.0,0.0,0.0,0.0,-0.7554,-0.846,-0.945,-1.021,-1.0655,-1.1201,-1.1804,-1.2526,-1.3425,-1.4189,-1.4658,-1.5132,-1.5712,-1.6462,-1.6408,-1.6514,-1.7007,-1.7295,-1.7669,-1.8296,-1.8693,-1.9078,-1.959,-1.9468,-1.953,-1.9776,-1.9902,-2.0234,-2.0734,-2.0754,-2.1368,-2.238,-2.2354,-2.2822,-2.3446,-2.3245,-2.323,-2.3502,-2.3525,-2.371,-2.3961,-2.4219,-2.4469,-2.4742,0.0,0.0,0.0,0.0,0.0,0.0,0.0,0.0,0.0,0.0,0.0,0.0,0.0,0.0,0.0,0.0,0.0,0.0,0.0,0.4015,0.3971,0.3682,0.2961,0.274,0.3058,0.2887,0.2655,0.2381,0.1987,0.1457,0.0841,0.0652,0.0293,-0.0146,-0.0384,-0.0387,-0.0227,-0.0777,-0.0852,-0.0529,0.0,0.0,0.0,0.0,0.0,0.0,0.0,0.0,0.0,0.0,0.0,0.0,0.0,0.0,0.0,-0.2342,-0.2586,-0.2904,-0.3177,-0.356,-0.3969,-0.4201,-0.4114,-0.398,-0.437,-0.4396,0.0,0.0,0.0,0.0,0.0,-0.7486,0.0,-0.915,-1.018,-1.0921,-1.1181,-1.1816,-1.2449,-1.3007,-1.3566,-1.4193,-1.4938,-1.5248,-1.5789,-1.7006,-1.7014,-1.7147,-1.7776,-1.8168,-1.8682,-1.9334,-1.9462,-1.9717,-2.0234,-2.0234,-2.0234,-2.0234,-2.0361,-2.0514,-2.0968,-2.1571,-2.2134,-2.2912,-2.3406,-2.3895,-2.4187,-2.3908,-2.3984,-2.4494,-2.3943,-2.423,-2.4743,-2.4937,-2.4999,-2.525,0.0,0.0,0.0,0.0,0.0,0.0,0.0,0.0,0.0,0.0,0.0,0.0,0.0,0.0,0.0,0.0,0.0,0.0,0.0,0.3129,0.2983,0.2271,0.1459,0.1499,0.2555,0.217,0.1627,0.0984,0.0633,0.0211,-0.0491,-0.0443,-0.0447,-0.0584,-0.1691,-0.1783,-0.1213,-0.2023,-0.2326,-0.2193,-0.2212,0.0,0.0,0.0,0.0,0.0,0.0,0.0,0.0,0.0,0.0,0.0,0.0,0.0,-0.2857,-0.2673,-0.2973,-0.3443,-0.3745,-0.4227,-0.4704,-0.5086,-0.4699,0.0,-0.4989,-0.5169,0.0,-0.5673,0.0,0.0,0.0,-0.8475,-0.9782,-0.9688,-1.0908,-1.172,-1.1393,-1.2016,-1.28,-1.3245,-1.4153,-1.4845,-1.545,-1.5915,-1.6523,-1.7542,-1.7553,-1.8036,-1.8932,-1.9322,-1.9711,-1.9979,-2.0354,-2.0482,-2.0609,-2.0856,-2.0856,-2.0609,-2.0862,-2.1383,-2.2032,-2.2309,-2.3018,-2.3923,-2.3723,-2.4028,-2.4516,-2.4257,-2.4108,-2.4138,-2.4459,-2.4707,-2.5124,-2.581,-2.5651,-2.5322,0.0,0.0,0.0,0.0,0.0,0.0,0.0,0.0,0.0,0.0,0.0,0.5803,0.5408,0.0,0.0,0.0,0.0,0.0,0.0,0.1443,0.0971,0.046,0.0076,-0.0224,-0.0437,0.0221,0.0288,-0.041,-0.1181,-0.1541,-0.1614,-0.1551,-0.1642,-0.1823,-0.2192,-0.2422,-0.2516,-0.2765,-0.2885,-0.2959,-0.307,-0.2938,0.0,0.0,0.0,0.0,0.0,0.0,0.0,0.0,-0.333,-0.3491,-0.3491,-0.3533,-0.3588,-0.3755,-0.3917,-0.4051,-0.4575,-0.5018,-0.546,-0.5674,-0.5699,0.0,0.0,-0.6077,-0.6334,-0.6636,-0.728,0.0,0.0,0.0,-1.0125,-1.0422,-1.1176,-1.1814,-1.1944,-1.2482,-1.3107,-1.3689,-1.4494,-1.5279,-1.6035,-1.626,-1.6941,-1.813,-1.8143,-1.8482,-1.9297,-1.9711,-2.01,-2.0736,-2.0856,-2.1109,-2.1481,-2.1607,-2.1607,-2.1481,-2.1481,-2.1795,-2.2413,-2.2539,-2.3155,-2.4062,-2.3992,-2.4245,-2.4899,-2.4805,-2.4734,-2.4749,-2.513,-2.531,-2.545,-2.5934,-2.5936,-2.5905,0.0,0.0,0.0,0.0,0.0,0.0,0.0,0.0,0.6137,0.0,0.0,0.0,0.0,0.3764,0.0,0.0,0.0,0.0,0.0603,0.0209,-0.0361,-0.112,-0.1196,-0.1699,-0.2522,-0.1523,-0.1207,-0.168,-0.2372,-0.2709,-0.2662,-0.2549,-0.263,-0.2914,-0.2765,-0.2895,-0.3241,-0.3194,-0.3299,-0.343,-0.3567,-0.3509,0.0,0.0,0.0,0.0,0.0,0.0,0.0,0.0,-0.4,-0.4092,-0.4161,-0.4252,-0.4357,-0.4537,-0.4688,-0.4879,-0.5289,-0.5764,-0.6197,0.0,0.0,0.0,-0.7044,-0.7035,-0.7121,-0.7409,-0.8037,-0.8882,-0.9845,-1.0306,-1.0703,-1.1128,-1.1727,-1.2195,-1.2409,-1.2933,-1.3438,-1.4039,-1.4662,-1.5538,-1.6515,-1.6634,-1.7296,-1.8747,-1.8668,-1.8908,-1.9801,-2.0055,-2.038,-2.1088,-2.1094,-2.1423,-2.1941,-2.2013,-2.2187,-2.2455,-2.2089,-2.2138,-2.2613,-2.2964,-2.351,-2.4097,-2.4367,-2.4656,-2.5109,-2.5373,-2.5517,-2.5633,-2.5651,-2.5602,-2.5855,-2.6207,-2.6371,-2.6404,0.0,0.0,0.0,0.0,0.0,0.0,0.0,0.0,0.4957,0.4625,0.4092,0.0,0.0,0.0,0.0,0.0,0.0,0.0,-0.1202,-0.047,-0.0688,-0.2249,-0.2332,-0.2594,-0.3225,-0.2873,-0.2767,-0.2889,-0.2912,-0.3172,-0.3699,-0.3328,-0.328,-0.3491,-0.3356,-0.3304,-0.3299,-0.3379,-0.3505,-0.363,-0.3772,-0.378,-0.3889,0.0,0.0,0.0,0.0,0.0,0.0,0.0,-0.4717,-0.4764,-0.4628,-0.4848,-0.5067,-0.4873,-0.5369,-0.5878,-0.5806,-0.6426,0.0,0.0,0.0,0.0,-0.8349,-0.8011,-0.7554,-0.7852,-0.8494,-0.9331,-1.0372,-1.1092,-1.1467,-1.1663,-1.237,-1.2798,-1.291,-1.3057,-1.3496,-1.4401,-1.4767,-1.5527,-1.6827,-1.6997,-1.769,-1.921,-1.9,-1.9453,-2.0556,-2.0308,-2.0483,-2.1142,-2.1163,-2.1387,-2.1668,-2.192,-2.2448,-2.311,-2.2745,-2.2668,-2.262,-2.3695,-2.4097,-2.4105,-2.4864,-2.5124,-2.5124,-2.587,-2.6371,-2.6579,-2.5863,-2.5839,-2.6239,-2.6859,-2.6869,-2.6744,0.0,0.0,0.0,0.0,0.0,0.0,0.0,0.0,0.4023,0.3558,0.3023,0.0,0.0,0.0,0.0,0.0,0.0,0.0,-0.0982,-0.169,-0.23,-0.289,-0.3424,-0.377,-0.3815,-0.4055,-0.3862,-0.3253,-0.3649,-0.3871,-0.3904,-0.3858,-0.3937,-0.4097,-0.3911,-0.404,-0.4255,-0.426,-0.4317,-0.4483,-0.4608,-0.4649,-0.4745,0.0,0.0,0.0,0.0,0.0,0.0,0.0,0.0,0.0,-0.5491,-0.5672,-0.5944,-0.6176,-0.638,-0.657,-0.6911,-0.7283,0.0,-0.7765,0.0,0.0,0.0,-0.8637,0.0,0.0,-0.9925,-1.0418,-1.1034,-1.161,-1.2101,-1.2312,-1.2666,-1.3101,-1.3413,-1.3837,-1.4404,-1.509,-1.5949,-1.6644,-1.7325,-1.8003,-1.8539,-1.8943,-1.9432,-1.9978,-2.0358,-2.0686,-2.1213,-2.1758,-2.2011,-2.2443,-2.2943,-2.339,-2.3439,-2.3475,-2.3354,-2.3412,-2.3604,-2.3716,-2.4031,-2.451,-2.4634,-2.5014,-2.5517,-2.5994,-2.6363,-2.66,-2.6377,-2.6327,-2.6457,-2.6949,-2.6992,-2.7059,0.0,0.0,0.0,0.0,0.0,0.0,0.4489,0.3931,0.3291,0.2418,0.1882,0.1403,0.0,0.0,0.0,0.0,0.0,0.0,-0.1679,-0.2336,-0.3004,-0.3565,-0.4032,-0.4313,-0.4364,-0.4867,-0.4734,-0.4055,-0.4406,-0.4607,-0.4579,-0.4656,-0.4726,-0.4815,-0.4733,-0.4784,-0.5002,-0.4912,-0.4944,-0.5128,-0.513,-0.5266,-0.5508,0.0,0.0,0.0,0.0,0.0,0.0,0.0,0.0,0.0,-0.6152,-0.6411,-0.6647,-0.7066,-0.7142,-0.7261,-0.7752,-0.8056,0.0,-0.8538,-0.9052,-0.9494,-0.9763,0.0,0.0,0.0,-1.0799,-1.1087,-1.1883,-1.2258,-1.2651,-1.3189,-1.322,-1.3479,-1.4159,-1.4494,-1.5066,-1.5867,-1.6582,-1.7304,-1.804,-1.8692,-1.9239,-1.9581,-2.014,-2.0516,-2.0754,-2.0905,-2.1336,-2.1881,-2.2122,-2.2512,-2.3194,-2.3581,-2.3672,-2.3565,-2.3592,-2.3952,-2.4522,-2.419,-2.4405,-2.4988,-2.5103,-2.5552,-2.6175,-2.6141,-2.6402,-2.7017,-2.6751,-2.6692,-2.6926,-2.7177,-2.7401,-2.7826,0.0,0.0,0.4985,0.4516,0.0,0.0,0.3296,0.3154,0.2603,0.1405,0.0802,0.04,0.0,0.0,0.0,-0.1337,0.0,0.0,-0.2926,-0.2831,-0.3128,-0.4096,-0.4258,-0.4507,-0.4922,-0.5347,-0.5416,-0.507,-0.5026,-0.516,-0.5483,-0.5483,-0.5553,-0.5497,-0.5538,-0.5531,-0.5484,-0.5378,-0.5501,-0.5687,-0.554,-0.5743,-0.6178,-0.6045,0.0,0.0,0.0,0.0,0.0,0.0,0.0,0.0,-0.6658,-0.6989,-0.7254,-0.7552,-0.7704,-0.7983,-0.842,0.0,0.0,-0.9542,-1.0056,0.0,-1.0775,-1.0507,-1.047,-1.1271,-1.1318,-1.1536,-1.276,-1.2866,-1.3052,-1.3997,-1.3948,-1.4072,-1.4934,-1.5144,-1.5487,-1.6604,-1.7019,-1.7644,-1.8816,-1.9243,-1.9723,-2.0588,-2.0788,-2.1124,-2.153,-2.116,-2.1106,-2.1613,-2.1686,-2.2004,-2.2663,-2.3052,-2.3324,-2.3594,-2.3575,-2.4134,-2.5076,-2.4828,-2.502,-2.5602,-2.5961,-2.6511,-2.705,-2.6461,-2.6756,-2.7527,-2.6827,-2.7047,-2.7521,-2.7521,-2.7999,-2.8525,0.0,0.0,0.3844,0.3745,0.0,0.0,0.2645,0.2286,0.171,0.0778,-0.0064,-0.069,-0.1067,-0.1248,0.0,-0.1974,-0.2569,0.0,-0.2921,-0.3734,-0.4296,-0.4405,-0.5114,-0.5677,-0.6044,-0.5995,-0.5914,-0.574,-0.5456,-0.5336,-0.5457,-0.5659,-0.5706,-0.5593,-0.5736,-0.5938,-0.6199,-0.5892,-0.6022,-0.6455,-0.6537,-0.6573,-0.6639,-0.6601,-0.6849,0.0,0.0,0.0,0.0,0.0,0.0,0.0,-0.7017,-0.7274,-0.7541,-0.7631,-0.8028,-0.8514,-0.8899,-0.9247,0.0,0.0,-1.09,-1.1407,-1.1419,-1.1487,-1.155,-1.1472,-1.162,-1.2001,-1.2874,-1.3278,-1.3736,-1.4101,-1.4484,-1.4826,-1.5374,-1.5796,-1.6192,-1.6691,-1.7578,-1.8363,-1.8891,-1.9658,-2.0123,-2.0364,-2.1088,-2.1398,-2.1284,-2.1406,-2.1693,-2.2067,-2.2288,-2.2587,-2.2997,-2.363,-2.3897,-2.3943,-2.4023,-2.4483,-2.5444,-2.5196,-2.5383,-2.5961,-2.6327,-2.6613,-2.6688,-2.6856,-2.6994,-2.7176,-2.7098,-2.7177,-2.7521,-2.7521,-2.7823,-2.8179,0.0,0.0,0.0,0.0,0.0,0.0,0.0,0.0,0.0633,-0.0064,-0.108,-0.1762,-0.1762,-0.1988,0.0,0.0,-0.3157,-0.3463,-0.3629,-0.4287,-0.4836,-0.514,-0.5686,-0.6156,-0.6366,-0.6335,-0.6331,-0.635,-0.6205,-0.6009,-0.5892,-0.6238,-0.6408,-0.6392,-0.639,-0.6552,-0.6781,-0.6324,-0.6358,-0.6764,-0.6632,-0.6671,-0.673,-0.669,-0.6844,-0.6996,-0.6649,0.0,0.0,0.0,0.0,0.0,0.0,0.0,-0.8026,-0.8215,-0.8414,-0.8778,0.0,0.0,0.0,-1.0973,0.0,-1.1844,-1.1955,-1.198,-1.2011,-1.2132,-1.2149,-1.2355,-1.3276,-1.3583,-1.403,-1.4554,-1.4982,-1.5369,-1.5797,-1.6235,-1.6611,-1.7053,-1.7875,-1.8564,-1.8925,-1.9557,-2.0165,-2.0501,-2.1166,-2.1484,-2.1683,-2.1821,-2.2035,-2.2416,-2.2712,-2.2849,-2.3099,-2.3575,-2.3808,-2.3808,-2.3975,-2.4682,-2.5803,-2.5932,-2.6265,-2.6796,-2.6926,-2.7047,-2.7047,-2.7177,-2.7185,-2.7073,-2.7177,-2.7643,-2.8034,-2.8164,-2.8653,-2.9103,0.0,0.0,0.0,0.0,0.0,0.0,0.0,0.0,0.0,-0.1029,-0.2107,-0.2737,-0.2557,-0.2847,-0.3209,0.0,0.0,0.0,-0.4496,-0.4857,-0.5326,-0.5994,-0.6306,-0.6492,-0.6535,-0.6585,-0.6727,-0.6963,-0.6936,-0.6934,-0.6843,-0.7072,-0.7265,-0.7423,-0.7127,-0.7113,-0.7292,-0.6573,-0.656,-0.6898,-0.6581,-0.652,-0.6692,-0.6637,-0.662,-0.672,-0.6704,-0.6798,-0.6924,-0.734,0.0,0.0,0.0,0.0,-0.8484,-0.863,-0.8669,-0.874,0.0,0.0,-1.0548,-1.1648,-1.212,0.0,-1.2467,-1.237,-1.237,-1.2861,-1.2631,-1.2662,-1.3743,-1.3914,-1.4227,-1.5,-1.5446,-1.5749,-1.6211,-1.6624,-1.6984,-1.7417,-1.8098,-1.8526,-1.8877,-1.9535,-2.019,-2.0791,-2.1082,-2.1555,-2.2296,-2.2219,-2.2233,-2.2655,-2.2928,-2.2974,-2.299,-2.3336,-2.3598,-2.3662,-2.4122,-2.5017,-2.6319,-2.6875,-2.7237,-2.7521,-2.7521,-2.7521,-2.7521,-2.7521,-2.7409,-2.7185,-2.7409,-2.7955,-2.862,-2.8873,-2.9456,-3.0002,0.0,0.0,0.0,0.0,0.0,0.0,0.0,0.0,0.0,0.0,-0.3077,-0.3672,-0.3827,-0.3929,-0.4179,-0.4468,-0.4737,-0.4984,-0.5067,0.0,0.0,-0.7024,-0.7026,-0.7061,-0.7096,-0.7096,-0.7105,-0.707,-0.7327,-0.7872,-0.8623,-0.7989,-0.7726,-0.7817,-0.756,-0.74,-0.7317,-0.6683,-0.6595,-0.7004,-0.691,-0.6791,-0.6592,-0.6618,-0.6656,-0.6659,-0.6439,-0.6725,-0.7279,-0.7579,-0.7995,0.0,0.0,0.0,-0.8359,-0.8171,-0.8253,-0.8536,0.0,0.0,-1.1629,0.0,-1.2974,-1.3249,0.0,0.0,-1.3346,-1.3346,-1.3083,-1.3002,-1.4063,-1.4398,-1.4772,-1.5303,-1.5881,-1.6254,-1.6293,-1.6781,-1.7125,-1.7231,-1.7949,-1.8584,-1.8909,-1.966,-2.0365,-2.0732,-2.1306,-2.1908,-2.2632,-2.2326,-2.2355,-2.2989,-2.2826,-2.2752,-2.298,-2.3311,-2.3812,-2.4245,-2.4937,-2.5856,-2.6935,-2.6969,-2.7225,-2.7521,-2.7521,-2.7521,-2.7521,-2.7521,-2.7521,-2.7401,-2.7521,-2.7926,-2.8478,-2.8598,-2.8864,-2.9195,0.0,0.0,0.0,0.0,0.0,0.0,0.0,0.0,0.0,0.0,0.0,-0.4247,-0.4243,-0.4585,-0.4897,-0.5011,-0.5464,-0.5836,-0.6001,-0.6561,-0.6951,-0.7116,-0.721,-0.7284,-0.7284,-0.716,-0.7214,-0.7466,-0.7757,-0.8504,-0.9637,-0.9546,-0.9292,-0.8851,-0.8208,-0.7957,-0.7842,-0.6874,-0.6678,-0.7023,-0.6881,-0.7171,-0.7588,-0.713,-0.7351,-0.7747,-0.7054,-0.7002,-0.7362,-0.7638,-0.8086,-0.8574,-0.8657,0.0,0.0,0.0,-0.8636,-0.9134,-0.9873,-1.0852,-1.1792,0.0,-1.3048,-1.3357,-1.3494,-1.3624,-1.3817,-1.4112,-1.4016,-1.4016,-1.44,-1.471,-1.5029,-1.5457,-1.5903,-1.6292,-1.6475,-1.7036,-1.7415,-1.7582,-1.8283,-1.8784,-1.8891,-1.9407,-1.9889,-2.0339,-2.0823,-2.1409,-2.2039,-2.2231,-2.246,-2.2716,-2.2997,-2.3208,-2.3316,-2.3658,-2.4187,-2.5003,-2.5712,-2.6525,-2.728,-2.7257,-2.7529,-2.802,-2.802,-2.802,-2.802,-2.802,-2.8011,-2.8122,-2.825,-2.8754,-2.9351,-2.9814,-3.0288,-3.0672,0.0,0.0,0.0,0.0,0.0,0.0,0.0,0.0,0.0,0.0,0.0,-0.4831,-0.4845,0.0,0.0,0.0,-0.6151,-0.6577,-0.6909,-0.7183,-0.7369,-0.732,-0.7495,-0.7555,-0.7493,-0.7327,-0.7581,-0.8127,-0.8091,-0.8896,-1.0532,-1.0673,-1.0627,-1.0462,-0.9378,-0.8701,-0.8291,-0.7322,-0.7067,-0.7311,-0.7219,-0.7669,-0.8455,-0.8146,-0.8494,-0.8978,-0.805,-0.7844,-0.8053,-0.813,-0.849,-0.887,-0.9122,-0.9226,0.0,0.0,0.0,-0.9608,0.0,0.0,-1.1799,-1.2645,-1.31,-1.3473,0.0,0.0,-1.4195,-1.4589,-1.4772,-1.4797,-1.4962,-1.5139,-1.5401,-1.5673,-1.6058,-1.6526,-1.6896,-1.736,-1.7778,-1.808,-1.8632,-1.8985,-1.8886,-1.937,-1.9772,-2.0222,-2.0659,-2.1193,-2.1846,-2.2379,-2.2807,-2.2836,-2.3317,-2.3478,-2.3376,-2.3894,-2.4671,-2.5594,-2.6208,-2.6822,-2.7633,-2.7603,-2.8002,-2.8746,-2.8517,-2.8517,-2.8636,-2.8636,-2.8618,-2.8719,-2.8966,-2.9517,-3.0184,-3.0736,-3.1237,-3.1665,0.0,0.0,0.0,0.0,0.0,0.0,0.0,0.0,0.0,0.0,0.0,-0.5683,-0.6212,-0.6406,-0.6596,-0.6785,-0.7029,-0.7254,-0.7553,-0.7766,-0.7903,-0.7968,-0.8199,0.0,-0.8038,-0.8063,-0.836,-0.8942,-0.8403,-0.9332,-1.1575,-1.0798,-1.1285,-1.2757,-1.1154,-0.9719,-0.846,-0.8103,-0.7942,-0.7954,-0.8311,-0.854,-0.8764,-0.9688,-1.0104,-1.0009,-0.9424,-0.9511,-0.9863,-0.953,-0.9466,-0.9595,-0.9905,-0.9543,-0.893,0.0,0.0,0.0,0.0,-1.1278,0.0,-1.2733,-1.3586,0.0,0.0,-1.4216,-1.4589,-1.4589,-1.4769,-1.5119,-1.5684,-1.575,-1.5843,-1.6122,-1.6565,-1.7078,-1.7381,-1.777,-1.8079,-1.8387,-1.8862,-1.9197,-1.8898,-1.9903,-2.0408,-2.0203,-2.0989,-2.1987,-2.2877,-2.2968,-2.3278,-2.3858,-2.3505,-2.33,-2.3252,-2.4268,-2.5102,-2.5818,-2.629,-2.6924,-2.8002,-2.7966,-2.8473,-2.945,-2.8746,-2.8636,-2.8984,-2.8984,-2.9085,-2.9303,-2.9422,-2.9795,-3.0421,-3.0449,-3.0719,-3.1132,0.0,0.0,0.0,0.0,0.0,0.0,0.0,0.0,0.0,0.0,0.0,0.0,0.0,-0.7032,-0.729,-0.7402,-0.7577,-0.7637,-0.7518,-0.7587,-0.7735,-0.7949,-0.8057,-0.828,-0.863,-0.837,-0.8419,-0.8747,-0.8597,-0.922,-1.0509,-1.0758,-1.1088,-1.1351,-1.0579,-1.0188,-1.0123,-0.8719,-0.8336,-0.8716,-0.9182,-0.9854,-1.0597,-1.0788,-1.1438,-1.2128,-1.1098,-1.0607,-1.0416,-1.0016,-0.9973,-1.0058,-0.9666,-0.9679,-0.9819,-0.9717,-0.9971,-1.0401,0.0,0.0,0.0,-1.2775,-1.331,-1.3703,-1.4151,-1.4545,-1.4897,-1.5272,-1.5404,-1.567,-1.6243,-1.6211,-1.6157,-1.6443,-1.6749,-1.7166,-1.7482,-1.7874,-1.8268,-1.8693,-1.9071,-1.9383,-1.9376,-1.9784,-2.0165,-2.0381,-2.0918,-2.1464,-2.1892,-2.2339,-2.2726,-2.2889,-2.3095,-2.3419,-2.3682,-2.4754,-2.5599,-2.6001,-2.6973,-2.7723,-2.8247,-2.8709,-2.9183,-2.9568,-2.9686,-2.9686,-2.9577,-2.9577,-2.9912,-3.0372,-3.0138,-3.0616,-3.1354,-3.1407,-3.1604,-3.2018,0.0,0.0,0.0,0.0,0.0,-0.4889,-0.5243,-0.5723,-0.6129,-0.6224,0.0,0.0,0.0,0.0,-0.7995,-0.804,-0.8211,-0.8178,-0.785,-0.7825,-0.7887,-0.808,-0.8214,-0.8527,-0.8993,-0.8685,-0.867,-0.8877,-0.8626,-0.8944,-0.9794,-1.0383,-1.069,-1.0759,-1.027,-1.0462,-1.1076,-0.988,-0.9627,-1.0102,-1.0551,-1.1311,-1.211,-1.2345,-1.3047,-1.3789,-1.277,-1.2237,-1.2,-1.1394,-1.1138,-1.093,-1.0335,-1.0362,-1.0537,-1.0186,-1.0569,-1.1107,-1.1409,0.0,0.0,0.0,-1.3034,-1.3367,-1.4139,-1.4534,-1.4851,-1.5431,-1.5659,-1.5895,-1.6472,-1.6612,-1.6595,-1.6683,-1.6972,-1.7282,-1.781,-1.82,-1.864,-1.9199,-1.9583,-1.9687,-1.9783,-1.999,-2.0197,-2.0617,-2.1034,-2.1442,-2.1726,-2.2404,-2.283,-2.2992,-2.3321,-2.3659,-2.4202,-2.5048,-2.5664,-2.6136,-2.7305,-2.8053,-2.8311,-2.8918,-2.9263,-2.9486,-2.9949,-3.0122,-3.0039,-3.0274,-3.0616,-3.0966,-3.0859,-3.1315,-3.1943,-3.2129,-3.2321,-3.2737,0.0,0.0,-0.4629,-0.482,-0.5258,-0.5583,-0.5495,-0.6125,-0.6662,-0.6727,0.0,0.0,0.0,0.0,0.0,-0.8693,-0.902,-0.8959,-0.8459,-0.8415,-0.8415,-0.8434,-0.8789,-0.9078,-0.9207,-0.9117,-0.9173,-0.9447,-0.8421,-0.8537,-0.9711,-0.9701,-1.0258,-1.1235,-1.0562,-1.0553,-1.1081,-1.1494,-1.1803,-1.2046,-1.2497,-1.2862,-1.315,-1.4313,-1.4807,-1.4926,-1.4446,-1.4472,-1.4697,-1.3777,-1.2878,-1.2223,-1.211,-1.1548,-1.0853,-1.0315,-1.083,-1.1592,0.0,0.0,0.0,-1.2852,-1.2852,-1.3021,-1.394,-1.4156,-1.4335,-1.492,-1.5397,-1.5824,-1.6428,-1.6921,-1.7225,-1.7059,-1.7145,-1.7647,-1.8581,-1.8678,-1.9024,-1.9987,-2.0292,-2.0411,-2.0189,-2.0609,-2.0925,-2.0917,-2.157,-2.219,-2.2703,-2.3267,-2.3885,-2.4491,-2.4145,-2.4127,-2.4482,-2.4881,-2.5487,-2.61,-2.7203,-2.7823,-2.821,-2.8437,-2.8888,-2.9551,-2.9541,-2.9925,-3.048,-3.1073,-3.1315,-3.1325,-3.1672,-3.2018,-3.2373,-3.2363,-3.2755,-3.3324,0.0,-0.4549,-0.5127,-0.5526,-0.5824,-0.6128,-0.6644,-0.7002,-0.72,0.0,0.0,0.0,-0.8669,-0.8896,-0.9051,-0.894,-0.8828,-0.8695,-0.8533,-0.8326,-0.8397,-0.8806,-0.9043,-0.9438,-0.9973,-0.9764,-0.9707,-0.9904,-0.939,-0.9283,-0.9624,-0.9991,-1.0365,-1.074,-1.1095,-1.1403,-1.1529,-1.0707,-1.1164,-1.2382,-1.2457,-1.3143,-1.4114,-1.4649,-1.5471,-1.6346,-1.5912,-1.5717,-1.5544,-1.4836,-1.4049,-1.3351,-1.2641,-1.2119,-1.173,-1.1426,-1.1941,-1.2576,-1.1985,0.0,0.0,0.0,0.0,0.0,-1.3414,-1.3682,-1.4137,-1.524,-1.5456,-1.5755,-1.6676,-1.7221,-1.7538,-1.7447,-1.7649,-1.8044,-1.8571,-1.8844,-1.9155,-1.9689,-2.0051,-2.03,-2.0411,-2.0719,-2.1019,-2.1121,-2.177,-2.2391,-2.291,-2.3791,-2.4402,-2.4427,-2.432,-2.4506,-2.4895,-2.5014,-2.5478,-2.6209,-2.6742,-2.7521,-2.8458,-2.8661,-2.9167,-2.9905,-3.0339,-3.0771,-3.1295,-3.1191,-3.16,-3.2352,-3.2123,-3.2581,-3.3172,-3.3037,-3.3017,-3.3278,-0.4408,-0.4892,-0.5502,-0.6092,-0.6401,-0.6741,-0.7322,-0.7604,-0.782,0.0,0.0,0.0,-0.8987,-0.9405,-0.9479,-0.8951,-0.9026,-0.8949,-0.8705,-0.8751,-0.8944,-0.9267,-0.9642,-1.0,-1.0402,-1.0415,-1.0256,-0.9996,-0.971,-0.9482,-0.9276,-0.9666,-0.9799,-0.9769,-1.0497,-1.0857,-1.095,-1.032,-1.1174,-1.296,-1.33,-1.3984,-1.485,-1.524,-1.595,-1.6668,-1.6747,-1.6727,-1.6579,-1.6324,-1.5597,-1.452,-1.3338,-1.2971,-1.2923,-1.2305,-1.2821,-1.3477,-1.2668,-1.2749,-1.2998,-1.3067,0.0,0.0,-1.3768,-1.3763,-1.3948,-1.5184,-1.5531,-1.5853,-1.6591,-1.7259,-1.7763,-1.7846,-1.8224,-1.8575,-1.8735,-1.9171,-1.961,-2.0061,-2.0373,-2.0656,-2.1003,-2.0993,-2.1273,-2.1709,-2.2278,-2.2978,-2.386,-2.4658,-2.4984,-2.5072,-2.4908,-2.5014,-2.5405,-2.5329,-2.5569,-2.6343,-2.6756,-2.7515,-2.872,-2.871,-2.9269,-3.0231,-3.0447,-3.0921,-3.1553,-3.1333,-3.194,-3.2913,-3.281,-3.3161,-3.3625,-3.3388,-3.3512,-3.3554,0.0,-0.5362,-0.5898,-0.6542,-0.694,-0.731,-0.7711,-0.8058,-0.8432,0.0,-0.9069,-0.9315,-0.9385,-0.9933,-0.9956,-0.9155,-0.9392,-0.9475,-0.9079,-0.9422,-0.9683,-0.9841,-1.0392,-1.0668,-1.0601,-1.0996,-1.0763,-0.9947,-0.972,-0.938,-0.8922,-0.9175,-0.9145,-0.8845,-0.932,-0.9653,-0.9963,-1.0339,-1.174,-1.373,-1.4425,-1.4934,-1.5404,-1.5971,-1.6351,-1.6541,-1.7247,-1.7564,-1.7717,-1.7846,-1.7058,-1.5675,-1.4146,-1.411,-1.4308,-1.3204,-1.3705,-1.4347,-1.3431,-1.3508,-1.3885,-1.4094,-1.35,0.0,-1.4478,-1.4171,-1.3876,-1.4956,-1.5599,-1.6016,-1.6339,-1.7134,-1.7966,-1.8184,-1.8781,-1.916,-1.9052,-1.959,-2.0135,-2.0686,-2.1073,-2.1345,-2.1692,-2.1545,-2.1695,-2.2501,-2.3031,-2.3825,-2.4864,-2.5403,-2.5824,-2.6,-2.566,-2.5702,-2.5965,-2.5729,-2.5925,-2.6555,-2.708,-2.7863,-2.8901,-2.8603,-2.926,-3.0421,-3.0172,-3.0664,-3.1603,-3.1603,-3.2197,-3.3304,-3.3427,-3.3582,-3.3738,-3.3738,-3.3861,-3.4151,-0.5257,-0.5884,-0.6546,-0.7026,-0.7469,-0.785,-0.8276,-0.8628,-0.8942,-0.9134,-1.0026,-1.0607,-1.0684,-1.0601,-1.0587,-1.0656,-0.9819,-0.9709,-1.0585,-0.9827,-0.9701,-1.0557,-1.0581,-1.0682,-1.0732,-1.1233,-1.1053,-1.0235,-1.0439,-1.0257,-0.9751,-0.9779,-0.9745,-0.9682,-0.9655,-1.0086,-1.084,-1.1557,-1.279,-1.4186,-1.396,-1.48,-1.6307,-1.6709,-1.7456,-1.8354,-1.8496,-1.8546,-1.8412,-1.744,-1.7062,-1.6909,-1.5668,-1.5413,-1.5411,-1.489,-1.511,-1.5422,-1.4988,-1.4992,-1.5065,-1.4541,-1.4415,0.0,-1.4471,-1.4371,-1.4449,-1.5373,-1.5482,-1.5658,-1.6523,-1.7115,-1.7546,-1.7932,-1.8608,-1.9167,-1.9445,-1.9796,-2.0243,-2.0621,-2.1032,-2.1445,-2.1996,-2.2165,-2.2458,-2.282,-2.39,-2.4616,-2.4793,-2.5669,-2.6234,-2.6201,-2.6116,-2.6446,-2.7207,-2.6865,-2.6957,-2.7492,-2.7511,-2.7901,-2.8641,-2.8842,-2.9484,-3.0467,-3.0852,-3.1395,-3.2267,-3.2267,-3.2674,-3.3394,-3.3383,-3.3731,-3.43,-3.43,-3.4188,-3.4097,-0.5856,-0.6357,-0.681,-0.7405,-0.7918,-0.8404,-0.8896,-0.9215,-0.9633,-1.029,-1.1301,-1.1771,-1.1231,-1.1354,-1.1354,-1.1041,-1.0494,-1.0386,-1.0988,-1.0364,-1.021,-1.0637,-1.0666,-1.0707,-1.088,-1.1326,-1.1306,-1.0821,-1.1028,-1.0871,-1.0352,-1.0089,-1.0253,-1.0677,-1.0052,-1.0414,-1.1485,-1.1736,-1.2724,-1.4197,-1.4636,-1.5567,-1.6746,-1.7449,-1.8054,-1.8599,-1.9221,-1.9643,-1.9722,-1.8243,-1.7916,-1.7972,-1.6835,-1.6666,-1.686,-1.6442,-1.6597,-1.6792,-1.5903,-1.5905,-1.6055,-1.556,-1.5345,0.0,0.0,-1.5348,-1.53,-1.6162,-1.6096,-1.6203,-1.713,-1.7376,-1.7671,-1.8296,-1.8734,-1.9163,-1.963,-2.0012,-2.0456,-2.0752,-2.1033,-2.1479,-2.2042,-2.2264,-2.2705,-2.3595,-2.4612,-2.5176,-2.5284,-2.5953,-2.6396,-2.6503,-2.6389,-2.6795,-2.7637,-2.7389,-2.7452,-2.787,-2.78,-2.8324,-2.9204,-2.9292,-3.0074,-3.1269,-3.152,-3.1874,-3.2424,-3.2424,-3.2895,-3.3691,-3.3693,-3.4197,-3.4758,-3.4869,-3.4858,-3.4758,-0.6511,-0.6691,-0.7004,-0.7817,-0.8303,-0.8801,-0.9503,-0.9835,-1.0418,-1.1654,-1.252,-1.2778,-1.216,-1.2349,-1.2313,-1.178,-1.1446,-1.1316,-1.1428,-1.1068,-1.0914,-1.0887,-1.0918,-1.0973,-1.115,-1.1485,-1.1447,-1.1106,-1.1312,-1.1182,-1.0659,-1.0286,-1.0565,-1.1364,-1.0441,-1.0822,-1.2156,-1.1884,-1.2789,-1.4535,-1.5682,-1.6453,-1.6966,-1.8017,-1.8396,-1.8513,-1.9678,-2.0377,-2.0625,-1.9286,-1.8981,-1.8994,-1.7873,-1.7882,-1.8212,-1.7743,-1.789,-1.7985,-1.691,-1.6944,-1.7192,-1.6733,-1.6567,-1.6529,0.0,0.0,0.0,-1.6793,-1.6813,-1.691,-1.769,-1.7699,-1.7891,-1.8754,-1.8979,-1.9221,-1.9653,-2.0084,-2.0457,-2.0735,-2.0919,-2.1278,-2.2026,-2.2227,-2.3024,-2.4363,-2.495,-2.5479,-2.5769,-2.6182,-2.6503,-2.6903,-2.6801,-2.708,-2.7821,-2.7813,-2.7909,-2.8011,-2.8126,-2.8678,-2.9526,-2.9808,-3.0603,-3.185,-3.205,-3.2342,-3.2555,-3.2555,-3.3083,-3.3738,-3.4003,-3.4569,-3.5091,-3.5312,-3.5423,-3.5423,-0.7144,-0.7082,-0.7344,-0.8337,-0.8663,-0.904,-0.9882,-1.0387,-1.1182,-1.2662,-1.3208,-1.3785,-1.4373,-1.3845,-1.3742,-1.4531,-1.3042,-1.2371,-1.3241,-1.2004,-1.1608,-1.2302,-1.1873,-1.1598,-1.1721,-1.203,-1.1632,-1.0434,-1.0953,-1.1011,-1.0514,-1.0336,-1.0524,-1.098,-1.0914,-1.155,-1.2755,-1.3033,-1.441,-1.6419,-1.6564,-1.6594,-1.6784,-1.8316,-1.8728,-1.869,-1.9547,-2.0077,-2.0359,-1.9701,-1.974,-1.9931,-1.9063,-1.8825,-1.8841,-1.8602,-1.8608,-1.8585,-1.8453,-1.8852,-1.903,-1.7934,-1.8262,-1.8588,-1.7215,0.0,-1.7476,-1.6962,0.0,-1.7113,-1.7728,0.0,0.0,-1.8567,-1.8991,-1.923,-1.923,-1.9662,-2.0008,-2.043,-2.0474,-2.0846,-2.1859,-2.2637,-2.369,-2.4745,-2.4956,-2.5244,-2.5925,-2.6184,-2.6579,-2.7357,-2.7362,-2.774,-2.8479,-2.8697,-2.8743,-2.8603,-2.886,-2.8858,-2.8578,-2.9902,-3.0741,-3.1188,-3.2284,-3.2779,-3.288,-3.288,-3.3005,-3.3328,-3.3715,-3.4486,-3.5312,-3.5423,-3.5423,-3.5423,-0.7783,-0.7857,-0.8149,-0.8851,-0.8974,-0.9383,-1.0431,-1.1985,-1.3157,-1.347,-1.444,-1.5184,-1.5418,-1.4957,-1.4909,-1.5537,-1.4662,-1.4085,-1.4055,-1.3429,-1.2789,-1.2297,-1.202,-1.1906,-1.1947,-1.1809,-1.1686,-1.1598,-1.1548,-1.1331,-1.0905,-1.0736,-1.1209,-1.2189,-1.2038,-1.2986,-1.472,-1.4554,-1.523,-1.628,-1.6448,-1.667,-1.7134,-1.8744,-1.9542,-1.9998,-2.0668,-2.1075,-2.113,-2.055,-2.0476,-2.0522,-2.0251,-1.9966,-1.9758,-1.9903,-1.9885,-1.9648,-1.9012,-1.943,-1.9712,-1.8629,-1.8868,-1.9173,-1.8154,-1.7999,-1.8073,-1.7886,0.0,0.0,0.0,0.0,0.0,0.0,-1.9231,-1.9478,-1.9558,-1.9714,-1.998,-2.0278,-2.0273,-2.0752,-2.1906,-2.2292,-2.2978,-2.4487,-2.4581,-2.4868,-2.5583,-2.6032,-2.6535,-2.7212,-2.7537,-2.8054,-2.8817,-2.8961,-2.902,-2.8914,-2.891,-2.9012,-2.911,-3.0267,-3.1024,-3.1435,-3.2662,-3.3092,-3.3181,-3.3281,-3.3568,-3.3925,-3.4234,-3.4657,-3.5096,-3.5416,-3.5534,-3.5569,-0.8522,-0.8598,-0.8764,-0.9198,-0.9345,-0.9871,-1.1288,-1.3158,-1.4388,-1.4311,-1.528,-1.6064,-1.6322,-1.6103,-1.6079,-1.6587,-1.6234,-1.579,-1.5096,-1.4811,-1.4187,-1.3155,-1.2789,-1.2622,-1.2655,-1.2206,-1.2074,-1.2348,-1.2041,-1.1744,-1.1455,-1.1403,-1.1922,-1.298,-1.3252,-1.4312,-1.5868,-1.5757,-1.6147,-1.6772,-1.6883,-1.7367,-1.814,-1.9141,-2.0061,-2.081,-2.141,-2.1655,-2.1618,-2.1363,-2.1297,-2.1268,-2.1248,-2.091,-2.063,-2.1023,-2.0983,-2.0685,-1.991,-2.0282,-2.0533,-1.9401,-1.9478,-1.9611,-1.8797,-1.8762,-1.887,-1.8797,-1.8705,0.0,0.0,0.0,-1.9014,-1.9507,0.0,-1.9872,-2.0029,-1.9942,-1.993,-2.0127,-2.0218,-2.0725,-2.1957,-2.2026,-2.2599,-2.4236,-2.4352,-2.4735,-2.5586,-2.6006,-2.6605,-2.7327,-2.781,-2.8292,-2.8932,-2.9084,-2.9197,-2.9186,-2.9014,-2.9212,-2.9587,-3.0588,-3.1371,-3.1743,-3.2895,-3.3481,-3.358,-3.3679,-3.4076,-3.4392,-3.4704,-3.4828,-3.4897,-3.5406,-3.5721,-3.5874,-0.9273,-0.8968,-0.8789,-0.9298,-0.9688,-1.0501,-1.2443,-1.3366,-1.4192,-1.5203,-1.5397,-1.5953,-1.7363,-1.7236,-1.7391,-1.8357,-1.7854,-1.7274,-1.6884,-1.5995,-1.5598,-1.5973,-1.4746,-1.4141,-1.4433,-1.365,-1.2823,-1.2025,-1.2111,-1.2206,-1.2189,-1.2448,-1.2584,-1.2697,-1.4374,-1.5154,-1.5296,-1.6474,-1.7622,-1.8699,-1.8303,-1.8995,-2.0149,-1.9583,-1.9875,-2.0642,-2.1049,-2.1201,-2.1351,-2.1939,-2.2159,-2.2092,-2.1928,-2.17,-2.1588,-2.1607,-2.1598,-2.1578,-2.1559,-2.1826,-2.1777,-2.052,-2.0297,-2.0136,-1.8823,-1.9524,-2.029,-1.9354,-2.0102,-2.0775,-2.0262,-2.0053,-2.0059,-2.0256,-2.0255,0.0,0.0,-2.002,-1.9872,-1.9901,-2.0339,-2.0929,-2.1802,-2.2285,-2.3044,-2.4276,-2.4456,-2.5027,-2.6426,-2.6303,-2.675,-2.7796,-2.8179,-2.851,-2.8801,-2.9242,-2.9508,-2.9508,-2.9497,-2.9497,-2.9541,-3.0834,-3.1586,-3.1846,-3.314,-3.3878,-3.4075,-3.4075,-3.4174,-3.4457,-3.4664,-3.4957,-3.5211,-3.5455,-3.5944,-3.6309,-0.9623,-0.9543,-0.9502,-0.9543,-0.976,-1.0526,-1.2407,-1.4278,-1.5787,-1.6643,-1.7177,-1.7904,-1.9167,-1.8526,-1.8403,-1.9464,-1.9071,-1.8557,-1.8091,-1.786,-1.7415,-1.6753,-1.6148,-1.5695,-1.537,-1.4409,-1.3891,-1.3752,-1.3107,-1.2784,-1.2712,-1.2618,-1.2779,-1.334,-1.4626,-1.576,-1.6797,-1.784,-1.859,-1.8938,-1.9435,-2.0049,-2.0654,-2.0575,-2.0729,-2.1057,-2.1771,-2.2032,-2.2184,-2.2793,-2.284,-2.2719,-2.3018,-2.2755,-2.2347,-2.2542,-2.2506,-2.2287,-2.2287,-2.2589,-2.2631,-2.1569,-2.1252,-2.0927,-1.988,-2.0002,-2.0154,-1.9684,-2.0318,-2.0836,-2.0461,-2.0635,-2.0741,-2.0742,-2.0938,-2.1041,0.0,-2.0819,-2.0809,-2.0954,-2.0771,-2.0878,-2.1568,-2.164,-2.2319,-2.3854,-2.3887,-2.4388,-2.5736,-2.6403,-2.6992,-2.7764,-2.8402,-2.8696,-2.8732,-2.9226,-2.9329,-2.9004,-2.9329,-2.9588,-2.9817,-3.1107,-3.1754,-3.2086,-3.3496,-3.4249,-3.4347,-3.464,-3.4835,-3.4932,-3.5223,-3.5416,-3.5465,-3.5551,-3.5695,-3.5924,-1.016,-1.0285,-1.0276,-0.988,-1.0373,-1.1417,-1.3186,-1.5023,-1.6629,-1.7503,-1.8165,-1.8933,-2.0088,-1.9561,-1.9418,-2.0214,-1.9935,-1.9511,-1.892,-1.9045,-1.8652,-1.776,-1.7432,-1.6916,-1.6339,-1.5486,-1.4883,-1.4577,-1.3951,-1.3561,-1.3361,-1.3221,-1.3358,-1.3766,-1.509,-1.6365,-1.7479,-1.8705,-1.9474,-2.001,-2.0834,-2.1338,-2.1629,-2.1848,-2.1737,-2.156,-2.2448,-2.2774,-2.2834,-2.3441,-2.3401,-2.3308,-2.3664,-2.3458,-2.3066,-2.3338,-2.3311,-2.3183,-2.3183,-2.3274,-2.3266,-2.2513,-2.2152,-2.169,-2.0617,-2.07,-2.0876,-2.055,-2.098,-2.1511,-2.1617,-2.1617,-2.1659,-2.16,-2.1649,-2.1655,0.0,-2.1512,-2.1578,-2.1731,-2.1262,-2.1141,-2.1666,-2.1741,-2.2298,-2.3688,-2.3846,-2.4385,-2.5674,-2.6525,-2.7217,-2.7934,-2.8679,-2.8976,-2.8847,-2.9421,-2.9512,-2.9114,-2.9614,-3.0045,-3.0285,-3.1298,-3.2043,-3.263,-3.3779,-3.4461,-3.4823,-3.5223,-3.5416,-3.5512,-3.5716,-3.5812,-3.5895,-3.5716,-3.562,-3.5829,-1.0862,-1.1213,-1.1243,-1.0484,-1.165,-1.3186,-1.4735,-1.57,-1.6734,-1.7903,-1.8402,-1.9092,-2.0317,-2.0178,-2.0261,-2.0732,-2.0525,-2.0188,-1.9634,-1.965,-1.9468,-1.9092,-1.853,-1.7957,-1.7388,-1.6732,-1.5877,-1.4729,-1.4649,-1.4435,-1.4036,-1.4249,-1.4159,-1.4041,-1.5797,-1.6807,-1.7321,-1.8971,-2.04,-2.173,-2.2382,-2.2808,-2.292,-2.3213,-2.2776,-2.214,-2.2915,-2.3227,-2.3287,-2.37,-2.3841,-2.3841,-2.3841,-2.3841,-2.3841,-2.3841,-2.4024,-2.4206,-2.4292,-2.406,-2.3805,-2.336,-2.3043,-2.2478,-2.1114,-2.1649,-2.2296,-2.1796,-2.2105,-2.2722,-2.363,-2.3097,-2.2583,-2.2776,-2.2394,-2.2025,-2.1883,-2.1949,-2.2101,-2.2101,-2.1787,-2.1711,-2.2101,-2.251,-2.305,-2.3785,-2.4243,-2.4986,-2.6087,-2.6691,-2.7434,-2.8342,-2.9103,-2.9398,-2.9069,-2.9839,-3.0007,-2.9788,-3.0322,-3.0769,-3.0996,-3.1489,-3.2272,-3.3365,-3.3813,-3.4629,-3.562,-3.562,-3.5812,-3.6015,-3.6015,-3.6193,-3.637,-3.5837,-3.567,-3.6001,-1.1374,-1.227,-1.3103,-1.3497,-1.3494,-1.3899,-1.5356,-1.6403,-1.7571,-1.9306,-1.9681,-2.0414,-2.1824,-2.1311,-2.1223,-2.1892,-2.1506,-2.1278,-2.1347,-2.106,-2.0638,-2.0163,-1.958,-1.8991,-1.8355,-1.7144,-1.6486,-1.6306,-1.5221,-1.4796,-1.4937,-1.4576,-1.4514,-1.4779,-1.576,-1.6741,-1.7775,-1.9352,-2.0893,-2.2316,-2.3197,-2.3474,-2.3429,-2.4294,-2.4325,-2.3803,-2.3903,-2.3947,-2.3957,-2.4241,-2.4196,-2.4196,-2.4529,-2.4605,-2.469,-2.4775,-2.4775,-2.4786,-2.4871,-2.4617,-2.4418,-2.463,-2.3998,-2.314,-2.2579,-2.2677,-2.269,-2.208,-2.2994,-2.3753,-2.3297,-2.3471,-2.3482,-2.2853,-2.2488,-2.2327,-2.2252,-2.2327,-2.2402,-2.2553,-2.2264,-2.2189,-2.2295,-2.2433,-2.2847,-2.3764,-2.4095,-2.4729,-2.5942,-2.6965,-2.7833,-2.8395,-2.8958,-2.9058,-2.8809,-2.9489,-2.9676,-2.9288,-3.036,-3.096,-3.1241,-3.1943,-3.2743,-3.3562,-3.4482,-3.5305,-3.5908,-3.6086,-3.6275,-3.6275,-3.6275,-3.637,-3.6408,-3.6726,-3.6958,-3.7258,-1.2736,-1.4003,-1.5241,-1.5627,-1.5853,-1.6177,-1.6834,-1.7577,-1.8581,-1.9898,-2.0434,-2.1136,-2.2189,-2.1918,-2.1873,-2.2161,-2.1857,-2.155,-2.1473,-2.15,-2.1286,-2.0726,-2.0458,-1.9959,-1.931,-1.8046,-1.7337,-1.7185,-1.589,-1.5284,-1.5392,-1.4874,-1.4811,-1.5117,-1.5901,-1.6855,-1.8014,-2.0256,-2.1834,-2.2873,-2.394,-2.4242,0.0,-2.4914,-2.5125,-2.4933,-2.4872,-2.4711,-2.4615,-2.4786,-2.47,-2.47,-2.4946,-2.5031,-2.5031,-2.52,-2.5115,-2.5031,-2.52,-2.5041,-2.4871,-2.5285,-2.473,-2.4095,-2.3576,-2.3406,-2.3177,-2.278,-2.329,-2.3731,-2.383,-2.3818,-2.3566,-2.2896,-2.2703,-2.2553,-2.2359,-2.2499,-2.2627,-2.2507,-2.2652,-2.2717,-2.2681,-2.2583,-2.2852,-2.3535,-2.4213,-2.501,-2.5935,-2.7294,-2.8026,-2.8242,-2.8927,-2.9038,-2.8572,-2.9364,-2.9654,-2.9444,-3.0567,-3.1318,-3.1584,-3.2063,-3.2901,-3.4023,-3.4619,-3.5376,-3.6193,-3.637,-3.6358,-3.6358,-3.6358,-3.6358,-3.642,-3.6973,-3.729,-3.7617,-1.441,-1.6036,-1.7302,-1.7032,-1.8178,-1.9041,-1.8778,-1.9059,-1.9644,-2.0262,-2.0942,-2.1582,-2.2092,-2.2389,-2.2426,-2.2258,-2.2012,-2.1661,-2.1225,-2.164,-2.1632,-2.1062,-2.1183,-2.0907,-2.014,-1.9089,-1.8291,-1.7716,-1.6572,-1.5886,-1.5714,-1.5248,-1.5185,-1.539,-1.6243,-1.7244,-1.842,-2.1319,-2.2839,-2.3348,-2.4493,-2.4946,-2.5031,-2.52,-2.5464,-2.5644,-2.5644,-2.5464,-2.5285,-2.5285,-2.52,-2.52,-2.52,-2.5285,-2.5285,-2.5285,-2.5285,-2.5285,-2.5285,-2.5285,-2.5285,-2.5622,-2.5431,-2.4993,-2.426,-2.3902,-2.3682,-2.3615,-2.3374,-2.3486,-2.4635,-2.4013,-2.3298,-2.3075,-2.3075,-2.2933,-2.2539,-2.2823,-2.2922,-2.2528,-2.2871,0.0,-2.2977,-2.2877,-2.3011,-2.3364,-2.4392,-2.5363,-2.6086,-2.7561,-2.8248,-2.8084,-2.8994,-2.9028,-2.8335,-2.9269,-2.9699,-2.9796,-3.0834,-3.1512,-3.2038,-3.2038,-3.2852,-3.4276,-3.4351,-3.5132,-3.6257,-3.6332,-3.6358,-3.6358,-3.6358,-3.6358,-3.642,-3.6973,-3.7186,-3.7412,-1.5683,-1.7053,-1.8096,-1.8087,-1.9384,-2.0451,-2.072,-2.0619,-2.0797,-2.1684,-2.2187,-2.2699,-2.3108,-2.3268,-2.3426,-2.3706,-2.3493,-2.3317,-2.3176,-2.2913,-2.2396,-2.1674,-2.1722,-2.1485,-2.0974,-1.9809,-1.9146,-1.9004,-1.7264,-1.6364,-1.6258,-1.5602,-1.5615,-1.6167,-1.6857,-1.8198,-2.0102,-2.1949,-2.2997,-2.3591,-2.4922,-2.5475,-2.5475,-2.5728,-2.5812,-2.5822,-2.5822,-2.5728,-2.5559,-2.5559,-2.538,-2.52,-2.5464,-2.5559,-2.5559,-2.5728,-2.5644,-2.5559,-2.5895,-2.5717,-2.5622,-2.6218,-2.5935,-2.5344,-2.5004,-2.4567,-2.4097,-2.3682,-2.3999,-2.4254,-2.3884,-2.3716,-2.3446,-2.3298,-2.3372,-2.3497,-2.3408,-2.3475,-2.3497,-2.3408,-2.2902,-2.261,-2.2645,-2.2988,-2.3301,-2.3645,-2.436,-2.5206,-2.6109,-2.7572,-2.8334,-2.8263,-2.8796,-2.8831,-2.8335,-2.8893,-2.9332,-2.9796,-3.0797,-3.1489,-3.2038,-3.2376,-3.2983,-3.3705,-3.4345,-3.4998,-3.573,-3.6169,-3.6358,-3.6358,-3.6358,-3.6358,-3.642,-3.6973,-3.7186,-3.7362,-1.7237,-1.8347,-1.9256,-1.9366,-2.0529,-2.1573,-2.2167,-2.2411,-2.2416,-2.2098,-2.242,-2.2829,-2.3299,-2.3615,-2.3938,-2.4221,-2.3843,-2.3587,-2.3369,-2.3052,-2.2742,-2.2341,-2.2198,-2.2072,-2.1861,-2.0732,-2.009,-1.9957,-1.8344,-1.7531,-1.7353,-1.6681,-1.6567,-1.6868,-1.7869,-1.9246,-2.0949,-2.2321,-2.3361,-2.4151,-2.5185,-2.5559,-2.5644,-2.5895,-2.599,-2.5895,-2.599,-2.599,-2.5895,-2.5812,-2.5728,-2.5717,-2.5728,-2.5822,-2.5895,-2.599,-2.6063,-2.6146,-2.6313,-2.6218,-2.6218,-2.6644,-2.6071,-2.5453,-2.5451,-2.4805,-2.4192,-2.3954,-2.4164,-2.4328,-2.3869,-2.3751,-2.3677,-2.3519,-2.3519,-2.3503,-2.3245,-2.3436,-2.3414,-2.2887,-2.2781,-2.2748,-2.2688,-2.3005,-2.3352,-2.3619,-2.4657,-2.5621,-2.6359,-2.7489,-2.8115,-2.7917,-2.8405,-2.8512,-2.8245,-2.8739,-2.9391,-3.0086,-3.0858,-3.1565,-3.2376,-3.2636,-3.3258,-3.4336,-3.4613,-3.5281,-3.6168,-3.6339,-3.6358,-3.6358,-3.6358,-3.6358,-3.6395,-3.6659,-3.6759,-3.696,-1.8877,-1.9746,-2.0427,-2.065,-2.1617,-2.2521,-2.322,-2.3788,-2.3794,-2.2662,-2.2808,-2.3198,-2.356,-2.404,-2.437,-2.4364,-2.4108,-2.382,-2.341,-2.3169,-2.3026,-2.3105,-2.2871,-2.2732,-2.2732,-2.1875,-2.123,-2.0781,-1.9649,-1.8804,-1.8317,-1.7825,-1.7671,-1.7866,-1.9173,-2.0393,-2.1565,-2.2871,-2.3902,-2.4705,-2.5449,-2.5728,-2.5812,-2.6146,-2.6146,-2.6063,-2.6229,-2.6313,-2.6313,-2.6146,-2.6146,-2.6229,-2.6063,-2.6146,-2.6324,-2.6324,-2.6396,-2.6644,-2.6644,-2.6644,-2.6727,-2.6891,-2.6223,-2.5561,-2.5716,-2.501,-2.4345,-2.4345,-2.4273,-2.42,-2.4055,-2.4043,-2.397,-2.3751,-2.3751,-2.3688,-2.321,-2.3492,-2.3458,-2.2669,-2.2806,-2.2965,-2.2925,-2.2987,-2.3285,-2.3915,-2.4858,-2.5773,-2.6357,-2.7347,-2.7741,-2.7452,-2.8069,-2.8339,-2.8012,-2.8686,-2.9424,-3.0396,-3.0906,-3.1712,-3.2711,-3.2723,-3.3458,-3.4667,-3.4715,-3.5524,-3.6815,-3.6534,-3.6452,-3.6452,-3.6452,-3.6358,-3.6358,-3.6358,-3.6358,-3.6571,-2.0202,-2.0889,-2.1511,-2.1556,-2.2402,-2.322,-2.3556,-2.4082,-2.4393,-2.4282,-2.4496,-2.472,-2.472,-2.4982,-2.5072,-2.466,-2.485,-2.473,-2.4293,-2.3965,-2.382,-2.3989,-2.3584,-2.3444,-2.3444,-2.3148,-2.2489,-2.1402,-2.0701,-1.9756,-1.8596,-1.8516,-1.89,-1.9603,-2.0871,-2.1733,-2.2402,-2.3762,-2.4705,-2.5207,-2.5865,-2.6313,-2.6479,-2.6561,-2.6561,-2.6561,-2.6561,-2.6644,-2.6809,-2.6644,-2.6561,-2.6561,-2.6561,-2.6561,-2.6561,-2.6561,-2.6561,-2.6644,-2.6809,-2.6891,-2.6891,-2.7149,-2.6553,-2.5947,-2.5947,-2.5308,-2.4718,-2.4718,-2.4574,-2.449,-2.4429,-2.4418,-2.4345,-2.42,-2.4273,-2.4322,-2.4131,-2.4093,-2.4093,-2.399,-2.3282,-2.2937,-2.3326,-2.2949,-2.3398,-2.4962,-2.4883,-2.5158,-2.6058,-2.7046,-2.7521,-2.7399,-2.836,-2.8407,-2.7477,-2.8373,-2.9387,-3.0396,-3.0873,-3.1704,-3.2711,-3.2982,-3.3131,-3.3381,-3.4565,-3.5811,-3.7015,-3.6815,-3.6628,-3.6628,-3.6452,-3.6358,-3.6358,-3.6358,-3.6358,-3.6458,-2.1668,-2.1915,-2.2308,-2.2978,-2.3315,-2.3727,-2.4328,-2.4522,-2.4754,-2.5178,-2.502,-2.4932,-2.5137,-2.5235,-2.5363,-2.5575,-2.5225,-2.4977,-2.4638,-2.4114,-2.3761,-2.3761,-2.3593,-2.359,-2.3667,-2.3584,-2.3062,-2.2099,-2.1706,-2.0998,-1.9941,-1.9737,-2.006,-2.0843,-2.2062,-2.2883,-2.352,-2.4607,-2.5337,-2.587,-2.6235,-2.6479,-2.6644,-2.6727,-2.6727,-2.6644,-2.6727,-2.6809,-2.6891,-2.6951,-2.6951,-2.6951,-2.6809,-2.6962,-2.7115,-2.7115,-2.7115,-2.7208,-2.7464,-2.7383,-2.729,-2.7557,-2.6857,-2.6165,-2.6165,-2.5444,-2.479,-2.479,-2.4718,-2.4646,-2.4646,-2.4646,-2.4646,-2.4418,-2.4574,-2.4646,-2.4418,-2.449,-2.4446,-2.4119,-2.3443,-2.3094,-2.3224,-2.3129,-2.3385,-2.4377,-2.5089,-2.597,-2.7132,-2.7566,-2.7714,-2.7574,-2.8279,-2.8462,-2.7948,-2.8614,-2.9591,-3.0823,-3.1001,-3.1751,-3.2896,-3.3081,-3.3532,-3.4388,-3.534,-3.6299,-3.7108,-3.7015,-3.6815,-3.6722,-3.6628,-3.6546,-3.6358,-3.6358,-3.6358,-3.6395,-2.2994,-2.2981,-2.3196,-2.4075,-2.4145,-2.4212,-2.4783,-2.4909,-2.514,-2.5584,-2.5441,-2.5421,-2.5528,-2.543,-2.5577,-2.5922,-2.5435,-2.5071,-2.4924,-2.4395,-2.4009,-2.3877,-2.3747,-2.3764,-2.3927,-2.4013,-2.3578,-2.2605,-2.2655,-2.2111,-2.1097,-2.1124,-2.1502,-2.2371,-2.3324,-2.4029,-2.4614,-2.5499,-2.6073,-2.6407,-2.6715,-2.6798,-2.6809,-2.6962,-2.6974,-2.6809,-2.6985,-2.7056,-2.7126,-2.7278,-2.7348,-2.7441,-2.7301,-2.7383,-2.7615,-2.7615,-2.7615,-2.7696,-2.7881,-2.7788,-2.7696,-2.7881,-2.7278,-2.6571,-2.6493,-2.5784,-2.511,-2.4956,-2.4921,-2.4921,-2.4921,-2.4921,-2.4849,-2.4706,-2.4778,-2.479,-2.4646,-2.4718,-2.459,-2.4049,-2.3661,-2.3379,-2.3293,-2.3344,-2.3777,-2.4589,-2.5589,-2.6546,-2.7466,-2.7723,-2.7787,-2.7806,-2.8391,-2.8572,-2.8332,-2.886,-2.9831,-3.1083,-3.1165,-3.1822,-3.3081,-3.3244,-3.401,-3.5136,-3.5851,-3.6596,-3.7214,-3.7108,-3.7015,-3.6922,-3.6709,-3.6628,-3.6452,-3.6452,-3.6358,-3.6358,-2.4136,-2.4316,-2.4439,-2.4856,-2.4922,-2.4887,-2.4689,-2.5247,-2.5633,-2.5526,-2.6034,-2.64,-2.61,-2.582,-2.5663,-2.5506,-2.5446,-2.5351,-2.5209,-2.4756,-2.4593,-2.4761,-2.4431,-2.4206,-2.4206,-2.4368,-2.3916,-2.2757,-2.3546,-2.3153,-2.1807,-2.2485,-2.326,-2.4205,-2.4854,-2.5326,-2.5521,-2.6255,-2.6715,-2.6891,-2.7115,-2.7208,-2.7219,-2.7441,-2.7371,-2.7231,-2.7231,-2.729,-2.7522,-2.7522,-2.7765,-2.8179,-2.7962,-2.7893,-2.7893,-2.7893,-2.7893,-2.7893,-2.7893,-2.7893,-2.7893,-2.7893,-2.764,-2.7329,-2.698,-2.649,-2.5937,-2.542,-2.5182,-2.5111,-2.5241,-2.5182,-2.5123,-2.5123,-2.5111,-2.5052,-2.479,-2.479,-2.4601,-2.4084,-2.399,-2.3836,-2.3542,-2.381,-2.4601,-2.5997,-2.6375,-2.6621,-2.6633,-2.7339,-2.7758,-2.8001,-2.8692,-2.8872,-2.8332,-2.9003,-2.9978,-3.1083,-3.1317,-3.1976,-3.3093,-3.3646,-3.4287,-3.5123,-3.5656,-3.6491,-3.7505,-3.7214,-3.7214,-3.7413,-3.6909,-3.6709,-3.6628,-3.6452,-3.6358,-3.6358,-2.5179,-2.5411,-2.5653,-2.5984,-2.6014,-2.5866,-2.5526,-2.566,-2.5889,-2.6217,-2.6319,-2.6523,-2.702,-2.6592,-2.6254,-2.6411,-2.6285,-2.5973,-2.5513,-2.5139,-2.4785,-2.4441,-2.4278,-2.4292,-2.4368,-2.4454,-2.4165,-2.3567,-2.3805,-2.3576,-2.2997,-2.3678,-2.4298,-2.4875,-2.5448,-2.5915,-2.6255,-2.6659,-2.6809,-2.6891,-2.7138,-2.7219,-2.7231,-2.7441,-2.7441,-2.7452,-2.7638,-2.7719,-2.7788,-2.7938,-2.8324,-2.8724,-2.8378,-2.8283,-2.8283,-2.8283,-2.8191,-2.8111,-2.8271,-2.8191,-2.8111,-2.8271,-2.7956,-2.7603,-2.7435,-2.6755,-2.6022,-2.5574,-2.5382,-2.5241,-2.5312,-2.5241,-2.5182,-2.5111,-2.5182,-2.5182,-2.5052,-2.5052,-2.5052,-2.4885,-2.4539,-2.4321,-2.4222,-2.4608,-2.4907,-2.5023,-2.6464,-2.7543,-2.8047,-2.8294,-2.8443,-2.8383,-2.8978,-2.9093,-2.8712,-2.9699,-3.0616,-3.1317,-3.194,-3.2604,-3.3338,-3.392,-3.4653,-3.5379,-3.6122,-3.6975,-3.7808,-3.7703,-3.7598,-3.7505,-3.7307,-3.7015,-3.6722,-3.6628,-3.6546,-3.6358,-2.5651,-2.5853,-2.5994,-2.6023,-2.6275,-2.6295,-2.5681,-2.5815,-2.6186,-2.6568,-2.6568,-2.692,-2.7673,-2.7347,-2.7061,-2.7177,-2.6668,-2.6135,-2.5867,-2.5317,-2.4788,-2.4313,-2.4454,-2.4454,-2.454,-2.4711,-2.4565,-2.4284,-2.4378,-2.4398,-2.4278,-2.4719,-2.5178,-2.5623,-2.6014,-2.6396,-2.6727,-2.6891,-2.6974,-2.7067,-2.7313,-2.7383,-2.7383,-2.7684,-2.7696,-2.7731,-2.8104,-2.8256,-2.8326,-2.8476,-2.8903,-2.9331,-2.8967,-2.8943,-2.9063,-2.8871,-2.8587,-2.8387,-2.867,-2.8575,-2.8339,-2.851,-2.827,-2.7969,-2.7765,-2.6962,-2.6154,-2.5828,-2.537,-2.5011,-2.5011,-2.5011,-2.4941,-2.4883,-2.5109,-2.5241,-2.5182,-2.5409,-2.5456,-2.5059,-2.5071,-2.4951,-2.4554,-2.4999,-2.5348,-2.542,-2.6733,-2.7883,-2.8846,-2.8882,-2.888,-2.8922,-2.9334,-2.9437,-2.9252,-3.0156,-3.0871,-3.1399,-3.2344,-3.2984,-3.3338,-3.4123,-3.4756,-3.5392,-3.6353,-3.7077,-3.7703,-3.7703,-3.7573,-3.7286,-3.7415,-3.7178,-3.6708,-3.6726,-3.6628,-3.6546,-2.5779,-2.5822,-2.5661,-2.5269,-2.5987,-2.6249,-2.5361,-2.5972,-2.6537,-2.6609,-2.702,-2.7498,-2.8038,-2.8092,-2.7998,-2.7726,-2.6649,-2.6128,-2.6267,-2.5284,-2.4623,-2.4592,-2.4796,-2.4796,-2.4592,-2.4967,-2.5126,-2.4998,-2.5264,-2.5466,-2.5656,-2.5708,-2.595,-2.6285,-2.6501,-2.6727,-2.6985,-2.7183,-2.7254,-2.7231,-2.7766,-2.7766,-2.765,-2.8066,-2.8182,-2.8138,-2.8622,-2.8917,-2.9034,-2.9034,-2.9475,-2.9989,-2.946,-2.9689,-3.0037,-2.9508,-2.9003,-2.8715,-2.9172,-2.8943,-2.8558,-2.8522,-2.851,-2.8366,-2.7849,-2.7061,-2.6384,-2.6178,-2.5288,-2.4578,-2.4578,-2.4578,-2.459,-2.4626,-2.5011,-2.5324,-2.536,-2.5757,-2.5673,-2.4687,-2.5444,-2.5661,-2.4675,-2.5083,-2.5829,-2.6803,-2.7109,-2.7809,-2.8942,-2.9106,-2.9209,-2.9419,-2.9689,-2.9792,-2.9792,-3.0382,-3.0947,-3.1512,-3.2579,-3.3093,-3.3255,-3.4236,-3.4841,-3.5212,-3.6265,-3.7015,-3.7505,-3.7505,-3.7378,-3.7116,-3.7338,-3.713,-3.6638,-3.6667,-3.6684,-3.6628,-2.6571,-2.6259,-2.6022,-2.6361,-2.6682,-2.6618,-2.5868,-2.6515,-2.7087,-2.6907,-2.7265,-2.7856,-2.8516,-2.856,-2.8571,-2.8477,-2.7889,-2.7278,-2.6578,-2.6235,-2.595,-2.558,-2.5306,-2.5285,-2.5559,-2.5306,-2.537,-2.5656,-2.6077,-2.6433,-2.6703,-2.6874,-2.6963,-2.7026,-2.6896,-2.6974,-2.7172,-2.7644,-2.7647,-2.7476,-2.7975,-2.8303,-2.8469,-2.8692,-2.9035,-2.9427,-2.9702,-2.9558,-2.921,-2.921,-2.9653,-2.9989,-2.946,-2.9941,-3.0591,-3.0062,-2.9809,-2.9653,-2.9376,-2.9208,-2.9015,-2.8607,-2.851,-2.8366,-2.8057,-2.7351,-2.6697,-2.6421,-2.566,-2.5119,-2.5119,-2.5119,-2.5252,-2.5661,-2.5492,-2.5444,-2.5853,-2.5673,-2.5408,-2.5155,-2.5336,-2.5467,-2.5366,-2.607,-2.6478,-2.6542,-2.7733,-2.8431,-2.8528,-2.9052,-2.9431,-2.9702,-2.9934,-3.0011,-3.0011,-3.0985,-3.1959,-3.2921,-3.3028,-3.3381,-3.3971,-3.4679,-3.5223,-3.5745,-3.6814,-3.7413,-3.7505,-3.7703,-3.773,-3.7652,-3.7247,-3.7222,-3.7259,-3.6753,-3.6632,-3.6722,-2.637,-2.6198,-2.5941,-2.6072,-2.6531,-2.6663,-2.6107,-2.6437,-2.6922,-2.7442,-2.7507,-2.788,-2.868,-2.8757,-2.8669,-2.8451,-2.806,-2.765,-2.7147,-2.6619,-2.6285,-2.6253,-2.5872,-2.5926,-2.6387,-2.6227,-2.6314,-2.6758,-2.7228,-2.7448,-2.7492,-2.7587,-2.7723,-2.7798,-2.7363,-2.7304,-2.7587,-2.7934,-2.8043,-2.7917,-2.8703,-2.9093,-2.9177,-2.9416,-2.9666,-2.9965,-3.0362,-3.0266,-3.0013,-3.0013,-3.0459,-3.0894,-3.0194,-3.0664,-3.1366,-3.1076,-3.0555,-3.0074,-3.0193,-2.9747,-2.9172,-2.8643,-2.8578,-2.8573,-2.8426,-2.7694,-2.6989,-2.6834,-2.5804,-2.4951,-2.5021,-2.509,-2.5187,-2.5477,-2.5489,-2.5491,-2.5697,-2.5697,-2.5576,-2.5336,-2.5528,-2.5648,-2.563,-2.6215,-2.676,-2.6858,-2.7802,-2.8455,-2.883,-2.9033,-2.9337,-2.9779,-2.9934,-2.9934,-2.9934,-3.1019,-3.2129,-3.324,-3.3154,-3.3444,-3.4073,-3.4388,-3.5046,-3.5897,-3.6491,-3.7075,-3.7505,-3.7703,-3.7638,-3.7469,-3.7129,-3.6858,-3.6703,-3.6548,-3.6442,-3.6379,-2.5998,-2.6043,-2.5861,-2.5541,-2.6258,-2.6686,-2.6325,-2.6411,-2.691,-2.7918,-2.7721,-2.7853,-2.8833,-2.885,-2.8685,-2.8189,-2.8054,-2.7817,-2.7666,-2.6797,-2.6363,-2.6804,-2.6605,-2.678,-2.7236,-2.7424,-2.7602,-2.78,-2.8288,-2.8366,-2.8229,-2.8229,-2.8381,-2.8377,-2.7844,-2.7832,-2.8176,-2.824,-2.8407,-2.8607,-2.9413,-2.982,-2.9976,-3.0133,-3.0254,-3.0386,-3.0831,-3.1026,-3.0953,-3.0879,-3.1354,-3.1831,-3.1196,-3.1414,-3.2038,-3.2038,-3.1295,-3.058,-3.1089,-3.0253,-2.9265,-2.8819,-2.8797,-2.8779,-2.8785,-2.7916,-2.7186,-2.7101,-2.5863,-2.4788,-2.4925,-2.4937,-2.4961,-2.5046,-2.5436,-2.5657,-2.5503,-2.5817,-2.5901,-2.5443,-2.578,-2.5949,-2.5725,-2.6164,-2.6748,-2.7373,-2.7829,-2.8437,-2.9369,-2.9301,-2.9402,-2.9905,-2.9829,-2.9945,-3.0108,-3.1103,-3.2039,-3.3081,-3.3154,-3.3456,-3.3985,-3.4073,-3.4704,-3.577,-3.6027,-3.6529,-3.7296,-3.7466,-3.7404,-3.7116,-3.6946,-3.6582,-3.6145,-3.6109,-3.6031,-3.5961,-2.6601,-2.6442,-2.6303,-2.6571,-2.7448,-2.7745,-2.6696,-2.7565,-2.8266,-2.8064,-2.8355,-2.879,-2.9338,-2.922,-2.9002,-2.8925,-2.8925,-2.8481,-2.739,-2.7586,-2.7676,-2.7536,-2.7536,-2.7811,-2.8478,-2.8287,-2.8276,-2.8276,-2.8555,-2.8735,-2.8645,-2.9101,-2.8973,-2.8366,-2.8122,-2.8303,-2.8939,-2.851,-2.882,-2.9569,-2.964,-3.0107,-3.0759,-3.0759,-3.1036,-3.1432,-3.1517,-3.1414,-3.1113,-3.0953,-3.1198,-3.1602,-3.1235,-3.1674,-3.2313,-3.2313,-3.219,-3.1957,-3.1382,-3.0408,-2.9582,-2.9695,-2.9316,-2.876,-2.8476,-2.78,-2.7151,-2.6858,-2.6196,-2.5706,-2.5706,-2.5566,-2.57,-2.6318,-2.6154,-2.6046,-2.6202,-2.6118,-2.5973,-2.5596,-2.5608,-2.5773,-2.6074,-2.6473,-2.6746,-2.7073,-2.84,-2.9232,-2.9406,-3.0196,-3.0539,-3.0482,-3.0173,-3.0454,-3.1402,-3.2035,-3.2596,-3.3081,-3.324,-3.3604,-3.4161,-3.4654,-3.506,-3.5276,-3.6386,-3.6762,-3.6533,-3.7495,-3.7848,-3.7665,-3.6645,-3.6815,-3.7365,-3.5693,-3.562,-3.6288,-2.6932,-2.6808,-2.6716,-2.742,-2.7665,-2.7651,-2.7211,-2.7622,-2.7906,-2.7831,-2.7925,-2.8175,-2.8668,-2.8857,-2.8912,-2.8912,-2.9157,-2.9012,-2.8121,-2.8287,-2.8521,-2.8644,-2.84,-2.8578,-2.9149,-2.9172,-2.916,-2.916,-2.9353,-2.9444,-2.9511,-2.9793,-2.9757,-2.9593,-2.9173,-2.9253,-2.9722,-2.9585,-2.9804,-3.0224,-3.0659,-3.0997,-3.13,-3.13,-3.1544,-3.1849,-3.1849,-3.1867,-3.1822,-3.1747,-3.192,-3.2179,-3.1908,-3.2179,-3.255,-3.255,-3.255,-3.2438,-3.1626,-3.1099,-3.0728,-3.054,-3.0269,-2.9936,-2.9485,-2.863,-2.7866,-2.7397,-2.6547,-2.591,-2.591,-2.5828,-2.5942,-2.6623,-2.6553,-2.6481,-2.6565,-2.6481,-2.6285,-2.5819,-2.5758,-2.591,-2.6131,-2.6875,-2.7358,-2.7588,-2.885,-2.9736,-3.0036,-3.0457,-3.0813,-3.1022,-3.0586,-3.0767,-3.1655,-3.2117,-3.26,-3.3081,-3.3154,-3.3617,-3.4223,-3.4197,-3.4603,-3.5277,-3.5584,-3.6032,-3.647,-3.7014,-3.7313,-3.7325,-3.6449,-3.6361,-3.6636,-3.5331,-3.5285,-3.5827,-2.72,-2.7071,-2.7133,-2.791,-2.782,-2.7646,-2.7565,-2.7567,-2.7595,-2.7663,-2.7657,-2.7786,-2.8083,-2.8555,-2.8746,-2.8746,-2.9296,-2.9431,-2.9071,-2.9128,-2.924,-2.9397,-2.9263,-2.9297,-2.9577,-2.9783,-2.9886,-2.9886,-2.9886,-3.0,-3.0134,-3.0249,-3.0328,-3.047,-3.0073,-3.0144,-3.0413,-3.0474,-3.0608,-3.0934,-3.1372,-3.1553,-3.1673,-3.1761,-3.1849,-3.2038,-3.2038,-3.23,-3.2475,-3.2388,-3.2562,-3.2723,-3.2562,-3.2636,-3.281,-3.281,-3.2711,-3.2537,-3.2055,-3.1833,-3.1707,-3.1203,-3.1005,-3.0909,-3.0318,-2.9608,-2.8861,-2.8039,-2.716,-2.6498,-2.6445,-2.635,-2.6414,-2.6904,-2.6978,-2.6857,-2.6793,-2.6709,-2.6513,-2.6054,-2.6091,-2.6235,-2.6469,-2.7316,-2.7938,-2.8109,-2.9277,-3.0168,-3.0595,-3.0859,-3.1191,-3.1549,-3.1203,-3.1203,-3.1655,-3.216,-3.2641,-3.3081,-3.3154,-3.3467,-3.402,-3.3814,-3.4168,-3.5032,-3.4953,-3.5453,-3.6431,-3.6664,-3.6805,-3.6946,-3.6345,-3.61,-3.5976,-3.5189,-3.5195,-3.5635,-2.7431,-2.7572,-2.7668,-2.7927,-2.8367,-2.8248,-2.7344,-2.7973,-2.8494,-2.8035,-2.8367,-2.8568,-2.8614,-2.8885,-2.9103,-2.9103,-2.9579,-2.9874,-2.984,-3.0,-2.9794,-2.9205,-2.976,-3.0011,-2.9886,-2.9897,-2.9886,-2.9886,-2.9886,-2.9907,-2.988,-3.0357,-3.0411,-3.022,-3.0173,-3.052,-3.1187,-3.0248,-3.0563,-3.1565,-3.112,-3.1228,-3.1749,-3.1937,-3.195,-3.2038,-3.23,-3.2463,-3.2636,-3.2475,-3.2736,-3.2982,-3.2723,-3.2896,-3.3068,-3.3068,-3.2896,-3.2711,-3.2673,-3.2117,-3.154,-3.1769,-3.1314,-3.0671,-3.0015,-3.0024,-2.9783,-2.8349,-2.8288,-2.8276,-2.8011,-2.7618,-2.7484,-2.79,-2.768,-2.7348,-2.7046,-2.684,-2.6596,-2.6206,-2.6623,-2.6993,-2.7218,-2.7758,-2.8097,-2.8109,-2.9628,-3.057,-3.062,-3.1738,-3.2231,-3.1979,-3.2016,-3.1958,-3.1668,-3.2563,-3.3031,-3.3081,-3.3326,-3.3424,-3.3474,-3.4216,-3.4289,-3.3905,-3.5118,-3.5784,-3.5963,-3.6687,-3.6998,-3.6946,-3.6345,-3.6449,-3.6713,-3.5418,-3.5453,-3.6302,-2.7706,-2.7702,-2.7762,-2.831,-2.8418,-2.8295,-2.7759,-2.8012,-2.808,-2.7575,-2.7943,-2.8326,-2.8399,-2.9138,-2.9635,-2.9811,-3.0108,-3.0318,-3.0318,-3.0216,-3.0135,-2.9862,-3.0022,-3.0125,-3.0045,-3.0045,-3.0136,-3.0318,-3.0318,-3.0406,-3.0589,-3.0777,-3.0855,-3.092,-3.092,-3.1116,-3.1548,-3.1252,-3.1399,-3.1737,-3.1807,-3.1855,-3.1849,-3.195,-3.2125,-3.23,-3.2388,-3.2475,-3.2562,-3.2736,-3.2736,-3.2736,-3.2896,-3.2896,-3.281,-3.281,-3.2723,-3.2475,-3.2288,-3.2228,-3.2241,-3.2241,-3.2092,-3.1819,-3.124,-3.0954,-3.0592,-2.9789,-2.9476,-2.9237,-2.9024,-2.8835,-2.887,-2.9359,-2.9344,-2.9145,-2.875,-2.8687,-2.8225,-2.6989,-2.7085,-2.721,-2.7281,-2.8097,-2.8762,-2.9126,-3.0683,-3.1612,-3.1612,-3.2424,-3.2672,-3.2352,-3.2622,-3.2563,-3.2187,-3.3116,-3.342,-3.3081,-3.3507,-3.3655,-3.3569,-3.3871,-3.41,-3.416,-3.4712,-3.5102,-3.5566,-3.6214,-3.6253,-3.5992,-3.6475,-3.6567,-3.6397,-3.5865,-3.6129,-3.6677,-2.7969,-2.7812,-2.7883,-2.8576,-2.8405,-2.8162,-2.7997,-2.8136,-2.8029,-2.7589,-2.8064,-2.846,-2.8533,-2.93,-2.9899,-3.0074,-3.0365,-3.0578,-3.0578,-3.0499,-3.0408,-3.0216,-3.0306,-3.0306,-3.0216,-3.0408,-3.0499,-3.0476,-3.0578,-3.0769,-3.0984,-3.0984,-3.1151,-3.1395,-3.1395,-3.1484,-3.1749,-3.1937,-3.1937,-3.1849,-3.2213,-3.23,-3.2125,-3.2125,-3.23,-3.2475,-3.2475,-3.2475,-3.2562,-3.2982,-3.2822,-3.2562,-3.2995,-3.2896,-3.2711,-3.2636,-3.2475,-3.2213,-3.2038,-3.2201,-3.2463,-3.23,-3.2463,-3.2451,-3.1732,-3.1546,-3.1427,-3.0636,-3.0503,-3.0428,-3.0161,-3.0044,-3.0169,-3.0543,-3.0468,-3.0311,-3.0105,-2.9741,-2.9026,-2.7695,-2.7695,-2.7795,-2.7795,-2.88,-2.9691,-3.0256,-3.1486,-3.229,-3.2466,-3.2692,-3.2802,-3.2756,-3.2874,-3.2962,-3.3009,-3.3431,-3.3533,-3.3332,-3.3545,-3.3606,-3.3641,-3.3628,-3.3882,-3.4314,-3.4397,-3.4737,-3.5325,-3.5605,-3.5644,-3.5626,-3.6322,-3.6387,-3.6048,-3.6217,-3.635,-3.634,-2.8124,-2.807,-2.8045,-2.8527,-2.821,-2.7893,-2.7893,-2.8328,-2.8574,-2.8335,-2.8923,-2.9324,-2.909,-2.9532,-2.9822,-2.9822,-3.0287,-3.0578,-3.0578,-3.0871,-3.0793,-3.0216,-3.0487,-3.0487,-3.0216,-3.0691,-3.0691,-3.0216,-3.0476,-3.0769,-3.0984,-3.0984,-3.1241,-3.1661,-3.1661,-3.1661,-3.1749,-3.1937,-3.2038,-3.2038,-3.2313,-3.24,-3.24,-3.24,-3.2562,-3.2711,-3.2711,-3.2711,-3.2723,-3.2982,-3.2896,-3.2711,-3.297,-3.2884,-3.2624,-3.2463,-3.2201,-3.2025,-3.2025,-3.2025,-3.2038,-3.2038,-3.2213,-3.2117,-3.1048,-3.1783,-3.2251,-3.0624,-3.1145,-3.1813,-3.1499,-3.1248,-3.1165,-3.1399,-3.0972,-3.0633,-3.0633,-2.9666,-2.875,-2.8185,-2.8599,-2.8938,-2.8938,-2.9955,-3.0834,-3.1361,-3.1913,-3.2466,-3.3043,-3.2541,-3.255,-3.3373,-3.2853,-3.3094,-3.421,-3.3431,-3.3357,-3.3884,-3.3345,-3.324,-3.3398,-3.3641,-3.381,-3.4076,-3.4314,-3.4737,-3.5286,-3.5016,-3.534,-3.6096,-3.5846,-3.5771,-3.5836,-3.6405,-3.6007,-3.5174,-2.7999,-2.8056,-2.8078,-2.8081,-2.8137,-2.816,-2.8457,-2.8563,-2.8786,-2.9042,-2.9621,-3.0036,-3.0146,-3.0596,-3.0891,-3.1156,-3.1122,-3.1038,-3.0871,-3.0972,-3.0883,-3.0781,-3.0883,-3.0781,-3.0487,-3.0781,-3.0883,-3.0793,-3.0949,-3.1217,-3.1496,-3.1496,-3.1584,-3.1673,-3.1849,-3.1937,-3.1937,-3.2288,-3.2376,-3.23,-3.2736,-3.281,-3.2636,-3.2636,-3.2636,-3.2711,-3.2711,-3.2636,-3.25,-3.2434,-3.2224,-3.1809,-3.1692,-3.166,-3.1626,-3.1524,-3.1333,-3.1293,-3.138,-3.1845,-3.2213,-3.2038,-3.2213,-3.2302,-3.2142,-3.2401,-3.2462,-3.1747,-3.1905,-3.1968,-3.1486,-3.163,-3.1893,-3.1964,-3.2177,-3.2202,-3.1788,-3.1449,-3.0758,-2.9453,-2.9428,-2.9528,-2.9528,-3.0193,-3.0997,-3.1901,-3.2647,-3.3136,-3.3313,-3.3233,-3.3115,-3.2815,-3.2829,-3.3013,-3.3393,-3.3707,-3.3896,-3.3897,-3.3896,-3.3779,-3.3641,-3.3894,-3.3992,-3.4076,-3.416,-3.4166,-3.4178,-3.4504,-3.4947,-3.5301,-3.5703,-3.5771,-3.5784,-3.5952,-3.5749,-3.543,-2.7995,-2.8191,-2.8271,-2.8203,-2.8271,-2.8378,-2.8619,-2.8941,-2.9308,-2.9532,-3.0292,-3.083,-3.0854,-3.1128,-3.1395,-3.1484,-3.1395,-3.1306,-3.1241,-3.1241,-3.1241,-3.1241,-3.1241,-3.1139,-3.0781,-3.1139,-3.1151,-3.0984,-3.1229,-3.1395,-3.1572,-3.1572,-3.1572,-3.1749,-3.1937,-3.2038,-3.2025,-3.2463,-3.2636,-3.255,-3.2909,-3.2982,-3.281,-3.2723,-3.281,-3.281,-3.2723,-3.25,-3.2179,-3.2172,-3.1963,-3.1709,-3.1682,-3.1699,-3.1638,-3.1491,-3.1369,-3.1366,-3.1465,-3.1723,-3.1944,-3.2239,-3.2376,-3.2413,-3.2179,-3.2377,-3.2562,-3.2172,-3.2319,-3.2453,-3.2114,-3.2328,-3.2554,-3.2554,-3.2855,-3.2955,-3.2604,-3.2353,-3.1775,-3.057,-3.0419,-3.0419,-3.0419,-3.0922,-3.1612,-3.2563,-3.3195,-3.3467,-3.3178,-3.3321,-3.3149,-3.2503,-3.2872,-3.3085,-3.3166,-3.3941,-3.4235,-3.3897,-3.406,-3.4018,-3.3713,-3.3992,-3.416,-3.4243,-3.4243,-3.4147,-3.4004,-3.4183,-3.4465,-3.4956,-3.5144,-3.5326,-3.5519,-3.5519,-3.52,-3.4882,-2.8164,-2.8339,-2.851,-2.851,-2.851,-2.8522,-2.857,-2.9436,-3.0001,-2.9833,-3.0877,-3.15,-3.1323,-3.1235,-3.1258,-3.1306,-3.1306,-3.1395,-3.1661,-3.1661,-3.1661,-3.1661,-3.1661,-3.1496,-3.1062,-3.1496,-3.1496,-3.1062,-3.1229,-3.1306,-3.1306,-3.1306,-3.1484,-3.1749,-3.1937,-3.2038,-3.2038,-3.255,-3.2723,-3.2723,-3.2982,-3.3081,-3.3068,-3.281,-3.2896,-3.3068,-3.281,-3.2363,-3.1975,-3.2068,-3.1984,-3.1916,-3.2413,-3.2451,-3.2326,-3.2052,-3.1965,-3.1965,-3.1965,-3.1648,-3.1491,-3.2302,-3.2562,-3.2414,-3.1553,-3.2044,-3.25,-3.2003,-3.2434,-3.293,-3.293,-3.2968,-3.3006,-3.3006,-3.3043,-3.3081,-3.3081,-3.2616,-3.2089,-3.1537,-3.1424,-3.1411,-3.1461,-3.2047,-3.2672,-3.336,-3.359,-3.3431,-3.2944,-3.288,-3.2774,-3.2406,-3.2885,-3.3157,-3.3075,-3.4093,-3.4423,-3.3985,-3.4148,-3.413,-3.379,-3.4004,-3.423,-3.4314,-3.4314,-3.4314,-3.423,-3.3797,-3.4144,-3.4831,-3.4372,-3.454,-3.5022,-3.4971,-3.4439,-3.3834,-2.8407,-2.851,-2.851,-2.851,-2.851,-2.8723,-2.9282,-2.9747,-3.017,-3.0408,-3.081,-3.1134,-3.1233,-3.1048,-3.1129,-3.1536,-3.1572,-3.1661,-3.1661,-3.1661,-3.1661,-3.1661,-3.1661,-3.1661,-3.1584,-3.1661,-3.1572,-3.1229,-3.1484,-3.1572,-3.1572,-3.1572,-3.1661,-3.1749,-3.2125,-3.23,-3.23,-3.2822,-3.2982,-3.2982,-3.3081,-3.3081,-3.3068,-3.3081,-3.3081,-3.3081,-3.3068,-3.2619,-3.2068,-3.1712,-3.141,-3.1282,-3.163,-3.1729,-3.1834,-3.2065,-3.1907,-3.1761,-3.1919,-3.2056,-3.1957,-3.1137,-3.1675,-3.2438,-3.2389,-3.2215,-3.204,-3.1928,-3.181,-3.175,-3.175,-3.2102,-3.2403,-3.2403,-3.278,-3.3081,-3.3081,-3.2968,-3.2679,-3.2102,-3.165,-3.1644,-3.225,-3.2962,-3.3416,-3.3628,-3.3412,-3.3282,-3.3165,-3.2888,-3.267,-3.2393,-3.2657,-3.2561,-3.2077,-3.3705,-3.4484,-3.4423,-3.451,-3.452,-3.4637,-3.4438,-3.4147,-3.3882,-3.3882,-3.3641,-3.3411,-3.324,-3.3655,-3.4385,-3.3852,-3.3944,-3.44,-3.3931,-3.353,-3.3319,-2.8462,-2.851,-2.851,-2.851,-2.8578,-2.8742,-2.918,-2.9679,-3.0114,-3.0278,-3.0506,-3.0773,-3.1125,-3.1051,-3.1096,-3.1613,-3.1661,-3.1661,-3.1661,-3.1661,-3.1661,-3.1661,-3.1661,-3.1749,-3.1849,-3.1849,-3.1761,-3.1661,-3.1761,-3.1849,-3.1849,-3.1849,-3.1849,-3.1849,-3.2288,-3.2562,-3.2562,-3.2909,-3.3081,-3.3081,-3.3081,-3.3081,-3.3081,-3.3081,-3.3081,-3.3043,-3.2767,-3.2303,-3.1813,-3.1788,-3.1622,-3.1651,-3.2331,-3.2536,-3.2562,-3.2996,-3.2908,-3.2634,-3.2093,-3.197,-3.1712,-3.0795,-3.1183,-3.1845,-3.2105,-3.2228,-3.2288,-3.2471,-3.2319,-3.219,-3.219,-3.2428,-3.2629,-3.2629,-3.288,-3.3081,-3.3081,-3.3081,-3.3041,-3.2824,-3.2294,-3.2048,-3.2319,-3.2995,-3.3379,-3.3109,-3.2989,-3.2865,-3.2525,-3.2371,-3.2215,-3.1992,-3.2317,-3.238,-3.206,-3.3372,-3.4161,-3.4529,-3.4825,-3.4712,-3.4332,-3.4289,-3.4063,-3.3713,-3.3713,-3.3556,-3.3398,-3.3326,-3.3503,-3.383,-3.3439,-3.3581,-3.401,-3.3442,-3.3154,-3.3156,-2.8426,-2.851,-2.859,-2.859,-2.8736,-2.887,-2.887,-2.9506,-2.9905,-2.9807,-3.0122,-3.0457,-3.0907,-3.0943,-3.1084,-3.1713,-3.1761,-3.1761,-3.1761,-3.1761,-3.1761,-3.1661,-3.1661,-3.1761,-3.2038,-3.2038,-3.2038,-3.2038,-3.2038,-3.2038,-3.2038,-3.2038,-3.2038,-3.2125,-3.255,-3.2711,-3.2723,-3.2995,-3.3081,-3.3081,-3.3081,-3.3081,-3.3081,-3.3081,-3.3081,-3.3018,-3.2528,-3.2001,-3.1599,-3.2051,-3.2059,-3.215,-3.3345,-3.3633,-3.3643,-3.402,-3.4102,-3.3892,-3.2726,-3.2092,-3.154,-3.0984,-3.098,-3.1212,-3.1329,-3.1882,-3.25,-3.2859,-3.293,-3.2817,-3.2918,-3.293,-3.293,-3.293,-3.293,-3.2968,-3.3068,-3.3154,-3.324,-3.3398,-3.2916,-3.239,-3.1957,-3.2662,-3.2898,-3.2499,-3.2449,-3.2254,-3.1785,-3.1667,-3.1552,-3.1603,-3.2068,-3.2365,-3.2455,-3.3148,-3.3777,-3.4184,-3.4825,-3.4789,-3.3951,-3.403,-3.3979,-3.3713,-3.3628,-3.3641,-3.3556,-3.3398,-3.325,-3.3174,-3.3116,-3.3294,-3.3571,-3.3206,-3.3081,-3.3144,-2.8498,-2.8657,-2.8724,-2.8724,-2.8961,-2.9131,-2.9263,-2.9653,-2.977,-2.9514,-2.9616,-2.974,-2.9813,-3.0483,-3.1182,-3.1901,-3.195,-3.195,-3.195,-3.195,-3.1849,-3.1749,-3.1661,-3.1761,-3.2038,-3.2213,-3.2313,-3.2313,-3.2313,-3.2313,-3.2313,-3.2313,-3.2313,-3.2388,-3.255,-3.2711,-3.2723,-3.2995,-3.3081,-3.3081,-3.3081,-3.3081,-3.3081,-3.3081,-3.3081,-3.3068,-3.2993,-3.2591,-3.2114,-3.219,-3.2215,-3.2243,-3.298,-3.3508,-3.3921,-3.4472,-3.4635,-3.4598,-3.4357,-3.3482,-3.2277,-3.1344,-3.1264,-3.122,-3.0384,-3.0758,-3.158,-3.2364,-3.205,-3.1763,-3.224,-3.2328,-3.2328,-3.2328,-3.2328,-3.2503,-3.3006,-3.324,-3.3398,-3.3398,-3.3251,-3.2726,-3.1642,-3.2306,-3.2777,-3.2698,-3.2058,-3.1669,-3.15,-3.0971,-3.101,-3.2024,-3.2127,-3.2303,-3.253,-3.3551,-3.3798,-3.3091,-3.3977,-3.4622,-3.507,-3.4393,-3.3979,-3.3713,-3.3556,-3.3313,-3.3154,-3.3154,-3.2865,-3.2378,-3.288,-3.2817,-3.2491,-3.2918,-3.3081,-3.3081,-2.851,-2.8657,-2.8706,-2.8402,-2.8831,-2.9176,-2.9009,-2.9456,-2.9808,-2.9636,-2.9564,-2.9585,-2.9731,-3.0144,-3.0736,-3.1354,-3.1402,-3.1535,-3.1825,-3.1849,-3.1761,-3.1661,-3.1661,-3.1837,-3.2213,-3.2313,-3.2475,-3.255,-3.255,-3.255,-3.255,-3.255,-3.255,-3.255,-3.281,-3.2896,-3.2896,-3.3081,-3.3081,-3.3081,-3.3081,-3.3081,-3.3081,-3.3081,-3.3081,-3.3081,-3.3081,-3.2704,-3.2265,-3.2591,-3.2692,-3.2792,-3.3357,-3.3709,-3.4073,-3.4757,-3.5019,-3.4853,-3.4425,-3.399,-3.3194,-3.1709,-3.1856,-3.2152,-3.1132,-3.1286,-3.1747,-3.1695,-3.1738,-3.1926,-3.2177,-3.2478,-3.2692,-3.2692,-3.2692,-3.278,-3.3043,-3.324,-3.3369,-3.3315,-3.339,-3.2956,-3.1785,-3.1993,-3.2084,-3.1757,-3.142,-3.12,-3.12,-3.0877,-3.1203,-3.2207,-3.2233,-3.2564,-3.3173,-3.3293,-3.328,-3.3354,-3.3293,-3.3717,-3.4353,-3.3938,-3.3569,-3.3398,-3.324,-3.3154,-3.3081,-3.3081,-3.2832,-3.2534,-3.298,-3.2918,-3.2717,-3.298,-3.3081,-3.3119]},{"header":{"parameterUnit":"m.s-1","parameterCategory":1,"la1":30.6,"la2":28.766,"lo1":-90.7593,"lo2":-88.6598,"dy":0.0162,"dx":0.0183,"nx":116,"ny":114,"refTime":"2024-05-07T12:00:00:Z","depth":0,"parameterNumber":3,"parameterNumberName":"V-component_of_WINDS"},"data":[0.0,0.0,0.0,0.0,0.0,0.0,0.0,0.0,0.0,0.0,0.0,0.0,0.0,0.0,0.0,0.0,0.0,0.0,0.0,0.0,0.0,0.0,0.0,0.0,0.0,0.0,0.0,0.0,0.0,0.0,0.0,0.0,0.0,0.0,0.0,0.0,0.0,0.0,0.0,0.0,0.0,0.0,0.0,0.0,0.0,0.0,0.0,0.0,0.0,0.0,0.0,0.0,0.0,0.0,0.0,0.0,0.0,0.0,0.0,0.0,0.0,0.0,0.0,0.0,0.0,0.0,0.0,0.0,0.0,0.0,0.0,0.0,0.0,0.0,0.0,0.0,0.0,0.0,0.0,0.0,0.0,0.0,0.0,0.0,0.0,0.0,0.0,0.0,0.0,0.0,0.0,0.0,0.0,0.0,0.0,0.0,0.0,0.0,0.0,0.0,0.0,0.0,0.0,0.0,0.0,0.0,0.0,0.0,0.0,0.0,0.0,0.0,0.0,0.0,0.0,0.0,0.0,0.0,0.0,0.0,0.0,0.0,0.0,0.0,0.0,0.0,0.0,0.0,0.0,0.0,0.0,0.0,0.0,0.0,0.0,0.0,0.0,0.0,0.0,0.0,0.0,0.0,0.0,0.0,0.0,0.0,0.0,0.0,0.0,0.0,0.0,0.0,0.0,0.0,0.0,0.0,0.0,0.0,0.0,0.0,0.0,0.0,0.0,0.0,0.0,0.0,0.0,0.0,0.0,0.0,0.0,0.0,0.0,0.0,0.0,0.0,0.0,0.0,0.0,0.0,0.0,0.0,0.0,0.0,0.0,0.0,0.0,0.0,0.0,0.0,0.0,0.0,0.0,0.0,0.0,0.0,0.0,0.0,0.0,0.0,0.0,0.0,0.0,0.0,0.0,0.0,0.0,0.0,0.0,0.0,0.0,0.0,0.0,0.0,0.0,0.0,0.0,0.0,0.0,0.0,0.0,0.0,0.0,0.0,0.0,0.0,0.0,0.0,0.0,0.0,0.0,0.0,0.0,0.0,0.0,0.0,0.0,0.0,0.0,0.0,0.0,0.0,0.0,0.0,0.0,0.0,0.0,0.0,0.0,0.0,0.0,0.0,0.0,0.0,0.0,0.0,0.0,0.0,0.0,0.0,0.0,0.0,0.0,0.0,0.0,0.0,0.0,0.0,0.0,0.0,0.0,0.0,0.0,0.0,0.0,0.0,0.0,0.0,0.0,0.0,0.0,0.0,0.0,0.0,0.0,0.0,0.0,0.0,0.0,0.0,0.0,0.0,0.0,0.0,0.0,0.0,0.0,0.0,0.0,0.0,0.0,0.0,0.0,0.0,0.0,0.0,0.0,0.0,0.0,0.0,0.0,0.0,0.0,0.0,0.0,0.0,0.0,0.0,0.0,0.0,0.0,0.0,0.0,0.0,0.0,0.0,0.0,0.0,0.0,0.0,0.0,0.0,0.0,0.0,0.0,0.0,0.0,0.0,0.0,0.0,0.0,0.0,0.0,0.0,0.0,0.0,0.0,0.0,0.0,0.0,0.0,0.0,0.0,0.0,0.0,0.0,0.0,0.0,0.0,0.0,0.0,0.0,0.0,0.0,0.0,0.0,0.0,0.0,0.0,0.0,0.0,0.0,0.0,0.0,0.0,0.0,0.0,0.0,0.0,0.0,0.0,0.0,0.0,0.0,0.0,0.0,0.0,0.0,0.0,0.0,0.0,0.0,0.0,0.0,0.0,0.0,0.0,0.0,0.0,0.0,0.0,0.0,0.0,0.0,0.0,0.0,0.0,0.0,0.0,0.0,0.0,0.0,0.0,0.0,0.0,0.0,0.0,0.0,0.0,0.0,0.0,0.0,0.0,0.0,0.0,0.0,0.0,0.0,0.0,0.0,0.0,0.0,0.0,0.0,0.0,0.0,0.0,0.0,0.0,0.0,0.0,0.0,0.0,0.0,0.0,0.0,0.0,0.0,0.0,0.0,0.0,0.0,0.0,0.0,0.0,0.0,0.0,0.0,0.0,0.0,0.0,0.0,0.0,0.0,0.0,0.0,0.0,0.0,0.0,0.0,0.0,0.0,0.0,0.0,0.0,0.0,0.0,0.0,0.0,0.0,0.0,0.0,0.0,0.0,0.0,0.0,0.0,0.0,0.0,0.0,0.0,0.0,0.0,0.0,0.0,0.0,0.0,0.0,0.0,0.0,0.0,0.0,0.0,0.0,0.0,0.0,0.0,0.0,0.0,0.0,0.0,0.0,0.0,0.0,0.0,0.0,0.0,0.0,0.0,0.0,0.0,0.0,0.0,0.0,0.0,0.0,0.0,0.0,0.0,0.0,0.0,0.0,0.0,0.0,0.0,0.0,0.0,0.0,0.0,0.0,0.0,0.0,0.0,0.0,0.0,0.0,0.0,0.0,0.0,0.0,0.0,0.0,0.0,0.0,0.0,0.0,0.0,0.0,0.0,0.0,0.0,0.0,0.0,0.0,0.0,0.0,0.0,0.0,0.0,0.0,0.0,0.0,0.0,0.0,0.0,0.0,0.0,0.0,0.0,0.0,0.0,0.0,0.0,0.0,0.0,0.0,0.0,0.0,0.0,0.0,0.0,0.0,0.0,0.0,0.0,0.0,0.0,0.0,0.0,0.0,0.0,0.0,0.0,0.0,0.0,0.0,0.0,0.0,0.0,0.0,0.0,0.0,0.0,0.0,0.0,0.0,0.0,0.0,0.0,0.0,0.0,0.0,0.0,0.0,0.0,0.0,0.0,0.0,0.0,0.0,0.0,0.0,0.0,0.0,0.0,0.0,0.0,0.0,0.0,0.0,0.0,0.0,0.0,0.0,0.0,0.0,0.0,0.0,0.0,0.0,0.0,0.0,0.0,0.0,0.0,0.0,0.0,0.0,0.0,0.0,0.0,0.0,0.0,0.0,0.0,0.0,0.0,0.0,0.0,0.0,0.0,0.0,0.0,0.0,0.0,0.0,0.0,0.0,0.0,0.0,0.0,0.0,0.0,0.0,0.0,0.0,0.0,0.0,0.0,0.0,0.0,0.0,0.0,0.0,0.0,0.0,0.0,0.0,0.0,0.0,0.0,0.0,0.0,0.0,0.0,0.0,0.0,0.0,0.0,0.0,0.0,0.0,0.0,0.0,0.0,0.0,0.0,0.0,0.0,0.0,0.0,0.0,0.0,0.0,0.0,0.0,0.0,0.0,0.0,0.0,0.0,0.0,0.0,0.0,0.0,0.0,0.0,0.0,0.0,0.0,0.0,0.0,0.0,0.0,0.0,0.0,0.0,0.0,0.0,0.0,0.0,0.0,0.0,0.0,0.0,0.0,0.0,0.0,0.0,0.0,0.0,0.0,0.0,0.0,0.0,0.0,0.0,0.0,0.0,0.0,0.0,0.0,0.0,0.0,0.0,0.0,0.0,0.0,0.0,0.0,0.0,0.0,0.0,0.0,0.0,0.0,0.0,0.0,0.0,0.0,0.0,0.0,0.0,0.0,0.0,0.0,0.0,0.0,0.0,0.0,0.0,0.0,0.0,0.0,0.0,0.0,0.0,0.0,0.0,0.0,0.0,0.0,0.0,0.0,0.0,0.0,0.0,0.0,0.0,0.0,0.0,0.0,0.0,0.0,0.0,0.0,0.0,0.0,0.0,0.0,0.0,0.0,0.0,0.0,0.0,0.0,0.0,0.0,0.0,0.0,0.0,0.0,0.0,0.0,0.0,0.0,0.0,0.0,0.0,0.0,0.0,0.0,0.0,0.0,0.0,0.0,0.0,0.0,0.0,0.0,0.0,0.0,0.0,0.0,0.0,0.0,0.0,0.0,0.0,0.0,0.0,0.0,0.0,0.0,0.0,0.0,0.0,0.0,0.0,0.0,0.0,0.0,0.0,0.0,0.0,0.0,0.0,0.0,0.0,0.0,0.0,0.0,0.0,0.0,0.0,0.0,0.0,0.0,0.0,0.0,0.0,0.0,0.0,0.0,0.0,0.0,0.0,0.0,0.0,0.0,0.0,0.0,0.0,0.0,0.0,0.0,0.0,0.0,0.0,0.0,0.0,0.0,0.0,0.0,0.0,0.0,0.0,0.0,0.0,0.0,0.0,0.0,0.0,0.0,0.0,0.0,0.0,0.0,0.0,0.0,0.0,0.0,0.0,0.0,0.0,0.0,0.0,0.0,0.0,0.0,0.0,0.0,0.0,0.0,0.0,0.0,0.0,0.0,0.0,0.0,0.0,0.0,0.0,0.0,0.0,0.0,0.0,0.0,0.0,0.0,0.0,0.0,0.0,0.0,0.0,0.0,0.0,0.0,0.0,0.0,0.0,0.0,0.0,0.0,0.0,0.0,0.0,0.0,0.0,0.0,0.0,0.0,0.0,0.0,0.0,0.0,0.0,0.0,0.0,0.0,0.0,0.0,0.0,0.0,0.0,0.0,0.0,0.0,0.0,0.0,0.0,0.0,0.0,0.0,0.0,0.0,0.0,0.0,0.0,0.0,0.0,0.0,0.0,0.0,0.0,0.0,0.0,0.0,0.0,0.0,0.0,0.0,0.0,0.0,0.0,0.0,0.0,0.0,0.0,0.0,0.0,0.0,0.0,0.0,0.0,0.0,0.0,0.0,0.0,0.0,0.0,0.0,0.0,0.0,0.0,0.0,0.0,0.0,0.0,0.0,0.0,0.0,0.0,0.0,0.0,0.0,0.0,0.0,0.0,0.0,0.0,0.0,0.0,0.0,0.0,0.0,0.0,0.0,0.0,0.0,0.0,0.0,0.0,0.0,0.0,0.0,0.0,0.0,0.0,0.0,0.0,0.0,0.0,0.0,0.0,0.0,0.0,0.0,0.0,0.0,0.0,0.0,0.0,0.0,0.0,0.0,0.0,0.0,0.0,0.0,0.0,0.0,0.0,0.0,0.0,0.0,0.0,0.0,0.0,0.0,0.0,0.0,0.0,0.0,0.0,0.0,0.0,0.0,0.0,0.0,0.0,0.0,0.0,0.0,0.0,0.0,0.0,0.0,0.0,0.0,0.0,0.0,0.0,0.0,0.0,0.0,0.0,0.0,0.0,0.0,0.0,0.0,0.0,0.0,0.0,0.0,0.0,0.0,0.0,0.0,0.0,0.0,0.0,0.0,0.0,0.0,0.0,0.0,0.0,0.0,0.0,0.0,0.0,0.0,0.0,0.0,0.0,0.0,0.0,0.0,0.0,0.0,0.0,0.0,0.0,0.0,0.0,0.0,0.0,0.0,0.0,0.0,0.0,0.0,0.0,0.0,0.0,0.0,0.0,0.0,0.0,0.0,0.0,0.0,0.0,0.0,0.0,0.0,0.0,0.0,0.0,0.0,0.0,0.0,0.0,0.0,0.0,0.0,0.0,0.0,0.0,0.0,0.0,0.0,0.0,0.0,0.0,0.0,0.0,0.0,0.0,0.0,0.0,0.0,0.0,0.0,0.0,0.0,0.0,0.0,0.0,0.0,0.0,0.0,0.0,0.0,0.0,0.0,0.0,0.0,0.0,0.0,0.0,0.0,0.0,0.0,0.0,0.0,0.0,0.0,0.0,0.0,0.0,0.0,0.0,0.0,0.0,0.0,0.0,0.0,0.0,0.0,0.0,0.0,0.0,0.0,0.0,0.0,0.0,0.0,0.0,0.0,0.0,0.0,0.0,0.0,0.0,0.0,0.0,0.0,0.0,0.0,0.0,0.0,0.0,0.0,0.0,0.0,0.0,0.0,0.0,0.0,0.0,0.0,0.0,0.0,0.0,0.0,0.0,0.0,0.0,0.0,0.0,0.0,0.0,0.0,0.0,0.0,0.0,0.0,0.0,0.0,0.0,0.0,0.0,0.0,0.0,0.0,0.0,0.0,0.0,0.0,0.0,0.0,0.0,0.0,0.0,0.0,0.0,0.0,0.0,0.0,0.0,0.0,0.0,0.0,0.0,0.0,0.0,0.0,0.0,0.0,0.0,0.0,0.0,0.0,0.0,0.0,0.0,0.0,0.0,0.0,0.0,0.0,0.0,0.0,0.0,0.0,0.0,0.0,0.0,0.0,0.0,0.0,0.0,0.0,0.0,0.0,0.0,0.0,-3.4479,-3.3495,0.0,0.0,0.0,0.0,0.0,0.0,0.0,0.0,0.0,0.0,0.0,0.0,0.0,0.0,0.0,0.0,0.0,0.0,0.0,0.0,0.0,0.0,0.0,-0.9428,-0.9988,-1.0877,-1.0797,-1.1029,-1.1555,0.0,0.0,0.0,0.0,0.0,-1.1868,-1.2513,-1.3121,-1.3492,-1.392,-1.4351,-1.4952,-1.5201,-1.5259,-1.5221,0.0,0.0,0.0,0.0,0.0,0.0,0.0,0.0,0.0,0.0,0.0,0.0,0.0,0.0,0.0,0.0,0.0,0.0,0.0,0.0,0.0,0.0,0.0,0.0,0.0,0.0,0.0,0.0,0.0,0.0,0.0,0.0,0.0,0.0,0.0,0.0,0.0,0.0,0.0,0.0,0.0,0.0,0.0,0.0,0.0,0.0,0.0,0.0,0.0,0.0,0.0,0.0,0.0,0.0,0.0,0.0,0.0,0.0,0.0,0.0,0.0,0.0,0.0,0.0,0.0,0.0,0.0,0.0,0.0,0.0,-3.7614,-3.6078,0.0,0.0,0.0,0.0,0.0,0.0,0.0,0.0,0.0,0.0,0.0,0.0,0.0,0.0,0.0,0.0,0.0,0.0,0.0,0.0,0.0,-0.8346,-0.9856,-1.0163,-1.0647,-1.1705,-1.1514,-1.1491,-1.1817,-1.1746,-1.1793,-1.2019,-1.2574,-1.2844,-1.2614,-1.339,-1.3881,-1.4182,-1.4252,-1.4863,-1.5814,-1.6363,-1.626,-1.574,-1.6085,0.0,0.0,0.0,0.0,0.0,0.0,0.0,0.0,0.0,0.0,0.0,0.0,0.0,0.0,0.0,0.0,0.0,0.0,0.0,0.0,0.0,0.0,0.0,0.0,0.0,0.0,0.0,0.0,0.0,0.0,0.0,0.0,0.0,0.0,0.0,0.0,0.0,0.0,0.0,0.0,0.0,0.0,0.0,0.0,0.0,0.0,0.0,0.0,0.0,0.0,0.0,0.0,0.0,0.0,0.0,0.0,0.0,0.0,0.0,0.0,0.0,0.0,0.0,-4.659,-5.1298,-4.903,-4.927,-5.0046,-5.0813,-4.3885,-4.1429,-4.215,-4.0473,0.0,0.0,0.0,0.0,0.0,0.0,0.0,0.0,0.0,0.0,0.0,0.0,0.0,0.0,0.0,0.0,0.0,0.0,0.0,-0.8684,-0.9601,-1.051,-1.1089,-1.1318,-1.1823,-1.2016,-1.1664,-1.1974,-1.2165,-1.2344,-1.2667,-1.3294,-1.4037,-1.4306,-1.482,-1.5554,-1.5394,-1.5487,-1.5839,-1.6028,-1.6435,-1.6802,-1.7358,-1.7926,-1.8427,0.0,0.0,0.0,0.0,0.0,0.0,0.0,0.0,0.0,0.0,0.0,0.0,0.0,0.0,0.0,0.0,0.0,0.0,0.0,0.0,0.0,0.0,0.0,0.0,0.0,0.0,0.0,0.0,0.0,0.0,0.0,0.0,0.0,0.0,0.0,0.0,0.0,0.0,0.0,0.0,0.0,-3.3018,-3.325,0.0,0.0,0.0,0.0,0.0,0.0,0.0,0.0,0.0,0.0,0.0,0.0,0.0,-3.9138,-4.1488,-3.8569,-3.9935,-4.5594,-5.0291,-5.2299,-5.1968,-5.3069,-5.2865,-5.1621,-5.1724,0.0,-4.3291,-4.333,0.0,0.0,0.0,0.0,0.0,0.0,0.0,0.0,0.0,0.0,0.0,0.0,0.0,0.0,0.0,0.0,0.0,0.0,0.0,0.0,0.0,-1.1002,-1.1593,-1.1988,-1.219,-1.237,-1.2498,-1.2705,-1.2823,-1.2912,-1.3621,-1.4008,-1.3984,-1.479,-1.5493,-1.6146,-1.6254,-1.6672,-1.7508,-1.8163,-1.8757,-1.9391,-1.9812,-1.9658,-1.9112,-1.9031,0.0,0.0,0.0,0.0,0.0,0.0,0.0,0.0,0.0,0.0,0.0,0.0,0.0,0.0,0.0,0.0,0.0,0.0,0.0,0.0,0.0,0.0,0.0,0.0,0.0,0.0,0.0,0.0,0.0,0.0,0.0,0.0,0.0,0.0,0.0,0.0,0.0,0.0,0.0,-3.3554,-3.4848,-3.4691,-3.5059,-3.5146,0.0,0.0,0.0,0.0,0.0,0.0,0.0,0.0,0.0,-4.3815,-4.3565,-4.4038,-4.5323,-4.3584,-4.5093,-4.9801,-5.214,-5.3246,-5.3217,-5.3312,-5.3289,-5.3256,-5.3865,-5.2309,-4.9187,-4.7861,-4.5293,-4.1893,0.0,0.0,0.0,0.0,-4.7293,-4.5744,0.0,0.0,0.0,0.0,0.0,0.0,0.0,0.0,0.0,0.0,0.0,0.0,-1.0767,-1.1542,-1.2138,-1.2595,-1.2679,-1.2883,-1.3286,-1.332,-1.343,-1.3672,-1.4396,-1.469,-1.4558,-1.567,-1.6572,-1.7156,-1.7322,-1.7961,-1.9095,-1.9912,-2.0627,-2.1115,-2.1551,-2.1081,-2.0022,-1.9931,-2.017,-2.0532,0.0,0.0,0.0,0.0,0.0,0.0,0.0,0.0,0.0,0.0,0.0,0.0,0.0,0.0,0.0,0.0,0.0,0.0,0.0,0.0,0.0,0.0,0.0,0.0,0.0,0.0,0.0,0.0,0.0,0.0,0.0,0.0,0.0,0.0,0.0,0.0,0.0,-3.5931,-3.6715,-3.6377,-3.7224,-3.7469,0.0,0.0,0.0,0.0,0.0,0.0,-4.4898,-4.5789,-4.6481,-4.7024,-4.8013,-4.8881,-4.9581,-4.942,-5.0273,-5.2188,-5.3415,-5.4018,-5.3979,-5.3379,-5.3658,-5.4554,-5.4644,-5.4439,-5.3935,-5.2066,-4.9572,-4.6733,-4.4715,-4.7131,-5.2101,-5.4955,-5.5054,-5.3783,0.0,0.0,0.0,0.0,0.0,0.0,0.0,0.0,0.0,0.0,0.0,-1.0194,-1.0672,-1.2104,-1.2981,-1.2766,-1.3338,-1.366,-1.3502,-1.3551,-1.3914,-1.462,-1.4783,-1.5411,-1.6456,-1.7436,-1.8386,-1.9131,-1.8775,-1.9081,-1.9924,-2.022,-2.0528,-2.0916,-2.1795,-2.2113,-2.1931,-2.146,-2.1833,-2.2559,-2.1316,0.0,0.0,0.0,0.0,0.0,0.0,0.0,0.0,0.0,0.0,0.0,0.0,0.0,0.0,0.0,0.0,0.0,0.0,0.0,0.0,0.0,0.0,0.0,0.0,0.0,0.0,0.0,0.0,0.0,0.0,0.0,0.0,0.0,0.0,0.0,0.0,0.0,0.0,-3.8807,-4.0246,0.0,0.0,0.0,0.0,-4.353,-4.5192,-4.693,-4.8725,-4.8958,-4.9711,-5.1237,-5.1304,-5.2394,-5.4594,-5.4065,-5.3925,-5.4242,-5.4471,-5.4585,-5.4581,-5.4723,-5.4843,-5.4969,-5.5256,-5.5149,-5.4874,-5.5045,-5.502,-5.4844,-5.4872,-5.5245,-5.573,-5.5942,-5.602,-5.5863,0.0,0.0,0.0,0.0,0.0,-0.7378,-0.7837,-0.8187,-0.8755,-0.9694,-1.0165,-1.0804,-1.1735,-1.252,-1.2973,-1.3084,-1.3434,-1.3726,-1.3767,-1.4369,-1.4934,-1.5372,-1.6136,-1.7051,-1.7983,-1.8085,-1.8437,-1.914,-1.9123,-1.9771,-2.105,-2.1774,-2.2524,-2.3252,-2.3504,-2.3759,-2.393,-2.2802,-2.2617,-2.3117,-2.2624,-2.2084,0.0,0.0,0.0,0.0,0.0,0.0,0.0,0.0,0.0,0.0,0.0,0.0,0.0,0.0,0.0,0.0,0.0,0.0,0.0,0.0,0.0,0.0,0.0,0.0,0.0,0.0,0.0,0.0,0.0,0.0,0.0,0.0,0.0,0.0,0.0,0.0,0.0,-4.1089,-4.3056,0.0,-4.3692,-4.4556,-4.5765,-4.7332,-4.8032,-4.9175,-5.1066,-5.1719,-5.2689,-5.4125,-5.4146,-5.4651,-5.5772,-5.5938,-5.5486,-5.4383,-5.474,-5.4797,-5.461,-5.5034,-5.5294,-5.5453,-5.5409,-5.6074,-5.7267,-5.8693,-5.7827,-5.5602,-5.5822,-5.5943,-5.6001,-5.6094,-5.6167,-5.6142,0.0,0.0,0.0,-0.7385,-0.7604,-0.7947,-0.849,-0.8958,-0.9556,-1.0613,-1.0905,-1.151,-1.2531,-1.3188,-1.3557,-1.3777,-1.4122,-1.4387,-1.4455,-1.5096,-1.5487,-1.569,-1.6756,-1.7953,-1.9174,-1.876,-1.9023,-1.9872,-2.0004,-2.0755,-2.2058,-2.2971,-2.3669,-2.4079,-2.4323,-2.4659,-2.4977,-2.4082,-2.3916,-2.4253,-2.4014,-2.3466,-2.2825,0.0,0.0,0.0,0.0,0.0,0.0,0.0,0.0,0.0,0.0,0.0,0.0,0.0,0.0,0.0,0.0,0.0,0.0,0.0,0.0,0.0,0.0,0.0,0.0,0.0,0.0,0.0,0.0,0.0,0.0,0.0,0.0,0.0,0.0,-4.1487,-4.3827,-4.3626,-4.5821,-4.7428,-4.7529,-4.8024,-4.9021,-5.0659,-5.1066,-5.1833,-5.3235,-5.3906,-5.469,-5.5598,-5.5338,-5.55,-5.612,-5.6214,-5.5852,-5.5018,-5.5391,-5.5288,-5.4819,-5.5225,-5.5919,-5.6803,-5.5903,-5.6513,-5.8293,-6.0461,-5.9631,-5.6906,-5.6271,-5.6268,-5.6609,-5.6311,-5.6222,-5.6238,0.0,-0.6921,-0.7426,-0.7519,-0.8242,-0.877,-0.8835,-0.9524,-1.0187,-1.0797,-1.1512,-1.229,-1.299,-1.4055,-1.4866,-1.4962,-1.5393,-1.5574,-1.5628,-1.5658,-1.5651,-1.5599,-1.6684,-1.8166,-2.0007,-1.9592,-2.0048,-2.1515,-2.1607,-2.2078,-2.2894,-2.3523,-2.363,-2.3414,-2.4267,-2.4808,-2.5084,-2.5278,-2.5646,-2.596,-2.5276,-2.5009,-2.489,0.0,0.0,0.0,0.0,0.0,0.0,0.0,0.0,0.0,0.0,0.0,0.0,0.0,0.0,0.0,0.0,0.0,0.0,0.0,0.0,0.0,0.0,0.0,0.0,0.0,0.0,0.0,0.0,0.0,0.0,0.0,0.0,0.0,-4.2226,-4.4335,-4.6011,-4.638,-4.8605,-4.9998,-4.9698,-5.0877,-5.2187,-5.3484,-5.4399,-5.5022,-5.5304,-5.5471,-5.565,-5.58,-5.5003,-5.5065,-5.6028,-5.5171,-5.5246,-5.6234,-5.6444,-5.6103,-5.5282,-5.5423,-5.6787,-5.896,-5.6808,-5.6541,-5.7834,-6.0227,-6.0552,-5.929,-5.6998,-5.6819,-5.7726,-5.666,-5.6276,-5.6304,-0.6671,-0.7087,-0.7591,-0.8323,-0.8511,-0.8899,-0.9728,-1.011,-1.0591,-1.1725,-1.2047,-1.256,-1.3643,-1.4149,-1.4606,-1.5023,-1.5365,-1.5562,-1.5773,-1.5878,-1.6615,-1.8009,-1.9242,-2.0115,-2.0611,-2.0684,-2.1025,-2.178,-2.2297,-2.2919,-2.3735,-2.4271,-2.4603,-2.4847,-2.4945,-2.5356,-2.5983,-2.6044,-2.6578,-2.7139,-2.5688,-2.4797,-2.4255,0.0,0.0,0.0,0.0,0.0,0.0,0.0,0.0,0.0,0.0,0.0,0.0,0.0,0.0,0.0,0.0,0.0,0.0,0.0,0.0,0.0,0.0,0.0,0.0,0.0,0.0,0.0,0.0,0.0,0.0,0.0,-4.0995,-4.3026,-4.2688,-4.5296,-4.7741,-4.9131,-5.0131,-5.1459,-5.3244,-5.3323,-5.3757,-5.4876,-5.5193,-5.5433,-5.5645,-5.6914,-5.7672,-5.78,-5.8274,-5.8103,-5.7175,-5.7625,-5.7406,-5.6488,-5.7258,-5.7454,-5.7162,-5.7357,-5.7927,-5.8837,-5.9379,-5.9142,-5.8458,-5.9235,-5.9721,-5.9852,-5.8969,-5.7814,-5.6728,-5.7347,-5.7064,-5.6377,-0.7027,-0.7481,-0.8035,-0.8768,-0.9087,-0.9572,-1.058,-1.0819,-1.1447,-1.289,-1.2818,-1.3164,-1.4478,-1.4669,-1.4857,-1.5419,-1.5794,-1.6063,-1.6142,-1.6272,-1.7226,-1.9187,-1.9772,-2.0406,-2.1175,-2.145,-2.185,-2.2281,-2.3227,-2.3822,-2.3891,-2.4985,-2.543,-2.5371,-2.5511,-2.595,-2.6562,-2.67,-2.7026,-2.7296,-2.6383,-2.5838,-2.5422,-2.4996,-2.5014,-2.5215,-2.458,-2.4765,-2.5347,-2.5494,0.0,0.0,0.0,0.0,0.0,0.0,0.0,0.0,0.0,0.0,0.0,0.0,0.0,0.0,0.0,0.0,0.0,0.0,0.0,0.0,0.0,0.0,0.0,0.0,-4.3122,-4.5155,-4.5221,-4.7101,-4.9062,-5.0585,-5.1281,-5.2716,-5.5454,-5.5324,-5.5359,-5.6115,-5.6507,-5.6647,-5.6506,-5.751,-5.8318,-5.8824,-5.9054,-5.8739,-5.7875,-5.8379,-5.8183,-5.7287,-5.8203,-5.8562,-5.8457,-5.9146,-5.9592,-5.9821,-6.0092,-6.0061,-5.9837,-5.9976,-6.0079,-6.0054,0.0,0.0,0.0,0.0,-5.7011,-5.6446,-0.7441,-0.7963,-0.8546,-0.9064,-0.9881,-1.0624,-1.1321,-1.1745,-1.2477,-1.3986,-1.3747,-1.3945,-1.5219,-1.5339,-1.545,-1.5975,-1.6531,-1.6845,-1.6808,-1.6835,-1.7729,-1.956,-1.9436,-1.9968,-2.1476,-2.2029,-2.248,-2.2919,-2.42,-2.4527,-2.3788,-2.5599,-2.6097,-2.5394,-2.5886,-2.6431,-2.6916,-2.7182,-2.7293,-2.7185,-2.743,-2.7403,-2.7261,-2.7165,-2.6925,-2.6796,-2.7018,-2.6813,-2.6376,-2.6778,0.0,0.0,0.0,0.0,0.0,0.0,0.0,0.0,0.0,0.0,0.0,0.0,0.0,0.0,0.0,0.0,0.0,0.0,0.0,0.0,0.0,0.0,0.0,0.0,-4.4931,-4.7426,-4.8476,-4.914,-4.9952,-5.1232,-5.2141,-5.372,-5.6453,-5.6587,-5.6657,-5.6989,-5.7791,-5.8072,-5.7536,-5.7777,0.0,0.0,0.0,-5.8253,-5.8346,-5.8347,-5.8333,-5.838,-5.9249,-5.9584,-5.9455,-6.0653,-6.1245,-6.1252,-5.9886,-6.0052,-6.1265,-6.1374,-6.0818,-5.9779,-5.8223,-5.7731,-5.7751,-5.6831,-5.6508,-5.65,-0.7957,-0.8471,-0.915,-1.0021,-1.0613,-1.1235,-1.2223,-1.2664,-1.3119,-1.3998,-1.4158,-1.4445,-1.5127,-1.5682,-1.6077,-1.6447,-1.7033,-1.7578,-1.7996,-1.8486,-1.9053,-1.9803,-2.0585,-2.1138,-2.1397,-2.2418,-2.3123,-2.3554,-2.4266,-2.4737,-2.4935,-2.5849,-2.6193,-2.5959,-2.6251,-2.6602,-2.6976,-2.7377,-2.7831,-2.8399,-2.8528,-2.7774,-2.6609,-2.6555,-2.7004,-2.7721,-2.7382,-2.7533,-2.7883,-2.7621,-2.7394,-2.7284,-2.7705,-2.7659,0.0,0.0,0.0,0.0,0.0,0.0,0.0,0.0,0.0,0.0,0.0,0.0,0.0,0.0,0.0,0.0,0.0,0.0,0.0,-4.3277,-4.5619,-4.7718,-4.876,-4.9123,-5.0051,-5.2229,-5.2885,-5.3931,-5.5871,-5.5567,-5.5548,-5.6334,-5.7241,-5.7729,-5.7644,-5.9006,-5.9911,-6.025,-6.0182,-5.9835,-5.9168,-6.0019,-6.0085,-5.9414,-6.0285,0.0,-6.0748,-6.1123,-6.1376,-6.1538,-6.1242,-6.0867,-6.0486,-6.0309,-5.9451,-5.8234,-5.7886,-5.8209,-5.8636,-5.7083,-5.6504,-5.6497,-0.9106,-0.9395,-0.9819,-1.0395,-1.1175,-1.2029,-1.2848,-1.3341,-1.3973,-1.4764,-1.4951,-1.5138,-1.5554,-1.6062,-1.6333,-1.6289,-1.7097,-1.7889,-1.8734,-1.9198,-1.9717,-2.0369,-2.0854,-2.1373,-2.1959,-2.2992,-2.3729,-2.4115,-2.515,-2.5455,-2.5142,-2.6229,-2.6697,-2.6553,-2.684,-2.7114,-2.7468,-2.8014,-2.8454,-2.8877,-2.9241,-2.8944,-2.8168,-2.7845,-2.8056,-2.8539,-2.8666,-2.8564,-2.8382,-2.8469,-2.803,-2.759,-2.8054,-2.799,-2.7765,0.0,0.0,0.0,0.0,0.0,0.0,0.0,0.0,0.0,0.0,0.0,0.0,0.0,0.0,-4.0477,-4.1345,0.0,-4.4716,-4.5597,-4.72,-4.8576,-4.9265,-4.974,-5.0504,-5.1692,-5.236,-5.3471,-5.5348,-5.5626,-5.5912,-5.6395,-5.6916,-5.739,-5.7882,-5.9173,-6.0131,-6.0685,-6.1185,-6.1042,-6.0198,-6.1152,-6.1252,-6.0461,-6.1331,-6.156,-6.12,-6.1347,-6.1441,-6.1557,-6.1627,-6.1397,-6.0964,-6.0392,-5.949,-5.8441,-5.8441,-5.8187,-5.7703,-5.6864,-5.6559,-5.6549,-1.0438,-1.0649,-1.0657,-1.0773,-1.1767,-1.2749,-1.3404,-1.4032,-1.4713,-1.5569,-1.5674,-1.5828,-1.6102,-1.6515,-1.6684,-1.6633,-1.7405,-1.8338,-1.94,-1.9649,-2.0111,-2.0855,-2.1073,-2.1567,-2.2451,-2.3624,-2.4299,-2.4648,-2.5907,-2.604,-2.5241,-2.6651,-2.7261,-2.7222,-2.7551,-2.7818,-2.8027,-2.8889,-2.9228,-2.9215,-2.9962,-3.0211,-3.0058,-2.9511,-2.9352,-2.9352,-2.9927,-2.9461,-2.8666,-2.9153,-2.8652,-2.791,-2.8332,-2.8233,-2.7904,-2.811,-2.8359,0.0,0.0,0.0,0.0,0.0,0.0,0.0,0.0,0.0,-3.8744,-4.1307,-4.2026,-4.2782,-4.4651,-4.6153,-4.7322,-4.7961,-4.9089,-4.9939,-4.9967,-5.0572,-5.1017,-5.1045,-5.1897,-5.3186,-5.5076,-5.5912,-5.6391,-5.6515,-5.6717,-5.7301,-5.8366,-5.9149,-6.0063,-6.1147,-6.1713,-6.1677,-6.1061,-6.1756,-6.1795,-6.1247,-6.1925,-6.1937,-6.1318,-6.1434,-6.1523,-6.1554,-6.1654,-6.1691,-6.1646,-6.0942,-6.0131,-5.9335,-5.9176,-5.8141,-5.6758,-5.6816,-5.6836,-5.6796,-1.1917,-1.2126,-1.2123,-1.1924,-1.253,-1.3203,-1.3743,-1.4723,-1.5425,-1.5495,-1.6058,-1.6482,-1.6541,-1.6856,-1.756,-1.866,-1.8859,-1.9343,-2.0322,-2.0336,-2.0446,-2.0815,-2.197,-2.254,-2.2411,-2.3982,-2.4791,-2.4657,-2.5373,-2.5847,-2.6094,-2.7195,-2.7812,-2.7983,-2.8304,-2.851,-2.8605,-2.9957,-3.0146,-2.9722,-3.0974,-3.1124,-3.0609,-3.0311,-3.0097,-2.9988,-3.0205,-2.9799,-2.9222,-2.9505,-2.9124,-2.8606,-2.8764,-2.9042,-2.9185,-2.8547,-2.856,-2.8884,-2.938,-3.1164,-3.3303,-3.483,-3.6174,-3.8089,0.0,0.0,-4.394,-4.5747,-4.6378,-4.6557,-4.6401,-4.7751,-4.8995,-4.9333,-5.0902,-5.1812,-5.1128,-5.1205,-5.1408,-5.1582,-5.2838,-5.4161,-5.5361,-5.5623,-5.5772,-5.588,-5.6636,-5.7775,-5.9437,-5.9668,-6.0519,-6.2182,-6.1582,-6.1195,-6.1192,-6.1324,-6.1378,-6.1297,-6.1388,-6.1419,-6.1386,-6.1473,-6.1554,-6.1685,-6.169,-6.1695,-6.1698,-6.1582,-6.1035,-6.0173,-5.9391,-5.8502,-5.7665,-5.766,-5.766,-5.7542,-1.225,-1.2641,-1.2789,-1.2875,-1.3457,-1.3901,-1.4181,-1.5042,-1.5658,-1.5441,-1.6346,-1.6921,-1.6689,-1.7222,-1.7873,-1.8606,-1.9061,-1.9652,-2.0259,-2.0629,-2.1065,-2.1563,-2.1776,-2.2283,-2.3214,-2.4085,-2.4886,-2.5581,-2.6251,-2.6602,-2.6701,-2.7352,-2.7741,-2.7957,-2.8425,-2.8611,-2.8822,-3.0145,-3.0886,-3.1143,-3.2097,-3.2295,-3.1961,-3.1749,-3.1338,-3.0866,-3.0441,-2.9992,0.0,-2.9648,-2.9366,-2.909,-2.9305,-2.9605,-2.9783,-2.9095,-2.9681,-3.0983,-3.3046,-3.472,-3.623,-3.7845,-3.9228,-4.0778,-4.2778,-4.3828,-4.4893,-4.6708,-4.7333,-4.7782,-4.8665,-4.9609,-5.0444,-5.1061,-5.1556,-5.1763,-5.1453,-5.1075,-5.1232,-5.2444,-5.3135,-5.3865,-5.4836,-5.5439,-5.5808,-5.5923,-5.625,-5.7233,-5.897,-5.9587,-6.0474,-6.1727,-6.1898,-6.1756,-6.1326,-6.1857,-6.1852,-6.1366,-6.1919,-6.1946,-6.1518,-6.1549,-6.1615,-6.1694,-6.1699,-6.1418,-6.0989,-6.146,-6.0861,-5.97,-6.0324,-6.0028,-5.9069,-5.7583,-5.7343,-5.7609,-1.2679,-1.3055,-1.34,-1.4048,-1.4449,-1.4625,-1.4504,-1.5204,-1.5776,-1.5545,-1.6478,-1.7164,-1.7139,-1.7968,-1.8633,-1.8955,-1.953,-2.0065,-2.0431,-2.1031,-2.1586,-2.2087,-2.1876,-2.2491,-2.4067,-2.4468,-2.5264,-2.6496,-2.7037,-2.7301,-2.731,-2.7656,-2.7921,-2.8183,-2.8651,-2.8958,-2.9149,-3.0537,-3.1358,-3.1786,-3.2812,-3.2986,-3.2675,-3.2554,-3.2083,-3.1392,-3.0743,-3.0307,-2.9999,-2.9881,-2.9674,-2.956,-2.9798,-3.0103,-3.0368,-3.0319,-3.1633,-3.366,-3.6426,-3.7807,-3.8818,-4.0402,-4.1794,-4.2861,-4.334,-4.4382,-4.5627,-4.7021,-4.7747,-4.8628,-5.0179,-5.099,-5.1717,-5.2608,-5.2698,-5.2509,-5.212,-5.1762,-5.1945,-5.3128,-5.3475,-5.3975,-5.4862,-5.5553,-5.5973,-5.6078,-5.6308,-5.7211,-5.8948,-5.9692,-6.0556,-6.1677,-6.2088,-6.2024,-6.1434,-6.2043,-6.2184,-6.1795,-6.2496,-6.2655,-6.2318,-6.2077,-6.1848,-6.1668,-6.1676,-6.1309,-6.0768,-6.1334,-6.0854,-5.9852,-6.0826,-6.0818,-5.999,-5.7907,-5.7507,-5.7887,-1.3519,-1.3757,-1.4242,-1.5579,-1.5654,-1.5269,-1.4658,-1.5164,-1.5737,-1.6008,-1.6475,-1.7149,-1.8245,-1.9231,-2.0042,-2.0484,-2.0752,-2.0955,-2.1158,-2.1612,-2.1925,-2.1913,-2.2718,-2.3634,-2.4757,-2.531,-2.6063,-2.7162,-2.7403,-2.7669,-2.7973,-2.8392,-2.8716,-2.9099,-2.9415,-2.9651,-2.9851,-3.1188,-3.1467,-3.1205,-3.2931,-3.3122,-3.2196,-3.2083,-3.1769,-3.139,-3.1151,-3.0761,-3.031,-3.0273,-3.0138,-3.0011,-3.0225,-3.0502,-3.1048,-3.24,-3.4457,-3.6665,-3.8601,-3.9567,-4.0408,-4.2124,-4.333,-4.4177,-4.4344,-4.5937,-4.7418,-4.7422,-4.8397,-4.9565,-5.0504,-5.166,-5.2783,-5.3792,-5.4829,-5.4946,-5.3455,-5.3899,-5.413,-5.347,-5.4194,-5.5087,-5.5971,-5.6067,-5.6151,-5.6278,-5.7075,-5.8317,-6.0052,-6.018,-6.0978,-6.271,-6.1954,-6.1528,-6.1509,-6.151,-6.1958,-6.2757,-6.2854,-6.3322,-6.4091,-6.3247,-6.2404,-6.1597,-6.1597,-6.1598,-6.1567,-6.152,-6.1481,-6.1363,-6.0555,-6.0191,-5.9996,-5.9063,-5.8785,-5.8744,-1.3717,-1.4107,-1.4535,-1.5298,-1.5563,-1.5585,-1.5348,-1.5536,-1.5741,-1.6046,-1.7219,0.0,0.0,0.0,0.0,0.0,-2.0837,-2.0957,-2.0687,-2.1424,-2.2068,-2.2452,-2.2974,-2.3946,-2.5519,-2.5841,-2.6594,-2.7696,-2.7908,-2.83,-2.878,-2.9564,-2.9742,-2.9491,-3.0338,-3.0578,-3.0326,-3.1479,-3.1989,-3.2272,-3.3811,-3.3891,-3.3203,-3.3631,-3.3087,-3.2033,0.0,-3.1016,-3.0193,-3.003,-3.0445,-3.1094,-3.1067,-3.1698,-3.2749,-3.4678,-3.6422,-3.8329,-4.0717,-4.1962,-4.276,-4.3572,-4.4545,-4.515,-4.4765,-4.6239,-4.7564,-4.7043,-4.7872,-4.8983,-4.9977,-5.1079,-5.2342,-5.3877,-5.4511,-5.4641,-5.4149,-5.388,-5.3859,-5.4276,-5.4642,-5.5234,-5.6135,-5.6764,-5.6868,-5.6348,-5.7636,-5.8732,-5.9377,-5.9942,-6.0799,-6.1965,-6.172,-6.1564,-6.1567,-6.1576,-6.174,-6.2087,-6.268,-6.3096,-6.3332,-6.3084,-6.246,-6.1586,-6.1597,-6.1568,-6.1528,-6.1456,-6.1433,-6.1396,-6.1058,-6.0881,-6.0783,-6.0447,-5.9968,-5.937,0.0,-1.4768,-1.5217,-1.5869,-1.6068,0.0,0.0,0.0,0.0,0.0,0.0,0.0,0.0,0.0,0.0,0.0,0.0,-2.1409,-2.1082,-2.1796,-2.243,-2.2945,-2.3219,-2.4155,-2.5767,-2.597,-2.6794,-2.8157,-2.8284,-2.8724,-2.9352,-3.0059,-3.0296,-2.9988,-3.0805,-3.1112,-3.097,-3.1811,-3.2415,-3.2879,-3.3861,-3.385,-3.3316,-3.3523,-3.2928,0.0,-3.1583,-3.1177,-3.0762,-3.0141,-3.0761,-3.18,-3.1774,-3.3169,-3.5207,-3.7356,-3.8871,-4.0428,-4.3104,-4.3956,-4.4209,-4.4783,-4.526,-4.5383,-4.469,-4.5853,-4.6943,-4.6487,-4.7278,-4.8453,-4.9743,-5.0348,-5.148,-5.3944,-5.4413,-5.4514,-5.463,-5.4957,-5.5107,-5.4859,-5.5705,-5.6414,-5.6732,-5.757,-5.7739,-5.6883,-5.813,-5.9104,-5.947,-6.0336,-6.1046,-6.1588,-6.1628,-6.1641,-6.1639,-6.164,-6.1818,-6.2182,-6.3336,-6.3542,-6.291,-6.3249,-6.2726,-6.1559,-6.1539,-6.1487,-6.1421,-6.1383,-6.1347,-6.1291,-6.1239,-6.1189,-6.1116,-6.108,-6.048,-5.9608,0.0,0.0,-1.6223,0.0,0.0,0.0,0.0,0.0,0.0,0.0,0.0,0.0,0.0,0.0,0.0,0.0,0.0,0.0,-2.2211,-2.2653,-2.3103,-2.3441,-2.3582,-2.4314,-2.5751,-2.5842,-2.6754,-2.8349,-2.8559,-2.8989,-2.9785,-3.0068,-3.0312,-3.054,-3.0984,-3.1336,-3.1736,-3.217,-3.2586,-3.2888,-3.3061,-3.2997,-3.2691,-3.1967,-3.1491,-3.121,-3.0983,-3.1364,-3.1867,-3.0681,-3.1207,-3.2386,-3.2618,0.0,0.0,-4.0294,-4.1617,-4.2951,-4.5593,-4.5579,-4.5004,-4.5773,-4.56,-4.5055,-4.4339,-4.5067,-4.5829,-4.5716,-4.6637,-4.796,0.0,-4.9503,-5.0372,-5.3899,-5.4574,-5.4763,-5.5002,-5.7085,-5.7744,-5.5384,0.0,-5.8513,-5.7753,-5.8471,-5.8674,-5.7895,-5.8593,-5.9455,-6.0347,-6.1225,-6.1667,-6.1619,-6.166,-6.1691,-6.1706,-6.1731,-6.2206,-6.308,-6.4711,-6.4612,-6.2991,-6.3739,-6.3142,-6.1503,-6.1428,-6.1356,-6.1302,-6.1302,-6.1223,-6.1099,-6.1099,-6.1041,-6.0976,-6.0976,-6.0371,-5.9569,0.0,0.0,0.0,0.0,0.0,0.0,0.0,0.0,0.0,0.0,0.0,0.0,0.0,0.0,0.0,0.0,0.0,0.0,-2.2122,-2.2852,-2.3508,-2.3961,-2.419,-2.497,-2.6404,-2.6411,-2.6898,-2.8017,-2.8661,-2.8968,-2.8973,-3.0702,-3.0911,-2.9867,-3.1811,-3.2328,-3.1659,-3.2023,-3.2248,-3.2384,-3.2482,-3.2384,-3.2142,-3.2397,-3.226,-3.1884,-3.1832,-3.2167,-3.252,-3.2019,0.0,0.0,0.0,-3.912,-4.0875,0.0,0.0,-4.4871,-4.6421,-4.7146,-4.7445,-4.722,-4.7185,-4.6856,-4.5511,-4.6111,-4.641,-4.46,-4.5616,-4.6808,-4.6702,-4.8144,-5.0125,-5.2442,-5.436,-5.5864,-5.6733,-5.7905,0.0,-5.7949,0.0,-5.8861,-5.8657,-5.8905,-5.9248,-5.9684,-5.9911,-6.0152,-6.0399,-6.1225,-6.1699,-6.1685,-6.1694,-6.1707,-6.1694,-6.2338,-6.3076,-6.3915,-6.499,-6.4907,-6.3798,-6.4012,-6.3122,-6.1428,-6.1408,-6.1366,-6.1302,-6.1242,-6.1136,-6.1022,-6.1022,-6.096,-6.0846,-6.0846,-6.0642,-6.0303,0.0,0.0,0.0,0.0,0.0,0.0,0.0,0.0,0.0,0.0,0.0,0.0,0.0,0.0,0.0,0.0,0.0,0.0,0.0,-2.3423,-2.3981,-2.4471,-2.4753,-2.5361,-2.6332,-2.6456,-2.6974,-2.7896,-2.8467,-2.8878,-2.9098,-3.0488,-3.0694,-2.994,-3.152,-3.1949,-3.1471,-3.1879,-3.2077,0.0,0.0,-3.1994,-3.2045,-3.2186,-3.2138,-3.1998,-3.2294,-3.2951,-3.3883,0.0,0.0,-3.7871,-4.0587,-4.2184,-4.338,-4.4988,0.0,-4.6825,-4.7939,-4.844,-4.8512,-4.7887,-4.7602,-4.7128,-4.5632,-4.5552,-4.5295,-4.3681,-4.4248,-4.5017,-4.5012,-4.6236,-4.8092,0.0,0.0,0.0,-5.6751,-5.835,-5.9205,0.0,-5.965,0.0,-5.9618,-5.963,-6.0028,-6.0893,-6.0614,-6.0575,-6.0944,-6.1422,-6.169,-6.1707,-6.1694,-6.1699,-6.1707,-6.2193,-6.2649,-6.3082,-6.4294,-6.4218,-6.2986,-6.3682,-6.3061,-6.1408,-6.1371,-6.1291,-6.1206,-6.1173,-6.1061,-6.0918,-6.0918,-6.0831,-6.0704,-6.068,-6.0604,-6.0499,0.0,0.0,0.0,0.0,0.0,0.0,0.0,0.0,0.0,0.0,-2.0203,-2.1015,0.0,0.0,0.0,0.0,0.0,0.0,0.0,0.0,-2.4637,-2.4991,-2.5329,-2.5713,-2.6096,-2.6424,-2.7068,-2.7977,-2.8315,-2.8824,-2.9599,-3.0029,-3.0222,-3.0242,-3.0817,-3.1211,-3.139,-3.1801,-3.2063,-3.218,-3.1895,-3.1918,-3.2116,0.0,-3.1834,-3.1982,-3.2578,-3.3683,0.0,0.0,-3.8971,-3.8925,-4.2567,-4.4378,-4.5503,-4.7518,-4.8172,-4.8491,-4.9473,-4.934,-4.8822,-4.8127,-4.7451,-4.6534,-4.5073,-4.4197,-4.3476,-4.2736,-4.2808,-4.3242,-4.3959,-4.4403,-4.5786,-4.9253,0.0,-5.3469,-5.6339,-5.8701,-5.9927,-5.9415,-6.0679,-6.1319,-6.0559,-6.0549,-6.0938,-6.1802,-6.1164,-6.1017,-6.167,-6.1704,-6.1755,-6.1874,-6.1874,-6.1863,-6.1862,-6.1979,-6.1931,-6.1773,-6.3438,-6.3339,-6.1693,-6.3201,-6.2978,-6.1371,-6.1294,-6.1191,-6.108,-6.108,-6.098,-6.08,-6.08,-6.0704,-6.0578,-6.0499,-6.0444,-6.0342,0.0,0.0,0.0,0.0,0.0,0.0,0.0,0.0,0.0,0.0,-2.1209,-2.1574,0.0,0.0,0.0,0.0,0.0,0.0,0.0,0.0,0.0,-2.6014,-2.6044,-2.641,-2.7195,-2.7139,-2.7476,-2.8229,-2.8978,-2.9172,-2.8883,-3.0214,-3.0431,-2.9809,-3.1426,-3.1929,-3.1583,-3.2033,-3.2228,-3.2202,-3.2468,-3.2278,-3.1898,-3.2678,0.0,0.0,-3.3481,0.0,0.0,0.0,-4.0256,-4.0913,-4.3863,-4.5522,-4.6676,-4.807,-4.8623,-4.8857,-4.9213,-4.9351,-4.9232,-4.857,-4.7367,-4.5924,-4.4421,-4.3558,0.0,-4.1204,-4.2113,-4.3038,-4.2589,-4.4175,-4.6518,-4.9411,-5.1889,-5.4657,-5.8062,-5.9542,-6.0487,0.0,-6.1451,-6.1615,-6.1465,-6.147,-6.185,-6.2712,-6.2636,-6.2304,-6.1737,-6.1698,-6.203,-6.2748,-6.2774,-6.2753,-6.2699,-6.3413,-6.3331,-6.2527,-6.4215,-6.4104,-6.2439,-6.3382,-6.2868,-6.1245,-6.1173,-6.1099,-6.1002,-6.0959,-6.0891,-6.08,-6.0753,-6.0585,-6.0444,-6.0417,-6.0313,-6.0148,0.0,0.0,0.0,0.0,0.0,0.0,-1.9509,-1.9914,-2.055,-2.1392,-2.1925,-2.2472,-2.3055,-2.3848,-2.4541,0.0,0.0,0.0,0.0,0.0,0.0,-2.6901,0.0,0.0,-2.7898,-2.79,-2.8138,-2.8606,0.0,-2.9328,-2.9303,-3.0202,-3.0514,-3.0284,-3.1248,-3.1592,-3.1439,-3.1755,-3.1995,-3.2156,-3.2303,-3.2334,-3.2335,0.0,0.0,0.0,0.0,0.0,0.0,0.0,-3.9301,-4.0648,-4.4836,-4.685,-4.7923,-4.9156,-4.9626,-4.9795,-5.0009,-4.9856,-4.9504,-4.8871,-4.7504,-4.5792,-4.3867,0.0,0.0,-3.9669,-4.0018,-4.05,-4.0186,-4.1845,0.0,-4.625,-4.838,-5.1298,-5.5767,-5.7123,-5.8472,-6.07,-6.1398,-6.1696,-6.1701,-6.1707,-6.1871,-6.2284,-6.2279,-6.2301,-6.2381,-6.1909,-6.2052,-6.2916,-6.2512,-6.2458,-6.2843,-6.2815,-6.2538,-6.2037,-6.3245,-6.3127,-6.1898,-6.2682,-6.2298,-6.1041,-6.1021,-6.0938,-6.0853,-6.0757,-6.068,-6.0585,-6.0487,-6.0351,-6.0256,-6.0167,-6.0076,-5.9982,0.0,0.0,0.0,0.0,0.0,0.0,-1.9838,-2.05,-2.1185,-2.1908,-2.253,-2.3301,-2.4141,-2.4484,-2.4924,0.0,0.0,0.0,0.0,0.0,0.0,0.0,0.0,0.0,0.0,0.0,0.0,-2.9526,-2.9605,0.0,0.0,0.0,0.0,0.0,-3.1031,-3.1138,-3.1288,-3.1261,-3.1585,0.0,0.0,-3.2816,0.0,0.0,0.0,0.0,0.0,0.0,0.0,0.0,-3.7859,-3.9435,-4.4258,-4.6792,-4.8261,-4.9585,-5.0145,-5.0397,-5.0438,-5.0071,-4.9466,-4.8647,-4.7185,-4.5359,-4.3041,-4.1369,0.0,-3.8354,-3.8151,-3.8258,-3.8305,-3.9576,-4.1285,0.0,-4.5029,-4.7976,-5.3259,-5.4875,-5.6727,0.0,-6.1162,0.0,-6.1699,-6.1695,-6.1768,-6.1935,-6.1875,-6.2091,-6.266,-6.1982,-6.2052,-6.3124,-6.2308,-6.2231,-6.3038,-6.2165,-6.1602,-6.1341,-6.2112,-6.2004,-6.1157,-6.191,-6.1752,-6.0858,-6.085,-6.0777,-6.0635,-6.0559,-6.0472,-6.0313,-6.0188,-6.0099,-6.0007,-5.9899,-5.9853,-5.9786,0.0,0.0,0.0,0.0,0.0,0.0,-2.1041,-2.1302,-2.181,-2.3054,-2.3157,-2.373,-2.5526,-2.5619,-2.5981,0.0,0.0,0.0,0.0,0.0,0.0,0.0,0.0,0.0,0.0,0.0,0.0,-3.1624,-3.1301,0.0,0.0,0.0,0.0,0.0,0.0,-3.1163,-3.1273,-3.0667,0.0,0.0,0.0,0.0,0.0,0.0,0.0,0.0,0.0,0.0,0.0,0.0,0.0,-3.7773,-4.0578,-4.3574,-4.6383,-4.8079,0.0,0.0,-4.9176,-4.9077,-4.8821,-4.7357,-4.5722,-4.3882,-4.155,0.0,-3.9148,-3.7528,-3.7836,-3.8388,-3.8396,-3.9167,-4.0645,-4.3194,-4.5053,-4.8025,-5.3263,-5.5426,-5.7441,-6.0097,0.0,0.0,-6.1695,-6.1646,-6.1946,-6.2717,-6.2668,-6.2327,-6.1675,-6.1558,-6.227,-6.3945,-6.3086,-6.3021,-6.3891,-6.2905,-6.1978,-6.1137,-6.193,-6.1811,-6.0933,-6.1761,-6.1616,-6.071,-6.071,-6.0635,-6.0525,-6.0444,-6.0313,-6.0118,-6.0057,-5.988,-5.9748,-5.9715,-5.97,-5.9616,0.0,0.0,0.0,0.0,0.0,0.0,-2.1166,-2.1713,-2.2408,-2.352,-2.3595,-2.4157,-2.5651,-2.6241,-2.6918,-2.8005,-2.7904,0.0,0.0,0.0,0.0,0.0,0.0,0.0,0.0,0.0,-3.1278,-3.2205,-3.1752,0.0,0.0,0.0,0.0,0.0,0.0,-3.1604,-3.1709,-3.1523,0.0,0.0,0.0,0.0,0.0,0.0,0.0,0.0,0.0,0.0,-3.4682,-3.553,0.0,0.0,-3.8556,-4.0653,0.0,0.0,-4.7115,-4.7918,-4.8181,-4.8369,-4.8241,-4.7227,-4.5688,-4.3808,-4.1461,-3.9848,-3.8361,-3.6729,-3.6644,-3.6917,-3.6943,-3.7634,-3.8872,-4.0964,-4.1888,-4.4171,-4.9413,-5.1151,-5.3238,-5.6848,-5.8929,-6.0285,-6.0815,-6.1314,-6.1704,-6.1982,-6.1953,-6.1738,-6.1347,-6.1396,-6.1978,-6.3164,-6.2335,-6.2274,-6.3084,-6.2153,-6.1427,-6.0982,-6.1265,-6.1177,-6.0777,-6.1031,-6.0917,-6.0506,-6.0433,-6.0351,-6.0237,-6.0137,-6.0045,-5.9963,-5.9801,-5.9685,-5.9581,-5.9491,-5.9419,-5.9328,0.0,0.0,0.0,0.0,0.0,-2.0044,-2.1479,-2.2129,-2.2869,-2.4096,-2.4482,-2.5103,-2.6281,-2.724,-2.819,-2.923,-2.8954,0.0,0.0,0.0,0.0,0.0,0.0,0.0,0.0,0.0,-3.2111,-3.2741,-3.2541,-3.2722,0.0,0.0,-3.2939,-3.3184,0.0,0.0,0.0,0.0,0.0,0.0,0.0,0.0,0.0,0.0,0.0,0.0,0.0,0.0,0.0,0.0,0.0,0.0,0.0,0.0,0.0,0.0,-4.5302,-4.6301,-4.6724,-4.7314,-4.7568,-4.664,-4.5279,-4.3652,-4.1513,-3.9675,-3.7955,-3.6275,-3.5934,-3.5938,-3.5986,-3.6459,-3.7336,-3.8828,-3.9687,-4.1811,-4.6522,-4.8541,-5.0941,-5.4716,0.0,-5.8655,-5.9786,-6.0873,-6.1454,-6.1361,-6.1318,-6.1259,-6.1117,-6.1189,-6.1643,-6.2506,-6.1666,-6.1576,-6.2411,-6.1447,-6.092,-6.0792,-6.0738,-6.066,-6.054,-6.0433,-6.0342,-6.0285,-6.0178,-6.0068,-5.9975,-5.9866,-5.9801,-5.97,-5.9562,-5.9438,-5.9328,-5.9234,-5.9177,-5.908,0.0,0.0,0.0,0.0,0.0,-1.9502,-2.2191,-2.2608,-2.3236,-2.5064,-2.5926,-2.6776,-2.7785,-2.8897,-2.9984,-3.0977,-3.0673,0.0,0.0,0.0,0.0,0.0,0.0,0.0,-3.2642,-3.3208,-3.3512,-3.36,-3.4041,-3.3854,-3.3129,-3.3484,-3.3698,-3.3662,0.0,0.0,0.0,0.0,0.0,0.0,0.0,0.0,0.0,0.0,0.0,0.0,0.0,0.0,0.0,0.0,0.0,0.0,0.0,-3.4952,-3.6624,0.0,-4.4198,-4.5351,-4.4619,-4.5747,-4.6739,-4.5121,-4.4103,-4.3086,-4.1467,-3.975,-3.8025,-3.6339,-3.5991,-3.5996,-3.5995,-3.6015,-3.6308,-3.718,-3.9432,-4.2295,-4.5735,-4.9134,-5.223,0.0,-5.5833,-5.701,-5.8751,-6.0365,-6.1291,-6.121,-6.1155,-6.1041,-6.0922,-6.0897,-6.1364,-6.2356,-6.1426,-6.1325,-6.2195,-6.1228,-6.066,-6.0604,-6.0525,-6.0398,-6.0217,-6.0129,-6.0087,-5.9994,-5.9918,-5.9834,-5.9715,-5.9715,-5.9543,-5.9309,-5.929,-5.9178,-5.8984,-5.8984,-5.8942,-5.8859,0.0,0.0,0.0,0.0,0.0,0.0,-2.217,-2.2953,-2.3738,-2.4749,-2.5644,-2.6607,-2.7704,-2.8243,-2.8987,-3.0197,-3.0392,0.0,0.0,0.0,0.0,0.0,0.0,0.0,-3.2634,-3.309,-3.3552,-3.4077,-3.3996,-3.4165,-3.4523,-3.4183,-3.4141,-3.4269,-3.3556,-3.3264,0.0,0.0,0.0,0.0,0.0,0.0,-3.5537,0.0,0.0,0.0,0.0,0.0,0.0,0.0,0.0,0.0,0.0,0.0,0.0,-3.821,-4.0571,-4.2254,-4.1993,-4.2837,-4.3491,-4.244,-4.156,-4.0669,-3.9568,-3.8466,-3.7365,-3.6229,-3.5996,-3.5992,-3.5949,-3.5965,-3.6836,-3.9413,-4.0513,-4.2422,0.0,0.0,0.0,-5.3027,-5.6019,-5.8367,-5.9483,-6.0511,-6.1079,-6.1002,-6.0421,-6.028,-6.0723,-6.0176,-6.0277,-6.126,-6.1007,-6.092,-6.1094,-6.0795,-6.0506,-6.0266,-6.0237,-6.0148,-5.9994,-5.9834,-5.9734,-5.9734,-5.9669,-5.9545,-5.9436,-5.9345,-5.929,-5.9215,-5.8982,-5.8843,-5.8762,-5.8679,-5.8553,-5.8418,0.0,0.0,0.0,0.0,0.0,0.0,-2.2442,-2.3341,-2.4199,-2.4895,-2.6116,-2.7164,-2.7879,-2.8507,-2.9184,-3.0011,-3.0718,0.0,0.0,0.0,0.0,0.0,0.0,0.0,-3.2894,-3.3574,-3.4004,-3.4193,-3.4434,-3.4686,-3.4963,-3.4626,-3.4534,-3.4696,-3.4245,-3.4074,0.0,0.0,0.0,0.0,0.0,0.0,-3.5386,0.0,0.0,0.0,0.0,0.0,0.0,0.0,0.0,0.0,0.0,0.0,0.0,0.0,-3.7063,-3.8694,-3.9632,-4.0832,-4.1595,-4.0746,-4.0173,-3.957,-3.87,-3.7613,-3.6659,-3.6109,-3.5749,-3.5597,-3.5846,-3.5914,-3.6721,-3.9135,-4.0338,-4.2226,0.0,0.0,0.0,-5.2535,-5.5924,-5.8293,-5.876,-6.0093,-6.0897,-6.0789,-5.9996,-5.9653,-6.0041,-5.9511,-5.9446,-6.0035,-6.0386,-6.0514,-6.0406,-6.0398,-6.0237,-5.9944,-5.9912,-5.9866,-5.9719,-5.9545,-5.9419,-5.9383,-5.9328,-5.9196,0.0,-5.9024,-5.9003,-5.8884,-5.8638,-5.8511,-5.8505,-5.8338,-5.8205,-5.8042,0.0,0.0,0.0,0.0,0.0,0.0,0.0,-2.3799,-2.4616,-2.5319,-2.7023,-2.8182,-2.8215,-2.9369,-3.0231,-3.0457,-3.1441,0.0,0.0,0.0,0.0,0.0,0.0,-3.339,-3.3458,-3.4512,-3.4722,-3.4031,-3.5192,-3.5367,-3.4634,-3.4832,-3.4925,-3.4943,-3.5081,-3.5184,-3.5239,-3.5302,-3.538,-3.5425,-3.543,-3.5458,0.0,0.0,0.0,0.0,0.0,0.0,0.0,0.0,0.0,0.0,0.0,0.0,0.0,0.0,0.0,0.0,0.0,-3.9408,-4.0544,-3.9727,-3.9535,-3.932,-3.8516,-3.7127,0.0,-3.5994,-3.5357,-3.5056,-3.5899,-3.5969,-3.6268,-3.744,-3.9577,-4.1962,0.0,-4.7752,0.0,0.0,-5.5712,-5.7137,-5.7076,-5.93,-6.0729,-6.0578,-5.9716,-5.9159,-5.9083,-5.8959,-5.8872,-5.8874,-5.9718,-6.0129,-6.0068,-5.9994,-5.9885,-5.9776,-5.9634,-5.9583,-5.9551,-5.929,-5.91,-5.8984,-5.8984,-5.8843,-5.8675,-5.8818,-5.8716,-5.8468,-5.8319,-5.8249,-5.8152,-5.8042,-5.7904,-5.7763,0.0,0.0,0.0,0.0,0.0,0.0,0.0,0.0,0.0,0.0,-2.6556,-2.8047,-2.8258,-2.8667,-2.952,0.0,0.0,0.0,0.0,0.0,0.0,0.0,-3.391,-3.4037,-3.408,-3.4433,-3.4566,-3.4445,-3.5001,-3.5172,-3.4981,-3.5136,-3.5247,-3.5369,-3.5397,-3.5464,-3.5581,-3.5609,-3.565,-3.5657,-3.4997,-3.4789,0.0,0.0,0.0,0.0,-3.3332,-3.3296,0.0,0.0,0.0,0.0,0.0,0.0,0.0,0.0,-3.3595,-3.3122,-3.5044,0.0,-3.7141,-3.6932,-3.6894,-3.6834,0.0,-3.6284,-3.5981,0.0,0.0,0.0,-3.7479,-3.7211,-3.8127,-4.2175,0.0,-4.384,-4.6984,-4.9746,0.0,-5.4921,-5.6761,-5.7781,-5.7781,-5.9331,-6.0332,-6.0304,-5.8873,-5.853,-5.9786,-5.8524,-5.8356,-5.9595,-5.9706,-5.9748,-5.9782,-5.9734,-5.9899,-6.0285,-5.9609,-5.959,-6.0093,-5.93,-5.8881,-5.8781,-5.8781,-5.8675,-5.8462,-5.8375,-5.8375,-5.8375,-5.7932,-5.7886,-5.7997,-5.7792,-5.7601,-5.7595,0.0,0.0,0.0,0.0,0.0,0.0,0.0,0.0,0.0,0.0,-2.6525,-2.7826,-2.8342,-2.8633,-2.9222,0.0,0.0,0.0,0.0,0.0,0.0,-3.3799,-3.4248,-3.4339,-3.409,-3.4547,-3.4869,-3.4959,-3.5184,-3.5085,-3.4731,-3.4841,-3.4936,-3.501,-3.5441,-3.5679,-3.5745,-3.5788,-3.5811,-3.576,-3.4906,0.0,0.0,0.0,0.0,0.0,-3.2299,-3.2177,0.0,-3.2674,-3.311,-3.3651,0.0,0.0,0.0,0.0,-3.2871,-3.1875,-3.3632,-3.5039,-3.6093,-3.65,-3.6608,-3.6593,-3.6555,0.0,0.0,0.0,0.0,0.0,0.0,0.0,0.0,0.0,-4.3065,0.0,0.0,0.0,-5.3103,-5.485,-5.6424,-5.7494,-5.7858,-5.8939,-5.9729,-6.008,-5.884,-5.8456,-5.9336,-5.84,-5.8245,-5.9065,-5.9338,-5.9491,-5.9508,-5.9491,-5.9589,-5.9795,-5.9306,-5.9283,-5.9651,-5.9394,-5.8985,-5.848,-5.885,-5.8663,-5.8042,-5.7997,-5.7997,-5.7904,-5.7601,-5.7553,-5.7601,-5.7388,-5.7289,-5.7261,0.0,0.0,0.0,0.0,0.0,0.0,0.0,0.0,0.0,0.0,0.0,0.0,0.0,0.0,0.0,0.0,0.0,0.0,0.0,0.0,0.0,-3.3564,-3.4377,-3.4564,-3.3891,-3.4757,-3.5244,-3.5252,-3.5283,-3.4971,-3.4309,-3.4246,-3.4293,-3.4478,-3.5394,-3.5823,-3.5813,-3.5898,-3.5924,-3.5827,-3.4822,0.0,0.0,0.0,0.0,0.0,0.0,0.0,0.0,-3.1656,-3.199,-3.2363,-3.3847,0.0,0.0,0.0,0.0,0.0,-3.3049,-3.4654,-3.6023,-3.7025,-3.7383,-3.7464,-3.7415,0.0,0.0,0.0,0.0,0.0,0.0,-3.8028,0.0,0.0,0.0,0.0,-4.9143,-5.1459,-5.3158,-5.4216,-5.5766,-5.6992,-5.7652,-5.8529,-5.9285,-5.9874,-5.9089,-5.8608,-5.8642,-5.8465,-5.8326,-5.8259,-5.8878,-5.9234,-5.9234,-5.9234,-5.9214,-5.9132,-5.8937,-5.8948,-5.9208,-5.9406,-5.9132,-5.8538,-5.9025,-5.8647,-5.7765,-5.7752,-5.7601,-5.7455,-5.7533,-5.7488,-5.7387,-5.7234,-5.7183,-5.7201,0.0,0.0,0.0,0.0,0.0,0.0,0.0,0.0,0.0,0.0,0.0,0.0,0.0,0.0,0.0,0.0,0.0,0.0,0.0,0.0,0.0,-3.4103,-3.4817,-3.4875,-3.4161,-3.4956,-3.5097,-3.4555,-3.4506,-3.4459,-3.4367,-3.3705,-3.3813,-3.4607,-3.5482,-3.5872,-3.5897,-3.5961,-3.5986,-3.5829,-3.4233,0.0,0.0,0.0,0.0,0.0,0.0,0.0,0.0,-3.0945,-3.1499,-3.2146,-3.2416,0.0,0.0,0.0,0.0,0.0,-3.3556,-3.4608,-3.5198,-3.6816,-3.7761,-3.8311,-3.8311,0.0,0.0,0.0,0.0,0.0,0.0,-3.9734,-4.1234,0.0,0.0,-4.822,-5.0941,-5.1561,-5.2556,-5.4778,-5.6349,-5.7332,-5.7446,-5.8689,-5.9534,-5.9666,-5.8895,-5.871,-5.9303,-5.8591,-5.8427,-5.9009,-5.8984,-5.8921,-5.8781,-5.8921,-5.9235,-5.9743,-5.8929,-5.9252,-6.0459,-5.9176,-5.9153,-6.0008,-5.8759,-5.8351,-5.8567,-5.7777,-5.7486,-5.7607,-5.805,-5.8323,-5.8373,-5.8117,-5.8013,-5.8051,0.0,0.0,0.0,0.0,0.0,0.0,0.0,0.0,0.0,0.0,0.0,0.0,0.0,0.0,0.0,0.0,0.0,0.0,0.0,0.0,-3.4919,-3.5067,-3.5396,-3.4961,-3.3693,-3.4943,-3.5009,-3.3818,-3.4248,-3.4011,-3.3156,-3.3249,-3.3548,-3.4019,-3.5344,-3.5678,-3.5235,-3.5769,-3.5737,-3.5195,0.0,0.0,0.0,0.0,0.0,0.0,0.0,0.0,0.0,0.0,-3.1071,-3.1488,-3.1955,0.0,0.0,0.0,0.0,0.0,-3.3206,-3.4205,-3.5067,-3.7247,-3.813,-3.8551,-3.9004,0.0,0.0,0.0,0.0,0.0,0.0,0.0,-4.2299,-4.5648,-4.7507,-4.9086,-5.0669,-5.1591,-5.2698,-5.4256,-5.5388,-5.6386,-5.7194,-5.7475,-5.8129,-5.9361,-5.8667,-5.8555,-5.9309,-5.8859,-5.8707,-5.8924,-5.884,-5.8716,-5.8548,-5.8609,-5.8794,-5.9103,-5.8628,-5.8762,-5.9374,-5.9016,-5.9108,-5.9463,-5.8616,-5.831,-5.8399,-5.7532,-5.7138,-5.709,-5.7503,-5.7596,-5.7492,-5.7405,-5.7298,-5.7245,0.0,0.0,0.0,0.0,0.0,0.0,0.0,0.0,0.0,0.0,0.0,0.0,0.0,0.0,0.0,0.0,0.0,0.0,0.0,-3.3923,-3.4853,-3.5788,-3.5639,-3.4814,-3.3278,-3.4743,-3.4703,-3.302,-3.3691,-3.3367,-3.2118,-3.3197,-3.3592,-3.3476,-3.5213,-3.5486,-3.4687,-3.5616,-3.5498,-3.4625,0.0,0.0,0.0,0.0,0.0,0.0,0.0,0.0,0.0,0.0,0.0,0.0,0.0,0.0,0.0,-3.1515,-3.1123,-3.086,-3.2992,-3.3876,-3.4833,-3.7598,-3.8335,-3.8682,-3.9898,-3.9345,0.0,0.0,0.0,0.0,0.0,-4.1399,0.0,-4.6531,-4.8414,-4.9773,-5.0435,-5.1694,-5.287,-5.3661,-5.4408,-5.5378,-5.6738,-5.6413,-5.6933,-5.8821,-5.8372,-5.8353,-5.9063,-5.8964,-5.8803,-5.8633,-5.859,-5.8505,-5.8349,-5.8349,-5.8349,-5.8349,-5.8305,-5.8334,-5.8401,-5.8867,-5.92,-5.9302,-5.8667,-5.8407,-5.8392,-5.7366,-5.6847,-5.6671,-5.7097,-5.7082,-5.6904,-5.7011,-5.6814,-5.6381,0.0,0.0,0.0,0.0,0.0,0.0,0.0,0.0,0.0,0.0,0.0,0.0,0.0,0.0,0.0,0.0,0.0,0.0,0.0,-3.4056,-3.4971,-3.5846,-3.5185,-3.4342,-3.3398,-3.4248,-3.3867,-3.2192,-3.2259,-3.2226,-3.2145,-3.3825,-3.4177,-3.3471,-3.5213,-3.5502,-3.4744,-3.5626,-3.549,-3.4618,-3.3756,0.0,0.0,0.0,0.0,0.0,0.0,0.0,0.0,0.0,0.0,0.0,0.0,0.0,-2.9667,-3.0547,-3.0186,-3.0215,-3.3522,-3.3819,-3.4012,-3.737,-3.8267,0.0,-4.138,-4.0629,0.0,-4.0365,0.0,0.0,0.0,-4.3598,-4.6522,-4.7618,-4.9716,-5.1275,-5.1389,-5.2049,-5.2807,-5.3623,-5.4238,-5.4924,-5.571,-5.6431,-5.7152,-5.7827,-5.7865,-5.8084,-5.8702,-5.8596,-5.8486,-5.8437,-5.8286,-5.8242,-5.8197,-5.8088,-5.8088,-5.8197,-5.8106,-5.8354,-5.8926,-5.8884,-5.9575,-6.0731,-5.9087,-5.8732,-5.9186,-5.7495,-5.6794,-5.6866,-5.7621,-5.7855,-5.7782,-5.8313,-5.7614,-5.6542,0.0,0.0,0.0,0.0,0.0,0.0,0.0,0.0,0.0,0.0,0.0,-2.9851,-3.0283,0.0,0.0,0.0,0.0,0.0,0.0,-3.3054,-3.4244,-3.5114,-3.4824,-3.4257,-3.3415,-3.3691,-3.3006,-3.1286,-3.1833,-3.2092,-3.2147,-3.3832,-3.4179,-3.3388,-3.4599,-3.4642,-3.3852,-3.4185,-3.3822,-3.2992,-3.2629,-3.1975,0.0,0.0,0.0,0.0,0.0,0.0,0.0,0.0,-3.0404,-3.0642,-3.0642,-3.042,-3.0316,-3.1142,-3.0787,-3.077,-3.3616,-3.4086,-3.4473,-3.7404,-3.8131,0.0,0.0,-4.0662,-4.0563,-4.1899,-4.2367,0.0,0.0,0.0,-4.6148,-4.7503,-4.8895,-5.0171,-5.1224,-5.1497,-5.2087,-5.341,-5.3623,-5.4176,-5.5463,-5.5336,-5.5846,-5.7502,-5.7109,-5.7308,-5.8521,-5.8486,-5.8375,-5.8152,-5.8088,-5.7997,-5.7839,-5.7792,-5.7792,-5.7839,-5.7839,-5.7909,-5.8008,-5.7959,-5.841,-5.9182,-5.7923,-5.7818,-5.8304,-5.7047,-5.6546,-5.6582,-5.6777,-5.6847,-5.6827,-5.6908,-5.6585,-5.6191,0.0,0.0,0.0,0.0,0.0,0.0,0.0,0.0,-3.0163,0.0,0.0,0.0,0.0,-2.9586,0.0,0.0,0.0,0.0,-3.0717,-3.1913,-3.3084,-3.42,-3.4237,-3.3824,-3.297,-3.3227,-3.2517,-3.0774,-3.1924,-3.2602,-3.29,-3.43,-3.4372,-3.331,-3.4185,-3.3939,-3.2907,-3.3167,-3.2764,-3.1965,-3.193,-3.1406,0.0,0.0,0.0,0.0,0.0,0.0,0.0,0.0,-3.0382,-3.0567,-3.0577,-3.0742,-3.1004,-3.1294,-3.137,-3.1697,-3.3392,-3.3987,-3.4705,0.0,0.0,0.0,-4.0466,-4.0943,-4.1443,-4.3118,-4.3363,-4.3656,-4.487,-4.5548,-4.6359,-4.7724,-4.8846,-4.9838,-5.0711,-5.0922,-5.1498,-5.2855,-5.2868,-5.3309,-5.4873,-5.4408,-5.4857,-5.6852,-5.6199,-5.651,-5.8332,-5.7832,-5.7553,-5.7547,-5.7565,-5.7298,-5.6787,-5.7346,-5.7425,-5.7006,-5.717,-5.7298,-5.7406,-5.7561,-5.7825,-5.8175,-5.7406,-5.7388,-5.7746,-5.6989,-5.6647,-5.6573,-5.6286,-5.6179,-5.6085,-5.6202,-5.6233,-5.6303,0.0,0.0,0.0,0.0,0.0,0.0,0.0,0.0,-3.0439,-3.0491,-3.0567,0.0,0.0,0.0,0.0,0.0,0.0,0.0,-3.0601,-3.0797,-3.1535,-3.3205,-3.3356,-3.2964,-3.2025,-3.2843,-3.2441,-3.0704,-3.2467,-3.3718,-3.447,-3.5371,-3.4865,-3.3215,-3.4073,-3.3549,-3.2057,-3.2834,-3.2664,-3.1864,-3.1867,-3.1355,-3.0574,0.0,0.0,0.0,0.0,0.0,0.0,0.0,-2.9785,-3.0509,-3.051,-3.1049,-3.1549,-3.0769,-3.1657,-3.2917,-3.2929,-3.3451,0.0,0.0,0.0,0.0,-4.1034,-4.1698,-4.2299,-4.3972,-4.4211,-4.486,-4.7274,-4.7571,-4.7764,-4.858,-5.0077,-5.0856,-4.992,-5.0487,-5.1261,-5.1927,-5.1925,-5.2417,-5.3776,-5.3907,-5.4444,-5.5789,-5.518,-5.5705,-5.805,-5.6562,-5.5896,-5.6548,-5.6603,-5.608,-5.5007,-5.6733,-5.6988,-5.5794,-5.5944,-5.6459,-5.7424,-5.7918,-5.8175,-5.8193,-5.7873,-5.7782,-5.7782,-5.743,-5.7202,-5.6998,-5.6425,-5.6049,-5.595,-5.6629,-5.697,-5.7028,0.0,0.0,0.0,0.0,0.0,0.0,0.0,0.0,-3.0557,-3.0634,-3.0691,0.0,0.0,0.0,0.0,0.0,0.0,0.0,-2.8108,-2.9757,-3.095,-3.1449,-3.2574,-3.3087,-3.2846,-3.2443,-3.2034,-3.161,-3.3316,-3.3331,-3.1792,-3.3863,-3.3893,-3.2201,-3.1851,-3.1756,-3.1787,-3.08,-3.024,-2.9999,-2.994,-2.9776,-2.9543,0.0,0.0,0.0,0.0,0.0,0.0,0.0,0.0,0.0,-3.0367,-3.1366,-3.2468,-3.2146,-3.2823,-3.3801,-3.4351,-3.4633,0.0,-3.6927,0.0,0.0,0.0,-4.2451,0.0,0.0,-4.5712,-4.6043,-4.7324,-4.7448,-4.7647,-4.848,-4.8975,-4.9325,-4.9625,-5.032,-5.1074,-5.1771,-5.2167,-5.279,-5.372,-5.4197,-5.4615,-5.5014,-5.5257,-5.5643,-5.6316,-5.5697,-5.5623,-5.6314,-5.6237,-5.6255,-5.6432,-5.6819,-5.6587,-5.5641,-5.5692,-5.6176,-5.6984,-5.6557,-5.6615,-5.7047,-5.6994,-5.6849,-5.6647,-5.6386,-5.6215,-5.6082,-5.5928,-5.5822,-5.5782,-5.5871,-5.5959,-5.61,0.0,0.0,0.0,0.0,0.0,0.0,-3.0037,-3.0372,-3.0664,-3.0725,-3.0763,-3.0593,0.0,0.0,0.0,0.0,0.0,0.0,-2.7449,-2.887,-2.983,-3.0122,-3.1698,-3.2764,-3.3151,-3.2568,-3.2153,-3.1872,-3.2909,-3.2783,-3.1584,-3.3131,-3.3102,-3.1746,-3.1205,-3.1079,-3.1144,-2.9753,-2.9154,-2.9083,-2.8725,-2.876,-2.9013,0.0,0.0,0.0,0.0,0.0,0.0,0.0,0.0,0.0,-3.024,-3.1164,-3.2312,-3.2542,-3.3245,-3.4159,-3.5331,-3.5604,0.0,-3.8118,-3.9604,-4.1125,-4.3147,0.0,0.0,0.0,-4.6316,-4.663,-4.7662,-4.7829,-4.805,-4.8796,-4.8909,-4.902,-4.9377,-5.0134,-5.0862,-5.1498,-5.2195,-5.2865,-5.3526,-5.3902,-5.4331,-5.4914,-5.4961,-5.5239,-5.588,-5.5177,-5.4865,-5.5196,-5.51,-5.5026,-5.4975,-5.5554,-5.543,-5.452,-5.4912,-5.5416,-5.6063,-5.5632,-5.5794,-5.6455,-5.6383,-5.6395,-5.6454,-5.606,-5.5981,-5.6012,-5.5771,-5.5648,-5.5514,-5.5413,-5.5564,-5.5811,0.0,0.0,-2.7918,-2.8116,0.0,0.0,-2.9504,-3.001,-3.0514,-3.0651,-3.0614,-3.0564,0.0,0.0,0.0,-2.9169,0.0,0.0,-2.7835,-2.8119,-2.856,-2.9147,-3.0781,-3.2068,-3.2935,-3.2829,-3.2362,-3.1568,-3.1733,-3.2127,-3.2767,-3.2767,-3.2319,-3.1576,-3.141,-3.0975,-3.0328,-2.9375,-2.8975,-2.8919,-2.8171,-2.823,-2.8758,-2.8746,0.0,0.0,0.0,0.0,0.0,0.0,0.0,0.0,-3.0032,-3.0579,-3.142,-3.2072,-3.3039,-3.4238,-3.576,0.0,0.0,-3.9368,-4.071,0.0,-4.4455,-4.5061,-4.535,-4.6063,-4.6252,-4.6702,-4.8041,-4.8438,-4.8711,-4.922,-4.9457,-4.9483,-4.923,-4.9922,-5.0654,-5.1101,-5.1992,-5.2732,-5.3134,-5.323,-5.3824,-5.5066,-5.451,-5.4674,-5.6088,-5.4765,-5.3927,-5.3831,-5.3675,-5.3123,-5.2122,-5.3656,-5.3964,-5.2993,-5.3897,-5.4526,-5.5024,-5.5115,-5.5543,-5.6179,-5.5993,-5.621,-5.6711,-5.6104,-5.6094,-5.6438,-5.593,-5.5455,-5.5199,-5.5199,-5.5549,-5.5984,0.0,0.0,-2.9201,-2.9962,0.0,0.0,-2.9491,-2.9051,-2.8993,-2.9697,-2.918,-2.8761,-2.8769,-2.8586,0.0,-2.6567,-2.7301,0.0,-2.6146,-2.7896,-2.8743,-2.8213,-2.9759,-3.1008,-3.1834,-3.1207,-3.0785,-3.0599,-3.1345,-3.1465,-3.0948,-3.0912,-3.0784,-3.0547,-2.9168,-2.9187,-3.0131,-2.8638,-2.8332,-2.8817,-2.8598,-2.8189,-2.7652,-2.6977,-2.7218,0.0,0.0,0.0,0.0,0.0,0.0,0.0,-2.9228,-3.001,-3.1111,-3.0606,-3.25,-3.4794,-3.504,-3.608,0.0,0.0,-4.1402,-4.3328,-4.4556,-4.4821,-4.5067,-4.6013,-4.6177,-4.6403,-4.7222,-4.788,-4.83,-4.8377,-4.8896,-4.9262,-4.9135,-4.9719,-5.0207,-5.0249,-5.1414,-5.2217,-5.2257,-5.3286,-5.3822,-5.3397,-5.4227,-5.4672,-5.4381,-5.3997,-5.403,-5.4617,-5.3809,-5.3536,-5.385,-5.4023,-5.3991,-5.3778,-5.3956,-5.4349,-5.4877,-5.4969,-5.5378,-5.5993,-5.5822,-5.5794,-5.5953,-5.5678,-5.5654,-5.5718,-5.556,-5.5413,-5.5199,-5.5199,-5.5201,-5.5305,0.0,0.0,0.0,0.0,0.0,0.0,0.0,0.0,-2.8997,-2.9433,-2.9101,-2.8813,-2.8813,-2.8427,0.0,0.0,-2.718,-2.7222,-2.6668,-2.7856,-2.8519,-2.8426,-2.9595,-3.0259,-3.0275,-2.9803,-2.9784,-3.0199,-2.983,-2.987,-3.0312,-3.0661,-3.0805,-3.0729,-2.9431,-2.9556,-3.0585,-2.8526,-2.8098,-2.8726,-2.7894,-2.7262,-2.6744,-2.5868,-2.5767,-2.611,-2.6181,0.0,0.0,0.0,0.0,0.0,0.0,0.0,-3.0485,-3.0394,-3.1958,-3.3942,0.0,0.0,0.0,-4.025,0.0,-4.4202,-4.4617,-4.4712,-4.4825,-4.5278,-4.5738,-4.6108,-4.6298,-4.7368,-4.8134,-4.7978,-4.8623,-4.9116,-4.898,-4.9598,-5.0008,-4.988,-5.1187,-5.2063,-5.1995,-5.3011,-5.3577,-5.3407,-5.4428,-5.4891,-5.435,-5.4694,-5.4882,-5.4791,-5.4161,-5.3828,-5.3764,-5.3578,-5.3474,-5.3474,-5.3849,-5.4474,-5.5334,-5.5295,-5.5376,-5.5555,-5.5514,-5.5455,-5.5455,-5.5413,-5.5431,-5.5507,-5.5413,-5.5444,-5.5619,-5.5575,-5.5633,-5.5906,0.0,0.0,0.0,0.0,0.0,0.0,0.0,0.0,0.0,-2.9455,-2.9221,-2.909,-2.9224,-2.8275,-2.7627,0.0,0.0,0.0,-2.7605,-2.7901,-2.8391,-2.9136,-2.9669,-2.9589,-2.8879,-2.8808,-2.9136,-2.9863,-2.8343,-2.8605,-3.0552,-3.094,-3.1156,-3.1219,-3.0266,-3.0209,-3.0668,-2.8189,-2.759,-2.8192,-2.6641,-2.5911,-2.5645,-2.4771,-2.4492,-2.4647,-2.5238,-2.5819,-2.6533,-2.7878,0.0,0.0,0.0,0.0,-2.9589,-3.0096,-3.0998,-3.2336,0.0,0.0,-3.8361,-4.1299,-4.3337,0.0,-4.4578,-4.4605,-4.4605,-4.4487,-4.5161,-4.5659,-4.5305,-4.66,-4.7648,-4.7574,-4.8252,-4.8832,-4.8804,-4.9325,-4.9677,-4.9527,-5.0756,-5.1599,-5.1513,-5.2249,-5.2941,-5.3463,-5.4565,-5.5073,-5.484,-5.5692,-5.5728,-5.4693,-5.4345,-5.3796,-5.2874,-5.2723,-5.2692,-5.2834,-5.3548,-5.4579,-5.5804,-5.5408,-5.5231,-5.5199,-5.5199,-5.5199,-5.5199,-5.5199,-5.5277,-5.5431,-5.5277,-5.5462,-5.5869,-5.5761,-5.5986,-5.6426,0.0,0.0,0.0,0.0,0.0,0.0,0.0,0.0,0.0,0.0,-2.8094,-2.7431,-2.812,-2.6685,-2.5658,-2.5669,-2.6196,-2.6568,-2.6691,0.0,0.0,-2.9829,-2.9266,-2.8856,-2.8726,-2.8726,-2.8764,-2.8894,-2.8588,-2.9636,-3.1902,-3.0615,-3.0421,-3.1063,-2.9496,-2.8871,-2.8812,-2.6313,-2.5731,-2.6371,-2.5344,-2.4486,-2.3771,-2.2891,-2.3022,-2.361,-2.3023,-2.4666,-2.7167,-2.7328,-2.8347,0.0,0.0,0.0,-2.8446,-2.7809,-2.8781,-3.0265,0.0,0.0,-3.9577,0.0,-4.3109,-4.4373,0.0,0.0,-4.4344,-4.4344,-4.4524,-4.4608,-4.4265,-4.4978,-4.5802,-4.6409,-4.7122,-4.7883,-4.8694,-4.8735,-4.8698,-4.866,-4.9315,-4.9706,-4.9583,-5.0885,-5.17,-5.1638,-5.3743,-5.4912,-5.4639,-5.5607,-5.568,-5.4489,-5.3774,-5.2956,-5.1919,-5.1749,-5.1951,-5.2591,-5.3173,-5.4208,-5.5531,-5.4688,-5.4605,-5.5199,-5.5199,-5.5199,-5.5199,-5.5199,-5.5199,-5.5259,-5.5199,-5.5105,-5.4998,-5.4936,-5.4862,-5.4908,0.0,0.0,0.0,0.0,0.0,0.0,0.0,0.0,0.0,0.0,0.0,-2.6814,-2.7171,-2.6005,-2.5192,-2.519,-2.5435,-2.5793,-2.6256,-2.7329,-2.8139,-2.854,-2.8134,-2.7913,-2.7913,-2.6956,-2.6921,-2.7865,-2.7278,-2.8708,-3.2019,-3.1719,-3.2141,-3.3034,-3.0901,-2.9957,-2.9786,-2.6344,-2.5366,-2.5982,-2.4603,-2.4601,-2.5211,-2.2961,-2.3138,-2.4385,-2.2719,-2.3082,-2.4463,-2.5379,-2.6448,-2.7401,-2.7457,0.0,0.0,0.0,-2.7811,-3.011,-3.2804,-3.6058,-3.9182,0.0,-4.2679,-4.3687,-4.4136,-4.4218,-4.4158,-4.4085,-4.4116,-4.4116,-4.3992,-4.461,-4.5245,-4.5534,-4.6186,-4.6982,-4.7848,-4.7776,-4.7847,-4.8306,-4.8901,-4.9255,-4.9213,-5.0229,-5.0817,-5.0659,-5.2527,-5.3324,-5.2558,-5.4339,-5.49,-5.3842,-5.385,-5.3376,-5.2368,-5.2214,-5.2466,-5.3013,-5.3605,-5.4384,-5.5319,-5.4371,-5.4321,-5.4992,-5.4992,-5.4992,-5.4992,-5.4992,-5.4974,-5.4896,-5.4852,-5.4942,-5.5201,-5.5486,-5.5784,-5.6198,0.0,0.0,0.0,0.0,0.0,0.0,0.0,0.0,0.0,0.0,0.0,-2.6715,-2.7129,0.0,0.0,0.0,-2.5378,-2.5433,-2.6012,-2.6808,-2.7264,-2.7318,-2.7493,-2.7476,-2.725,-2.5979,-2.6008,-2.7435,-2.6058,-2.7791,-3.2414,-3.2368,-3.345,-3.5319,-3.2705,-3.1111,-3.015,-2.6629,-2.5483,-2.5922,-2.4567,-2.5084,-2.6414,-2.4522,-2.5023,-2.6447,-2.406,-2.3614,-2.4244,-2.4836,-2.556,-2.6319,-2.6873,-2.7374,0.0,0.0,0.0,-2.9572,0.0,0.0,-3.7709,-4.0412,-4.1865,-4.2731,0.0,0.0,-4.3689,-4.3601,-4.3518,-4.3592,-4.3763,-4.428,-4.4727,-4.4881,-4.5346,-4.6029,-4.7059,-4.7056,-4.7234,-4.8038,-4.8539,-4.8821,-4.8881,-4.9489,-4.9876,-4.9738,-5.1457,-5.2126,-5.1155,-5.3369,-5.4058,-5.2835,-5.3307,-5.3044,-5.1892,-5.2128,-5.2608,-5.3359,-5.3734,-5.439,-5.5122,-5.4174,-5.4079,-5.4637,-5.478,-5.478,-5.4717,-5.4717,-5.4683,-5.4586,-5.4477,-5.4647,-5.5018,-5.5449,-5.6065,-5.6832,0.0,0.0,0.0,0.0,0.0,0.0,0.0,0.0,0.0,0.0,0.0,-2.7026,-2.8611,-2.7205,-2.6456,-2.7214,-2.6465,-2.5938,-2.5914,-2.6645,-2.7114,-2.7115,-2.7902,0.0,-2.7135,-2.7005,-2.7344,-2.8145,-2.5671,-2.7688,-3.3857,-3.1584,-3.3007,-3.7313,-3.4327,-3.1299,-2.8334,-2.6504,-2.5777,-2.5814,-2.5578,-2.5523,-2.5819,-2.7938,-2.9344,-2.9913,-2.7368,-2.8019,-2.9694,-2.729,-2.7106,-2.7867,-2.7779,-2.7327,-2.669,0.0,0.0,0.0,0.0,-3.2988,0.0,-3.8331,-4.0311,0.0,0.0,-4.2181,-4.2673,-4.2673,-4.259,-4.2695,-4.3385,-4.3569,-4.3826,-4.4597,-4.4601,-4.5076,-4.6798,-4.6903,-4.7098,-4.7901,-4.7884,-4.7814,-4.7975,-4.8349,-4.8668,-4.8774,-5.0985,-5.2114,-5.1687,-5.3458,-5.3537,-5.1457,-5.1576,-5.0832,-4.9023,-5.0312,-5.1753,-5.3229,-5.3019,-5.3707,-5.4957,-5.4009,-5.3832,-5.4239,-5.4637,-5.4717,-5.4512,-5.4512,-5.4414,-5.4252,-5.4188,-5.4028,-5.3768,-5.3819,-5.4295,-5.5026,0.0,0.0,0.0,0.0,0.0,0.0,0.0,0.0,0.0,0.0,0.0,0.0,0.0,-2.6949,-2.6739,-2.6465,-2.5581,-2.4787,-2.4211,-2.4435,-2.5105,-2.6204,-2.6559,-2.7083,-2.7793,-2.6748,-2.6302,-2.6525,-2.4968,-2.6219,-3.0093,-3.0171,-3.0882,-3.2053,-3.1617,-3.1355,-3.0924,-2.6637,-2.5467,-2.6432,-2.6294,-2.7445,-2.9315,-2.9641,-3.1212,-3.2873,-2.9881,-2.875,-2.8425,-2.6969,-2.6673,-2.6724,-2.5683,-2.5886,-2.6439,-2.6164,-2.7028,-2.8576,0.0,0.0,0.0,-3.6583,-3.8114,-3.9239,-4.024,-4.1075,-4.1779,-4.2246,-4.2323,-4.2475,-4.3158,-4.3358,-4.3503,-4.3688,-4.3634,-4.4143,-4.5842,-4.5963,-4.6375,-4.7761,-4.7801,-4.7675,-4.7657,-4.7764,-4.7795,-4.7725,-4.8982,-4.9364,-4.8598,-5.0174,-5.045,-4.9086,-4.9528,-4.9376,-4.8556,-4.9922,-5.0788,-5.1307,-5.2653,-5.3541,-5.3973,-5.3994,-5.4029,-5.4175,-5.411,-5.411,-5.4192,-5.4192,-5.3963,-5.3683,-5.3815,-5.3567,-5.3229,-5.3855,-5.4192,-5.4357,0.0,0.0,0.0,0.0,0.0,-2.8827,-2.795,-2.7217,-2.6548,-2.5923,0.0,0.0,0.0,0.0,-2.7209,-2.6298,-2.5651,-2.48,-2.3633,-2.3558,-2.4094,-2.5242,-2.5855,-2.6637,-2.7677,-2.6339,-2.5727,-2.5966,-2.4192,-2.4742,-2.7466,-2.8146,-2.8782,-2.936,-2.9204,-3.0171,-3.1715,-2.8492,-2.7567,-2.8331,-2.8792,-3.0051,-3.1754,-3.2584,-3.3988,-3.523,-3.2839,-3.1265,-3.0077,-2.8742,-2.7919,-2.7224,-2.5905,-2.581,-2.6245,-2.6362,-2.7533,-2.9126,-3.0515,0.0,0.0,0.0,-3.6056,-3.6725,-3.8585,-3.9397,-3.9987,-4.0729,-4.1332,-4.1953,-4.2632,-4.2996,-4.3233,-4.3178,-4.3086,-4.3594,-4.5212,-4.533,-4.5848,-4.7518,-4.7572,-4.7529,-4.7468,-4.7381,-4.7294,-4.7133,-4.7803,-4.7879,-4.7128,-4.832,-4.8682,-4.7935,-4.808,-4.8241,-4.8277,-4.9425,-5.0098,-5.0206,-5.2174,-5.3038,-5.2967,-5.3261,-5.334,-5.3195,-5.2935,-5.3241,-5.3915,-5.3783,-5.3567,-5.3366,-5.345,-5.3162,-5.2901,-5.3472,-5.379,-5.3949,0.0,0.0,-2.9225,-2.9195,-2.9079,-2.872,-2.7941,-2.763,-2.7485,-2.749,0.0,0.0,0.0,0.0,0.0,-2.6953,-2.6763,-2.602,-2.4395,-2.4266,-2.4266,-2.4321,-2.5893,-2.6743,-2.674,-2.5924,-2.5904,-2.6677,-2.3456,-2.3456,-2.6499,-2.5607,-2.6899,-2.985,-2.7515,-2.7853,-3.0241,-3.1795,-3.1994,-3.1381,-3.2985,-3.3075,-3.2752,-3.6807,-3.7831,-3.6942,-3.6209,-3.582,-3.5263,-3.2853,-3.1091,-2.9692,-2.8702,-2.7371,-2.6201,-2.6354,-2.7495,-2.8873,0.0,0.0,0.0,-3.4146,-3.4146,-3.4144,-3.6553,-3.7119,-3.7343,-3.8122,-3.9592,-4.0955,-4.1705,-4.2413,-4.2902,-4.3031,-4.2975,-4.3405,-4.4859,-4.5093,-4.5647,-4.7086,-4.7232,-4.7223,-4.7276,-4.7116,-4.6998,-4.698,-4.7607,-4.786,-4.7597,-4.8237,-4.8435,-4.8066,-4.7387,-4.7352,-4.8048,-4.8831,-4.9486,-5.0137,-5.1432,-5.2054,-5.1957,-5.1833,-5.1583,-5.1183,-5.1166,-5.2094,-5.36,-5.3281,-5.3162,-5.3179,-5.2972,-5.2764,-5.257,-5.2553,-5.2931,-5.3589,0.0,-2.9554,-2.9836,-2.9109,-2.8951,-2.8829,-2.8493,-2.7824,-2.7349,0.0,0.0,0.0,-2.8577,-2.7791,-2.6856,-2.5965,-2.528,-2.4726,-2.4266,-2.3676,-2.3879,-2.504,-2.5536,-2.6287,-2.7402,-2.6646,-2.6313,-2.649,-2.4304,-2.3717,-2.459,-2.4886,-2.5493,-2.6416,-2.8167,-2.8948,-2.8898,-2.7711,-2.9083,-3.2047,-3.1829,-3.2944,-3.4932,-3.6717,-3.7817,-3.8277,-3.7485,-3.6804,-3.5964,-3.4121,-3.2504,-3.089,-2.8899,-2.804,-2.7633,-2.7083,-2.8476,-2.9989,-2.9114,0.0,0.0,0.0,0.0,0.0,-3.4055,-3.4957,-3.589,-3.7721,-3.8497,-3.924,-4.051,-4.132,-4.1823,-4.1861,-4.2348,-4.303,-4.4016,-4.4664,-4.5402,-4.6385,-4.6952,-4.7249,-4.7223,-4.7088,-4.6934,-4.6888,-4.7494,-4.7745,-4.7498,-4.798,-4.7891,-4.7176,-4.6968,-4.6826,-4.682,-4.7044,-4.7417,-4.802,-4.8998,-4.9907,-5.0816,-5.0657,-5.0773,-5.1023,-5.0743,-5.1212,-5.2083,-5.2168,-5.2332,-5.2537,-5.2677,-5.2395,-5.2069,-5.2109,-5.2329,-5.2488,-2.8232,-2.8469,-2.8636,-2.8357,-2.8289,-2.835,-2.8569,-2.8131,-2.7727,0.0,0.0,0.0,-2.7659,-2.7705,-2.7142,-2.563,-2.5314,-2.4926,-2.4246,-2.4375,-2.4742,-2.5289,-2.5962,-2.6746,-2.7638,-2.7132,-2.6545,-2.587,-2.4493,-2.3469,-2.2815,-2.3627,-2.3804,-2.3584,-2.5819,-2.6705,-2.6435,-2.5068,-2.7483,-3.2281,-3.2712,-3.3761,-3.5199,-3.6793,-3.7575,-3.7882,-3.806,-3.7792,-3.7238,-3.6239,-3.4424,-3.2232,-2.9958,-2.9479,-2.9543,-2.847,-2.9843,-3.1368,-2.9844,-3.0404,-3.1379,-3.116,0.0,0.0,-3.3238,-3.3641,-3.4093,-3.599,-3.7264,-3.8272,-3.9085,-4.0414,-4.1346,-4.1289,-4.1912,-4.2718,-4.3607,-4.4354,-4.5101,-4.5863,-4.6302,-4.6668,-4.6898,-4.6603,-4.6411,-4.6554,-4.7236,-4.7638,-4.7596,-4.8134,-4.8251,-4.7654,-4.7343,-4.7044,-4.679,-4.6409,-4.6366,-4.6561,-4.7291,-4.8141,-4.9001,-4.8984,-4.9198,-4.9576,-4.9443,-4.9725,-5.0251,-5.0388,-5.1115,-5.2164,-5.2252,-5.2053,-5.1778,-5.1908,-5.1851,-5.1917,0.0,-2.6653,-2.688,-2.7514,-2.7578,-2.7765,-2.8527,-2.8573,-2.8465,0.0,-2.833,-2.8044,-2.7257,-2.8246,-2.8113,-2.6035,-2.6158,-2.5858,-2.4776,-2.5711,-2.6072,-2.547,-2.6722,-2.7432,-2.7437,-2.7387,-2.6638,-2.5092,-2.4363,-2.3216,-2.1673,-2.2287,-2.2215,-2.162,-2.2226,-2.3019,-2.3905,-2.4064,-2.7161,-3.2152,-3.4191,-3.476,-3.4597,-3.695,-3.7381,-3.6934,-3.8287,-3.8765,-3.8652,-3.827,-3.6374,-3.3808,-3.1586,-3.1324,-3.1578,-3.0188,-3.1333,-3.28,-3.1451,-3.1631,-3.2319,-3.2804,-3.1422,0.0,-3.3297,-3.2983,-3.2493,-3.3791,-3.5876,-3.7504,-3.7578,-3.9405,-4.0831,-4.0842,-4.1451,-4.2287,-4.3298,-4.4,-4.4698,-4.5391,-4.545,-4.5776,-4.6519,-4.5941,-4.5741,-4.6133,-4.6961,-4.7526,-4.7763,-4.854,-4.8825,-4.8643,-4.8006,-4.7584,-4.7575,-4.6657,-4.6056,-4.5764,-4.6203,-4.6602,-4.6932,-4.7137,-4.7284,-4.7523,-4.782,-4.8133,-4.8433,-4.8433,-4.9817,-5.1776,-5.172,-5.1712,-5.1704,-5.1704,-5.1647,-5.1597,-2.7689,-2.7982,-2.8356,-2.8442,-2.8369,-2.855,-2.9344,-2.9364,-2.9249,-2.919,-2.9536,-2.9747,-2.9554,-2.8544,-2.7944,-2.8127,-2.5917,-2.5458,-2.7757,-2.5768,-2.5272,-2.6972,-2.669,-2.6439,-2.6398,-2.6952,-2.6519,-2.5018,-2.4743,-2.4163,-2.3253,-2.2625,-2.2278,-2.2135,-2.2339,-2.3195,-2.4635,-2.658,-2.9068,-3.1676,-3.1541,-3.3241,-3.599,-3.7094,-3.8084,-3.8916,-3.9217,-3.9323,-3.904,-3.7188,-3.6589,-3.6056,-3.3035,-3.268,-3.3048,-3.1394,-3.2219,-3.3452,-3.2512,-3.2897,-3.325,-3.2094,-3.2001,0.0,-3.2125,-3.2469,-3.3033,-3.3732,-3.4369,-3.5168,-3.6256,-3.7339,-3.828,-3.8898,-4.0134,-4.1339,-4.2179,-4.2942,-4.366,-4.4475,-4.5103,-4.5729,-4.6376,-4.6209,-4.6046,-4.602,-4.7161,-4.754,-4.6874,-4.8023,-4.8318,-4.7512,-4.7358,-4.7466,-4.7844,-4.7005,-4.6456,-4.621,-4.5561,-4.553,-4.6059,-4.5934,-4.6059,-4.6469,-4.7057,-4.7659,-4.8064,-4.8064,-4.9131,-5.0692,-5.0676,-5.0961,-5.1333,-5.1333,-5.1408,-5.1515,-2.7848,-2.7537,-2.757,-2.7881,-2.7841,-2.8147,-2.9325,-2.9451,-2.9646,-3.0313,-3.1262,-3.1276,-2.9643,-2.9387,-2.9009,-2.8209,-2.664,-2.62,-2.7369,-2.5978,-2.5429,-2.6162,-2.5749,-2.569,-2.6105,-2.6361,-2.6157,-2.5494,-2.5362,-2.4706,-2.3526,-2.266,-2.2629,-2.3294,-2.2184,-2.2985,-2.5202,-2.6053,-2.7921,-3.0446,-3.2115,-3.4159,-3.6326,-3.7421,-3.828,-3.8994,-3.9627,-4.0052,-3.9991,-3.7822,-3.7351,-3.7259,-3.4902,-3.4745,-3.515,-3.3899,-3.4409,-3.5009,-3.3529,-3.3723,-3.4041,-3.2806,-3.2907,0.0,0.0,-3.3293,-3.3573,-3.4076,-3.4323,-3.4748,-3.5713,-3.6635,-3.7468,-3.8144,-3.9276,-4.0176,-4.0471,-4.1956,-4.3129,-4.3507,-4.3849,-4.4284,-4.4944,-4.49,-4.5291,-4.6308,-4.7278,-4.76,-4.7055,-4.8048,-4.8363,-4.7814,-4.7363,-4.7359,-4.7868,-4.6498,-4.5688,-4.548,-4.4489,-4.4459,-4.5403,-4.5323,-4.5652,-4.6358,-4.673,-4.7033,-4.7178,-4.7178,-4.8087,-4.9482,-4.9953,-5.0461,-5.1048,-5.0972,-5.0956,-5.1048,-2.7923,-2.6835,-2.6371,-2.7261,-2.7157,-2.7493,-2.9031,-2.9394,-3.0042,-3.1591,-3.283,-3.2647,-3.0287,-3.0758,-3.0667,-2.9156,-2.8153,-2.7488,-2.7252,-2.6555,-2.6027,-2.5805,-2.5261,-2.5386,-2.6267,-2.6101,-2.5861,-2.5541,-2.5558,-2.4824,-2.3389,-2.2571,-2.2916,-2.4095,-2.2263,-2.3077,-2.5773,-2.534,-2.6964,-3.0135,-3.3439,-3.5084,-3.577,-3.7563,-3.8139,-3.8169,-3.9468,-4.0428,-4.0697,-3.8681,-3.807,-3.7888,-3.6243,-3.626,-3.6729,-3.598,-3.6278,-3.647,-3.467,-3.474,-3.5054,-3.393,-3.3968,-3.4269,0.0,0.0,0.0,-3.4053,-3.4283,-3.467,-3.5287,-3.6089,-3.6886,-3.7615,-3.8485,-3.8975,-3.8781,-4.0727,-4.2176,-4.2279,-4.2188,-4.2445,-4.3228,-4.3388,-4.4229,-4.6306,-4.6924,-4.7172,-4.7215,-4.7723,-4.8059,-4.8038,-4.7131,-4.6904,-4.7467,-4.5835,-4.4882,-4.461,-4.3727,-4.3742,-4.461,-4.4821,-4.537,-4.6127,-4.6416,-4.6404,-4.6278,-4.6278,-4.7029,-4.8407,-4.9245,-5.0064,-5.082,-5.0666,-5.0589,-5.0589,-2.8654,-2.7138,-2.6481,-2.7922,-2.7475,-2.7415,-2.8904,-2.9742,-3.0931,-3.2985,-3.3317,-3.3695,-3.47,-3.3015,-3.2571,-3.4443,-3.0725,-2.9143,-3.1193,-2.7941,-2.6856,-2.8981,-2.6826,-2.605,-2.6956,-2.6863,-2.5821,-2.3853,-2.4456,-2.4302,-2.3476,-2.2549,-2.2569,-2.3413,-2.3141,-2.4353,-2.6591,-2.7173,-2.9544,-3.2931,-3.3404,-3.365,-3.4036,-3.6939,-3.7563,-3.7079,-3.8572,-3.9617,-3.9956,-3.8252,-3.8122,-3.8287,-3.5852,-3.578,-3.6388,-3.5544,-3.5937,-3.6673,-3.6411,-3.68,-3.6752,-3.4636,-3.5082,-3.533,-3.272,0.0,-3.3751,-3.2412,0.0,-3.3587,-3.4237,0.0,0.0,-3.6638,-3.7474,-3.7945,-3.7945,-3.8798,-3.9696,-4.0314,-4.0401,-4.0913,-4.2215,-4.28,-4.3632,-4.5103,-4.5255,-4.5542,-4.6056,-4.6045,-4.6269,-4.6675,-4.5764,-4.549,-4.6022,-4.5702,-4.5118,-4.4256,-4.4019,-4.36,-4.3176,-4.4123,-4.4519,-4.4541,-4.5681,-4.6168,-4.6096,-4.6096,-4.6702,-4.7597,-4.8375,-4.948,-5.0666,-5.0589,-5.0589,-5.0589,-2.8548,-2.7859,-2.751,-2.8071,-2.7416,-2.7444,-2.9457,-3.1843,-3.34,-3.3339,-3.4862,-3.599,-3.6103,-3.4813,-3.4494,-3.5946,-3.3323,-3.1635,-3.1755,-2.9639,-2.8063,-2.7299,-2.6224,-2.5825,-2.6215,-2.5762,-2.5496,-2.545,-2.4764,-2.4025,-2.3253,-2.2383,-2.3109,-2.513,-2.4682,-2.6479,-2.9849,-2.919,-3.0052,-3.1951,-3.2457,-3.2541,-3.274,-3.6394,-3.7741,-3.781,-3.887,-3.9428,-3.9531,-3.8446,-3.8308,-3.8394,-3.7298,-3.6964,-3.6965,-3.7042,-3.7008,-3.6758,-3.5946,-3.6542,-3.6879,-3.449,-3.5115,-3.5683,-3.3436,-3.3498,-3.3813,-3.3115,0.0,0.0,0.0,0.0,0.0,0.0,-3.636,-3.6826,-3.6784,-3.7077,-3.7776,-3.9163,-3.9363,-3.9863,-4.1198,-4.1057,-4.1884,-4.4175,-4.4346,-4.4633,-4.5218,-4.5546,-4.573,-4.574,-4.5157,-4.5114,-4.5673,-4.5025,-4.4475,-4.4101,-4.3472,-4.3215,-4.3361,-4.4039,-4.4513,-4.4893,-4.558,-4.5968,-4.588,-4.5807,-4.6202,-4.6909,-4.7119,-4.7921,-4.8977,-4.8746,-4.8685,-4.8732,-2.8316,-2.7905,-2.7587,-2.7692,-2.7333,-2.7874,-3.0393,-3.319,-3.4736,-3.3921,-3.578,-3.7165,-3.7095,-3.6381,-3.6327,-3.7255,-3.583,-3.425,-3.2935,-3.1582,-2.9911,-2.7893,-2.6964,-2.6611,-2.6833,-2.5879,-2.5747,-2.6481,-2.5244,-2.4347,-2.3749,-2.3122,-2.4042,-2.6177,-2.6435,-2.8394,-3.1481,-3.0924,-3.1185,-3.2048,-3.2431,-3.2662,-3.3066,-3.5811,-3.7335,-3.8128,-3.8824,-3.9067,-3.8999,-3.8738,-3.8619,-3.8567,-3.8333,-3.7917,-3.7603,-3.8123,-3.7855,-3.7126,-3.6104,-3.659,-3.6853,-3.4466,-3.478,-3.5198,-3.3393,-3.3502,-3.3867,-3.3393,-3.34,0.0,0.0,0.0,-3.4301,-3.5011,0.0,-3.6036,-3.5949,-3.5975,-3.6517,-3.7853,-3.8225,-3.8773,-3.9816,-3.9532,-4.0353,-4.2838,-4.3042,-4.3498,-4.4541,-4.4818,-4.4942,-4.5033,-4.4506,-4.441,-4.4765,-4.3942,-4.3491,-4.3475,-4.2813,-4.2703,-4.3251,-4.3888,-4.4389,-4.4915,-4.5484,-4.5662,-4.5589,-4.5515,-4.5634,-4.6056,-4.5846,-4.6218,-4.6946,-4.72,-4.7403,-4.7606,-2.812,-2.6801,-2.5893,-2.6626,-2.7359,-2.8851,-3.1792,-3.2875,-3.3844,-3.5175,-3.5411,-3.6255,-3.832,-3.782,-3.7942,-3.9368,-3.8072,-3.6834,-3.6003,-3.3723,-3.2701,-3.3301,-3.0402,-2.9154,-2.9924,-2.8458,-2.7035,-2.5641,-2.5535,-2.5447,-2.5412,-2.5242,-2.524,-2.5467,-2.8363,-2.9741,-3.0019,-3.2159,-3.3852,-3.4984,-3.4243,-3.4624,-3.5613,-3.5147,-3.5856,-3.724,-3.7974,-3.8247,-3.8321,-3.8976,-3.9166,-3.9047,-3.8173,-3.7967,-3.7963,-3.7997,-3.798,-3.7946,-3.7912,-3.7804,-3.7155,-3.4835,-3.4286,-3.3678,-3.1482,-3.2655,-3.3768,-3.237,-3.3789,-3.5093,-3.4398,-3.4385,-3.4742,-3.562,-3.58,0.0,0.0,-3.5932,-3.6036,-3.6087,-3.6693,-3.7371,-3.7953,-3.8599,-3.9514,-4.0805,-4.0903,-4.1858,-4.398,-4.3347,-4.344,-4.4699,-4.36,-4.287,-4.2699,-4.235,-4.2141,-4.2141,-4.2125,-4.2125,-4.2189,-4.3428,-4.3876,-4.3832,-4.4991,-4.5368,-4.522,-4.522,-4.5145,-4.4905,-4.477,-4.4542,-4.4665,-4.6625,-4.77,-4.8183,-2.7175,-2.6581,-2.6284,-2.6581,-2.6814,-2.7967,-3.0903,-3.3638,-3.5879,-3.738,-3.7911,-3.9061,-4.1339,-3.9957,-3.9691,-4.174,-4.0435,-3.8906,-3.7506,-3.6619,-3.5314,-3.3419,-3.2389,-3.148,-3.066,-2.9218,-2.8167,-2.7582,-2.6004,-2.5227,-2.522,-2.4632,-2.4945,-2.604,-2.7947,-2.9955,-3.1925,-3.3029,-3.371,-3.4165,-3.4177,-3.4726,-3.5594,-3.6,-3.6452,-3.7029,-3.8286,-3.8744,-3.8814,-3.9478,-3.9361,-3.8957,-3.9076,-3.8438,-3.7748,-3.8268,-3.8017,-3.7648,-3.7648,-3.7968,-3.7852,-3.6075,-3.5195,-3.4318,-3.26,-3.28,-3.305,-3.1964,-3.3156,-3.4168,-3.3389,-3.3673,-3.418,-3.4521,-3.5019,-3.5367,0.0,-3.552,-3.5503,-3.5396,-3.5797,-3.6344,-3.6983,-3.6737,-3.7515,-3.9897,-3.9558,-4.0191,-4.2412,-4.246,-4.2574,-4.2752,-4.2707,-4.2345,-4.161,-4.1933,-4.1885,-4.1421,-4.1885,-4.2061,-4.1995,-4.321,-4.3706,-4.356,-4.4653,-4.5039,-4.4964,-4.4739,-4.4587,-4.4511,-4.4281,-4.4127,-4.4188,-4.4894,-4.5278,-4.557,-2.7541,-2.7328,-2.7123,-2.6603,-2.7378,-2.8985,-3.1639,-3.4551,-3.6916,-3.8407,-3.9177,-4.0371,-4.2353,-4.1241,-4.0941,-4.2379,-4.156,-4.0225,-3.8579,-3.8408,-3.7207,-3.4484,-3.4213,-3.338,-3.1723,-3.0558,-2.9528,-2.861,-2.7087,-2.6189,-2.5941,-2.5398,-2.5524,-2.6303,-2.8232,-3.0141,-3.2025,-3.34,-3.4245,-3.4658,-3.5194,-3.5689,-3.6175,-3.709,-3.7087,-3.6784,-3.8301,-3.8857,-3.8958,-3.9597,-3.953,-3.9177,-3.9578,-3.9041,-3.8388,-3.884,-3.8605,-3.8204,-3.8204,-3.8354,-3.8153,-3.6919,-3.5972,-3.488,-3.3155,-3.3127,-3.3247,-3.2413,-3.3251,-3.4093,-3.4096,-3.4096,-3.4162,-3.4568,-3.4814,-3.4994,0.0,-3.5105,-3.5041,-3.4947,-3.5211,-3.5534,-3.588,-3.5652,-3.6387,-3.8467,-3.8347,-3.9023,-4.0889,-4.1436,-4.171,-4.161,-4.212,-4.1964,-4.1007,-4.1629,-4.1565,-4.0817,-4.1517,-4.1736,-4.1683,-4.2685,-4.3106,-4.3105,-4.4022,-4.4507,-4.4572,-4.4281,-4.4127,-4.405,-4.391,-4.3832,-4.3738,-4.391,-4.3988,-4.4246,-2.9051,-2.8834,-2.836,-2.6959,-2.9018,-3.1639,-3.3888,-3.547,-3.6933,-3.8394,-3.9239,-4.0253,-4.1657,-4.1833,-4.1771,-4.1583,-4.162,-4.0937,-3.9381,-3.9198,-3.8415,-3.6676,-3.5977,-3.4866,-3.3225,-3.2487,-3.0994,-2.8752,-2.8595,-2.8178,-2.7548,-2.7373,-2.6913,-2.6268,-2.9094,-3.0321,-3.0459,-3.3362,-3.5334,-3.6525,-3.725,-3.7403,-3.7403,-3.8254,-3.7719,-3.6666,-3.8137,-3.8656,-3.8757,-3.9443,-3.9677,-3.9677,-3.9677,-3.9677,-3.9677,-3.9677,-3.959,-3.9501,-3.9448,-3.888,-3.8096,-3.7384,-3.6521,-3.5284,-3.3143,-3.3658,-3.4333,-3.3563,-3.4038,-3.4988,-3.6214,-3.5397,-3.4775,-3.558,-3.5152,-3.4739,-3.4851,-3.4787,-3.4691,-3.4691,-3.4866,-3.4913,-3.4691,-3.5333,-3.6008,-3.6626,-3.7331,-3.8292,-3.9601,-4.0326,-4.0864,-4.1238,-4.1757,-4.1598,-4.0753,-4.1259,-4.1112,-4.0256,-4.0978,-4.1205,-4.1133,-4.1788,-4.2248,-4.2514,-4.3279,-4.373,-4.3988,-4.3988,-4.3832,-4.369,-4.369,-4.3518,-4.3344,-4.3862,-4.4048,-4.4458,-2.8876,-2.944,-3.0317,-3.104,-3.085,-3.1589,-3.449,-3.5581,-3.7256,-4.0475,-4.1032,-4.2088,-4.4746,-4.3454,-4.28,-4.3908,-4.2899,-4.1986,-4.1447,-4.0891,-3.9857,-3.8121,-3.7413,-3.6288,-3.4703,-3.2934,-3.1669,-3.0992,-2.8627,-2.7681,-2.8092,-2.6845,-2.6456,-2.68,-2.7998,-2.944,-3.1099,-3.269,-3.443,-3.6238,-3.7485,-3.7566,-3.7133,-3.8319,-3.8183,-3.7543,-3.8816,-3.927,-3.9287,-3.9365,-3.9484,-3.9484,-3.9255,-3.9185,-3.9131,-3.9077,-3.9077,-3.9094,-3.904,-3.9016,-3.8887,-3.8475,-3.7488,-3.6322,-3.5103,-3.5087,-3.4939,-3.3518,-3.4576,-3.5548,-3.4866,-3.4797,-3.4813,-3.4692,-3.4628,-3.4546,-3.4594,-3.4546,-3.4497,-3.4399,-3.3958,-3.3843,-3.4496,-3.471,-3.5349,-3.6593,-3.6751,-3.7362,-3.8642,-3.979,-4.0309,-4.0178,-4.0785,-4.0737,-3.9834,-4.0402,-4.0289,-3.958,-4.0657,-4.1086,-4.0898,-4.1442,-4.1909,-4.2383,-4.2773,-4.3212,-4.3754,-4.3581,-4.3423,-4.3423,-4.3423,-4.3344,-4.3389,-4.3963,-4.4634,-4.5399,-3.0748,-3.2204,-3.3835,-3.469,-3.4587,-3.4889,-3.6307,-3.7058,-3.831,-4.0797,-4.1665,-4.2625,-4.4261,-4.396,-4.3633,-4.3729,-4.2897,-4.2067,-4.1249,-4.1081,-4.0245,-3.8573,-3.8074,-3.7145,-3.5565,-3.3761,-3.2435,-3.1651,-2.9265,-2.815,-2.8202,-2.6971,-2.6582,-2.6993,-2.7963,-2.9194,-3.0735,-3.3217,-3.5112,-3.6605,-3.7942,-3.8236,0.0,-3.8548,-3.8504,-3.821,-3.8854,-3.9164,-3.9202,-3.9094,-3.9148,-3.9148,-3.8969,-3.8914,-3.8914,-3.8805,-3.886,-3.8914,-3.8805,-3.8931,-3.904,-3.875,-3.7899,-3.6751,-3.5619,-3.5029,-3.4524,-3.3614,-3.4046,-3.4691,-3.4836,-3.4655,-3.4449,-3.4266,-3.43,-3.4235,-3.3942,-3.4154,-3.4186,-3.3844,-3.3582,-3.368,-3.4267,-3.3958,-3.4201,-3.5389,-3.5898,-3.6561,-3.756,-3.9161,-3.9841,-3.9231,-4.0182,-4.0151,-3.8968,-3.9864,-3.9893,-3.9074,-4.038,-4.0814,-4.0608,-4.0854,-4.1362,-4.2014,-4.2183,-4.2724,-4.3518,-4.3344,-4.3329,-4.3329,-4.3329,-4.3329,-4.3404,-4.4062,-4.4638,-4.5229,-3.3539,-3.5598,-3.7532,-3.7591,-3.8762,-3.9476,-3.893,-3.9294,-3.9834,-4.0639,-4.2002,-4.2818,-4.2666,-4.3941,-4.4251,-4.2757,-4.251,-4.1834,-4.0343,-4.0698,-4.0259,-3.8591,-3.8413,-3.7718,-3.6334,-3.4795,-3.334,-3.1961,-3.0206,-2.8956,-2.8203,-2.7367,-2.6977,-2.7063,-2.842,-2.9421,-3.0356,-3.4283,-3.6373,-3.7184,-3.8447,-3.8969,-3.8914,-3.8805,-3.8655,-3.856,-3.856,-3.8655,-3.875,-3.875,-3.8805,-3.8805,-3.8805,-3.875,-3.875,-3.875,-3.875,-3.875,-3.875,-3.875,-3.875,-3.8528,-3.788,-3.688,-3.5465,-3.4455,-3.3822,-3.3726,-3.3227,-3.3387,-3.5182,-3.4615,-3.3899,-3.405,-3.405,-3.384,-3.3258,-3.3678,-3.3824,-3.3242,-3.3433,0.0,-3.3905,-3.3287,-3.3171,-3.3995,-3.5161,-3.6055,-3.6572,-3.8639,-3.942,-3.8478,-3.9724,-3.9771,-3.8293,-3.9375,-3.9591,-3.8831,-4.0003,-4.0516,-4.0277,-4.0277,-4.075,-4.158,-4.1671,-4.2241,-4.321,-4.3299,-4.3329,-4.3329,-4.3329,-4.3329,-4.3404,-4.4062,-4.4317,-4.4586,-3.4814,-3.6571,-3.8153,-3.8135,-3.9743,-4.1243,-4.1786,-4.1356,-4.1485,-4.2788,-4.3781,-4.455,-4.5109,-4.4697,-4.4526,-4.482,-4.3494,-4.2501,-4.2244,-4.1764,-4.0822,-3.9303,-3.9187,-3.876,-3.7837,-3.5736,-3.4541,-3.4284,-3.0827,-2.907,-2.8883,-2.7437,-2.7046,-2.7584,-2.8333,-2.9989,-3.2326,-3.4787,-3.6273,-3.703,-3.8194,-3.8672,-3.8672,-3.8504,-3.8448,-3.8464,-3.8464,-3.8504,-3.8616,-3.8616,-3.8711,-3.8805,-3.8655,-3.8616,-3.8616,-3.8504,-3.856,-3.8616,-3.8391,-3.8488,-3.8528,-3.8148,-3.756,-3.6876,-3.5876,-3.5086,-3.4414,-3.3822,-3.3958,-3.416,-3.411,-3.387,-3.3797,-3.3899,-3.3848,-3.3713,-3.3585,-3.3681,-3.3713,-3.3585,-3.2556,-3.2141,-3.2949,-3.3448,-3.4062,-3.4891,-3.561,-3.6165,-3.6603,-3.8654,-3.9358,-3.837,-3.9094,-3.9141,-3.8293,-3.8169,-3.8399,-3.8831,-3.9241,-3.9765,-4.0277,-3.998,-4.019,-4.0887,-4.1295,-4.1895,-4.2581,-4.3105,-4.3329,-4.3329,-4.3329,-4.3329,-4.3404,-4.4062,-4.4317,-4.4526,-3.739,-3.8466,-3.948,-3.9926,-4.1401,-4.28,-4.3506,-4.3513,-4.3291,-4.2905,-4.353,-4.4089,-4.4284,-4.4647,-4.4785,-4.461,-4.346,-4.2552,-4.2159,-4.1375,-4.0608,-3.9893,-3.9435,-3.9013,-3.8639,-3.6831,-3.5691,-3.5273,-3.2258,-3.0518,-3.0057,-2.846,-2.7847,-2.8213,-2.916,-3.0949,-3.3363,-3.5037,-3.6319,-3.7367,-3.8231,-3.8616,-3.856,-3.8391,-3.8351,-3.8391,-3.8351,-3.8351,-3.8391,-3.8448,-3.8504,-3.8488,-3.8504,-3.8464,-3.8391,-3.8351,-3.8278,-3.8221,-3.8107,-3.8148,-3.8148,-3.7876,-3.7061,-3.6182,-3.5681,-3.4775,-3.3916,-3.3582,-3.372,-3.3794,-3.3618,-3.3607,-3.3658,-3.3745,-3.3745,-3.3566,-3.3198,-3.347,-3.3438,-3.2686,-3.2235,-3.2187,-3.2705,-3.3008,-3.3505,-3.4365,-3.5214,-3.592,-3.6447,-3.8185,-3.8697,-3.7728,-3.8387,-3.8357,-3.7483,-3.7623,-3.7959,-3.8508,-3.8968,-3.9505,-3.998,-3.9768,-4.0166,-4.092,-4.125,-4.1861,-4.2723,-4.3115,-4.3329,-4.3329,-4.3329,-4.3329,-4.3374,-4.3688,-4.3808,-4.4047,-3.9576,-4.0262,-4.0971,-4.1646,-4.2887,-4.3962,-4.4369,-4.4975,-4.4751,-4.3074,-4.335,-4.363,-4.3391,-4.4508,-4.4885,-4.3953,-4.3268,-4.2534,-4.1801,-4.0951,-4.0493,-4.0425,-3.9614,-3.9175,-3.9175,-3.7889,-3.6772,-3.5814,-3.3693,-3.2083,-3.0942,-2.9666,-2.912,-2.9299,-3.0534,-3.2166,-3.4013,-3.5218,-3.6457,-3.7682,-3.8267,-3.8504,-3.8448,-3.8221,-3.8221,-3.8278,-3.8164,-3.8107,-3.8107,-3.8221,-3.8221,-3.8164,-3.8278,-3.8221,-3.8123,-3.8123,-3.8049,-3.7876,-3.7876,-3.7876,-3.7817,-3.77,-3.6594,-3.5506,-3.5394,-3.4265,-3.3203,-3.3203,-3.3256,-3.3309,-3.3414,-3.3398,-3.345,-3.3607,-3.3607,-3.3364,-3.2841,-3.324,-3.3192,-3.2075,-3.2121,-3.2344,-3.2588,-3.2376,-3.2644,-3.3682,-3.4689,-3.5473,-3.6111,-3.7468,-3.7834,-3.693,-3.7761,-3.7608,-3.6507,-3.7048,-3.7661,-3.8213,-3.8681,-3.9161,-3.9681,-3.9696,-4.0051,-4.0769,-4.1189,-4.1963,-4.2915,-4.3155,-4.325,-4.325,-4.325,-4.3329,-4.3329,-4.3329,-4.3329,-4.3584,-4.0079,-4.122,-4.2218,-4.2305,-4.3496,-4.4369,-4.4302,-4.4819,-4.5161,-4.4955,-4.4883,-4.4827,-4.4827,-4.4838,-4.4541,-4.381,-4.3478,-4.3051,-4.2289,-4.1508,-4.105,-4.0929,-4.0238,-3.98,-3.98,-3.8908,-3.78,-3.6514,-3.4796,-3.288,-3.0797,-3.0664,-3.0842,-3.1371,-3.2603,-3.3627,-3.4497,-3.573,-3.6627,-3.7371,-3.7988,-3.8107,-3.7992,-3.7934,-3.7934,-3.7934,-3.7934,-3.7876,-3.7759,-3.7876,-3.7934,-3.7934,-3.7934,-3.7934,-3.7934,-3.7934,-3.7934,-3.7876,-3.7759,-3.77,-3.77,-3.7539,-3.6379,-3.5225,-3.5225,-3.4046,-3.2951,-3.2951,-3.3058,-3.3096,-3.3165,-3.315,-3.3203,-3.3309,-3.3256,-3.3171,-3.3214,-3.3314,-3.3314,-3.3171,-3.2045,-3.1571,-3.2254,-3.1731,-3.2057,-3.3889,-3.4406,-3.4786,-3.5216,-3.655,-3.6854,-3.5869,-3.7126,-3.7188,-3.5809,-3.6153,-3.6945,-3.8213,-3.7955,-3.8461,-3.9681,-3.9481,-3.9484,-3.9606,-4.065,-4.1744,-4.2769,-4.2915,-4.3076,-4.3076,-4.325,-4.3329,-4.3329,-4.3329,-4.3329,-4.3449,-4.2072,-4.2098,-4.24,-4.3216,-4.3391,-4.37,-4.4574,-4.4468,-4.4429,-4.4729,-4.4906,-4.4978,-4.4886,-4.4831,-4.4601,-4.4074,-4.369,-4.3044,-4.2247,-4.1557,-4.0949,-4.0338,-4.0052,-3.9849,-3.9781,-3.9444,-3.8573,-3.7146,-3.5947,-3.4435,-3.27,-3.2207,-3.226,-3.2875,-3.4136,-3.5069,-3.5703,-3.6481,-3.7213,-3.7818,-3.7994,-3.7992,-3.7876,-3.7817,-3.7817,-3.7876,-3.7817,-3.7759,-3.77,-3.761,-3.761,-3.761,-3.7759,-3.7626,-3.7492,-3.7492,-3.7492,-3.7449,-3.7285,-3.7345,-3.7389,-3.7241,-3.6131,-3.5039,-3.5039,-3.392,-3.2897,-3.2897,-3.2951,-3.3005,-3.3005,-3.3005,-3.3005,-3.315,-3.3058,-3.3005,-3.315,-3.3096,-3.2886,-3.2447,-3.1538,-3.1068,-3.1385,-3.1115,-3.146,-3.2645,-3.4062,-3.5257,-3.6169,-3.6747,-3.6611,-3.5612,-3.6523,-3.643,-3.5294,-3.5812,-3.6706,-3.7895,-3.7775,-3.8346,-3.9553,-3.9424,-3.9785,-4.0442,-4.1196,-4.1942,-4.2688,-4.2769,-4.2915,-4.2996,-4.3076,-4.317,-4.3329,-4.3329,-4.3329,-4.3374,-4.3473,-4.2994,-4.2944,-4.4111,-4.3784,-4.368,-4.448,-4.4252,-4.3986,-4.4091,-4.4512,-4.4703,-4.4665,-4.472,-4.4524,-4.4007,-4.3613,-4.2989,-4.2102,-4.1415,-4.0759,-4.0134,-3.9915,-3.9746,-3.9625,-3.9573,-3.8855,-3.7435,-3.697,-3.5906,-3.4259,-3.3806,-3.3914,-3.4448,-3.5575,-3.6303,-3.6664,-3.7102,-3.7584,-3.8065,-3.7801,-3.7743,-3.7759,-3.7626,-3.7642,-3.7759,-3.7658,-3.7583,-3.7508,-3.7373,-3.7298,-3.7254,-3.7405,-3.7345,-3.715,-3.715,-3.715,-3.7089,-3.6999,-3.7044,-3.7089,-3.6999,-3.6035,-3.5101,-3.4841,-3.3908,-3.3022,-3.2819,-3.2773,-3.2773,-3.2773,-3.2773,-3.2827,-3.2935,-3.2881,-3.2897,-3.3005,-3.2951,-3.2632,-3.1914,-3.1399,-3.1025,-3.0772,-3.0978,-3.141,-3.2191,-3.3958,-3.5388,-3.6284,-3.6457,-3.6212,-3.5431,-3.6014,-3.592,-3.4987,-3.5639,-3.6511,-3.7707,-3.7639,-3.8262,-3.9424,-3.9619,-4.0174,-4.1139,-4.1607,-4.2099,-4.2622,-4.2688,-4.2769,-4.285,-4.2981,-4.3076,-4.325,-4.325,-4.3329,-4.3329,-4.3767,-4.3868,-4.409,-4.4841,-4.4961,-4.4667,-4.3861,-4.4173,-4.4176,-4.3334,-4.3759,-4.4155,-4.431,-4.4497,-4.4226,-4.33,-4.3199,-4.2824,-4.1954,-4.1201,-4.0729,-4.0604,-3.9867,-3.9501,-3.9501,-3.9379,-3.8648,-3.7319,-3.7866,-3.7052,-3.4899,-3.5465,-3.5989,-3.6397,-3.7021,-3.7196,-3.7134,-3.7671,-3.7801,-3.77,-3.7492,-3.7449,-3.7464,-3.7254,-3.7329,-3.748,-3.748,-3.7389,-3.7194,-3.7194,-3.7013,-3.6723,-3.6938,-3.7015,-3.7015,-3.7015,-3.7015,-3.7015,-3.7015,-3.7015,-3.7015,-3.7015,-3.6349,-3.5455,-3.4688,-3.3906,-3.3198,-3.2536,-3.2523,-3.2578,-3.2453,-3.2523,-3.2594,-3.2594,-3.2578,-3.2648,-3.2897,-3.2897,-3.2647,-3.1961,-3.1836,-3.1488,-3.068,-3.1311,-3.2206,-3.3275,-3.4218,-3.4694,-3.4709,-3.5151,-3.5369,-3.5202,-3.575,-3.5655,-3.4987,-3.5498,-3.6366,-3.7707,-3.7488,-3.8108,-3.9439,-4.0098,-4.0681,-4.1124,-4.1748,-4.2164,-4.2392,-4.2622,-4.2622,-4.2474,-4.2835,-4.2981,-4.3076,-4.325,-4.3329,-4.3329,-4.4279,-4.4236,-4.4209,-4.4333,-4.4384,-4.4131,-4.3334,-4.3345,-4.33,-4.2782,-4.2948,-4.3281,-4.3663,-4.4039,-4.4128,-4.3738,-4.3746,-4.3227,-4.1838,-4.1632,-4.1046,-3.9884,-3.9618,-3.9448,-3.9379,-3.9325,-3.8861,-3.7899,-3.8096,-3.7548,-3.6273,-3.6812,-3.7061,-3.7053,-3.7728,-3.7883,-3.7671,-3.7722,-3.7759,-3.77,-3.7524,-3.7464,-3.748,-3.7254,-3.7254,-3.727,-3.7181,-3.7121,-3.7044,-3.6907,-3.708,-3.7265,-3.6817,-3.6693,-3.6693,-3.6693,-3.6739,-3.68,-3.6677,-3.6739,-3.68,-3.6677,-3.6106,-3.549,-3.5274,-3.4245,-3.3157,-3.244,-3.2342,-3.2453,-3.2398,-3.2453,-3.2523,-3.2578,-3.2523,-3.2523,-3.2648,-3.2648,-3.2501,-3.2284,-3.1836,-3.1411,-3.1142,-3.1782,-3.2168,-3.2028,-3.4025,-3.5413,-3.5738,-3.5891,-3.5599,-3.4894,-3.5468,-3.545,-3.4676,-3.5709,-3.6648,-3.7488,-3.7729,-3.8344,-3.9207,-3.9891,-4.0395,-4.0879,-4.1371,-4.1792,-4.2175,-4.2242,-4.231,-4.2392,-4.2541,-4.2769,-4.2996,-4.3076,-4.317,-4.3329,-4.3985,-4.3889,-4.3692,-4.331,-4.3729,-4.3762,-4.2741,-4.2752,-4.2732,-4.2518,-4.2518,-4.2666,-4.3229,-4.3552,-4.373,-4.3704,-4.3307,-4.2649,-4.1598,-4.1111,-4.045,-3.9481,-3.9325,-3.9325,-3.9272,-3.9164,-3.8933,-3.8487,-3.8451,-3.8114,-3.7564,-3.7883,-3.7861,-3.7632,-3.8028,-3.8049,-3.7817,-3.77,-3.7642,-3.7599,-3.7421,-3.7345,-3.7345,-3.7074,-3.7089,-3.7136,-3.7296,-3.7328,-3.725,-3.7111,-3.7497,-3.7882,-3.7076,-3.7046,-3.72,-3.6953,-3.6754,-3.6662,-3.6862,-3.6739,-3.66,-3.6492,-3.6184,-3.5799,-3.5537,-3.4355,-3.3176,-3.2762,-3.2327,-3.2013,-3.2013,-3.2013,-3.2067,-3.2137,-3.2283,-3.2453,-3.2523,-3.2669,-3.2582,-3.2074,-3.209,-3.1936,-3.1428,-3.1997,-3.2444,-3.2536,-3.4063,-3.537,-3.6102,-3.6148,-3.5824,-3.5085,-3.5428,-3.5394,-3.4861,-3.5938,-3.6791,-3.7419,-3.8206,-3.879,-3.9207,-4.0129,-4.0694,-4.0893,-4.1636,-4.2093,-4.2242,-4.2242,-4.2097,-4.196,-4.229,-4.2394,-4.2415,-4.2812,-4.3076,-4.317,-4.3116,-4.2975,-4.2708,-4.2055,-4.3036,-4.3471,-4.1999,-4.2176,-4.2469,-4.2377,-4.2209,-4.2343,-4.297,-4.3052,-4.3113,-4.3312,-4.2237,-4.1411,-4.1231,-4.0073,-3.9404,-3.9355,-3.911,-3.911,-3.9355,-3.9002,-3.8876,-3.9051,-3.8903,-3.8841,-3.8763,-3.8658,-3.8472,-3.8245,-3.8024,-3.7817,-3.7658,-3.7587,-3.7512,-3.748,-3.7183,-3.7183,-3.7197,-3.6908,-3.6894,-3.7172,-3.781,-3.7856,-3.7667,-3.7667,-3.8067,-3.8385,-3.7707,-3.8,-3.8446,-3.7769,-3.7123,-3.6753,-3.7338,-3.7046,-3.6553,-3.6507,-3.6492,-3.6307,-3.5645,-3.4327,-3.3318,-3.3356,-3.2367,-3.1459,-3.1459,-3.1459,-3.1474,-3.152,-3.2013,-3.2413,-3.2459,-3.2967,-3.2859,-3.1597,-3.2567,-3.2844,-3.1582,-3.2105,-3.3059,-3.4306,-3.4388,-3.4805,-3.59,-3.5943,-3.591,-3.5688,-3.5539,-3.5504,-3.5504,-3.6207,-3.6881,-3.7554,-3.8826,-3.9439,-3.9457,-4.0801,-4.1338,-4.1228,-4.2461,-4.2769,-4.2392,-4.2392,-4.1878,-4.1221,-4.2018,-4.1968,-4.1594,-4.2554,-4.2951,-4.3076,-4.3573,-4.2641,-4.1846,-4.2187,-4.2493,-4.2187,-4.0605,-4.142,-4.1911,-4.1236,-4.1586,-4.2085,-4.2678,-4.2743,-4.2759,-4.2821,-4.2741,-4.2206,-4.1123,-4.0787,-4.0343,-3.9769,-3.9155,-3.9122,-3.9736,-3.9155,-3.9067,-3.9696,-3.9398,-3.956,-4.0154,-3.9285,-3.8868,-3.8777,-3.8057,-3.7642,-3.7571,-3.8049,-3.7878,-3.7301,-3.7806,-3.7903,-3.7779,-3.7561,-3.7839,-3.835,-3.8361,-3.8003,-3.7556,-3.7556,-3.7954,-3.8385,-3.7707,-3.8323,-3.9154,-3.8477,-3.8154,-3.7954,-3.76,-3.7384,-3.7138,-3.6615,-3.6492,-3.6307,-3.5431,-3.4695,-3.4017,-3.3364,-3.2696,-3.2151,-3.2151,-3.2151,-3.2321,-3.2844,-3.2628,-3.2567,-3.309,-3.2859,-3.2521,-3.2198,-3.2428,-3.245,-3.2032,-3.3218,-3.3891,-3.3517,-3.4866,-3.5583,-3.523,-3.5558,-3.5703,-3.5554,-3.5359,-3.5294,-3.5294,-3.6439,-3.7585,-3.8716,-3.9188,-3.9606,-3.9951,-4.0784,-4.1424,-4.1852,-4.2349,-4.2474,-4.2392,-4.2242,-4.2087,-4.1816,-4.1549,-4.1703,-4.2114,-4.1909,-4.2326,-4.2996,-4.1997,-4.1321,-4.072,-4.0729,-4.1247,-4.1255,-4.0009,-4.0516,-4.1063,-4.107,-4.1167,-4.1529,-4.252,-4.2634,-4.2504,-4.218,-4.2395,-4.2174,-4.1406,-4.0794,-4.0476,-4.0426,-3.9649,-3.9544,-4.0246,-3.9813,-3.9756,-4.0047,-4.0178,-4.0312,-4.0377,-3.9766,-3.9409,-3.9333,-3.8539,-3.8102,-3.797,-3.8273,-3.8072,-3.7728,-3.8263,-3.8433,-3.837,-3.8162,-3.8314,-3.87,-3.8862,-3.8739,-3.8415,-3.8415,-3.8811,-3.9189,-3.8646,-3.9072,-3.9787,-3.9419,-3.8934,-3.8492,-3.8299,-3.7904,-3.7338,-3.6661,-3.6414,-3.6244,-3.5737,-3.4972,-3.4235,-3.3735,-3.2732,-3.1936,-3.1881,-3.1827,-3.1949,-3.2318,-3.2333,-3.2481,-3.289,-3.289,-3.2736,-3.2428,-3.2675,-3.268,-3.2221,-3.3253,-3.3793,-3.3615,-3.4486,-3.5138,-3.5286,-3.522,-3.5274,-3.5489,-3.5359,-3.5359,-3.5359,-3.6641,-3.7953,-3.9265,-3.9337,-3.9681,-4.0248,-4.0621,-4.1216,-4.203,-4.2164,-4.2276,-4.2392,-4.2242,-4.1986,-4.1613,-4.1236,-4.1295,-4.1485,-4.1492,-4.1922,-4.2595,-4.0033,-3.9911,-3.9633,-3.8956,-4.005,-4.0704,-3.9585,-3.9715,-4.0274,-4.1197,-4.0906,-4.11,-4.2346,-4.2571,-4.2328,-4.1792,-4.1788,-4.1829,-4.1601,-4.0678,-4.0402,-4.0883,-4.0196,-4.0079,-4.0761,-4.0658,-4.0538,-4.045,-4.0968,-4.089,-4.0128,-4.0128,-3.9973,-3.9783,-3.9036,-3.8661,-3.8604,-3.8339,-3.8215,-3.831,-3.8681,-3.8862,-3.8889,-3.8743,-3.8723,-3.8893,-3.9462,-3.9533,-3.9441,-3.9524,-3.9772,-4.0017,-3.9573,-3.9849,-4.0277,-4.0277,-3.952,-3.879,-3.9084,-3.8376,-3.729,-3.6721,-3.6365,-3.618,-3.6026,-3.5095,-3.4178,-3.4071,-3.266,-3.1443,-3.1335,-3.135,-3.1381,-3.1488,-3.1977,-3.24,-3.2496,-3.3044,-3.3152,-3.2419,-3.2849,-3.2916,-3.2196,-3.2745,-3.3328,-3.3803,-3.391,-3.4497,-3.5627,-3.5075,-3.504,-3.5639,-3.5549,-3.5529,-3.5723,-3.6903,-3.8182,-3.9424,-3.9337,-3.9695,-4.0323,-4.0427,-4.0994,-4.1882,-4.1996,-4.2208,-4.2342,-4.2348,-4.1907,-4.1221,-4.1033,-4.0808,-4.0675,-4.1175,-4.1632,-4.2104,-4.0573,-4.014,-3.9552,-3.9208,-4.0312,-4.0559,-3.8483,-3.9734,-4.0745,-4.0267,-4.0683,-4.1308,-4.2094,-4.2318,-4.2396,-4.2283,-4.2283,-4.183,-4.0799,-4.1091,-4.1031,-4.0441,-4.0252,-4.0466,-4.105,-4.1158,-4.1142,-4.1142,-4.1162,-4.1038,-4.091,-4.061,-4.0246,-3.9768,-3.8885,-3.8777,-3.9109,-3.8529,-3.8419,-3.8709,-3.8803,-3.906,-3.937,-3.937,-3.9724,-4.0232,-4.0339,-3.9849,-3.929,-3.9441,-3.9397,-3.9199,-3.9268,-3.9642,-4.0081,-4.0081,-3.9929,-3.964,-3.9276,-3.8228,-3.7189,-3.6999,-3.6527,-3.5995,-3.5322,-3.4638,-3.3981,-3.3315,-3.2494,-3.1886,-3.1886,-3.1998,-3.2165,-3.2646,-3.3027,-3.3187,-3.3089,-3.328,-3.3095,-3.2323,-3.2338,-3.2257,-3.1913,-3.2546,-3.3029,-3.2989,-3.4452,-3.5461,-3.5672,-3.5827,-3.6075,-3.6327,-3.5642,-3.5814,-3.693,-3.7674,-3.8504,-3.9424,-3.9265,-3.9519,-4.0174,-4.0754,-4.105,-4.1302,-4.2228,-4.229,-4.1842,-4.2009,-4.2034,-4.1831,-4.0699,-4.0887,-4.168,-4.0344,-4.0617,-4.1745,-3.9742,-3.9188,-3.8872,-3.9526,-3.9879,-3.9674,-3.8503,-3.9265,-3.9854,-3.9381,-3.9697,-4.0238,-4.0942,-4.1405,-4.1676,-4.1676,-4.2029,-4.182,-4.0916,-4.1158,-4.1305,-4.1291,-4.0938,-4.1004,-4.1629,-4.1661,-4.1645,-4.1645,-4.1534,-4.147,-4.1374,-4.1195,-4.0956,-4.0544,-3.9787,-3.9533,-3.9622,-3.9261,-3.9194,-3.9389,-3.9596,-3.9853,-4.0062,-4.0062,-4.0194,-4.0401,-4.0401,-4.0063,-3.9649,-3.9734,-3.9595,-3.9385,-3.958,-3.9738,-3.9839,-3.9839,-3.9839,-3.9703,-3.923,-3.8576,-3.7946,-3.7546,-3.7213,-3.6804,-3.6088,-3.5198,-3.4258,-3.3532,-3.2637,-3.1996,-3.1996,-3.2038,-3.2322,-3.2877,-3.3084,-3.3142,-3.3099,-3.3142,-3.2898,-3.217,-3.2094,-3.1996,-3.1841,-3.2747,-3.3336,-3.3171,-3.4688,-3.5754,-3.6114,-3.6297,-3.6559,-3.6971,-3.629,-3.6343,-3.7228,-3.7938,-3.868,-3.9424,-3.9337,-3.9534,-4.007,-4.004,-4.0336,-4.0941,-4.1115,-4.1268,-4.1586,-4.1653,-4.1622,-4.1453,-4.0481,-4.056,-4.1048,-3.9934,-4.0235,-4.1214,-3.8846,-3.8483,-3.8392,-3.9492,-3.9365,-3.8938,-3.8467,-3.8826,-3.9046,-3.8782,-3.8953,-3.9317,-3.992,-4.0591,-4.1054,-4.1054,-4.1646,-4.1837,-4.1326,-4.1215,-4.1374,-4.1789,-4.1406,-4.1454,-4.2045,-4.1947,-4.1898,-4.1898,-4.1898,-4.1672,-4.1286,-4.1444,-4.1362,-4.099,-4.0457,-4.0185,-4.0177,-3.9714,-3.9709,-3.9951,-4.0155,-4.0385,-4.0539,-4.047,-4.0401,-4.0277,-4.0277,-4.0066,-3.9925,-3.9996,-3.9854,-3.9696,-3.9854,-3.9768,-3.9625,-3.9625,-3.9681,-3.9647,-3.9234,-3.8962,-3.8635,-3.819,-3.7948,-3.7496,-3.6616,-3.5759,-3.4856,-3.3863,-3.3094,-3.2576,-3.2367,-3.2394,-3.2619,-3.3076,-3.3167,-3.3165,-3.294,-3.2983,-3.274,-3.2031,-3.2076,-3.211,-3.1968,-3.2991,-3.3592,-3.3499,-3.4891,-3.5953,-3.6462,-3.6776,-3.7007,-3.7267,-3.7022,-3.7022,-3.7228,-3.8157,-3.8901,-3.9424,-3.9337,-3.9533,-3.9832,-3.9417,-3.9654,-4.03,-4.0032,-4.0426,-4.1178,-4.1259,-4.1237,-4.1033,-4.0365,-4.027,-4.0485,-3.9774,-4.0132,-4.0993,-3.8635,-3.8654,-3.861,-3.8616,-3.9044,-3.9059,-3.7809,-3.8679,-3.9218,-3.8586,-3.9044,-3.9502,-3.9565,-4.0309,-4.0801,-4.0801,-4.1469,-4.1882,-4.1835,-4.1672,-4.1387,-4.0944,-4.1339,-4.1688,-4.1898,-4.1914,-4.1898,-4.1898,-4.1898,-4.1354,-4.0381,-4.1025,-4.0912,-4.0103,-4.0041,-4.0318,-4.0644,-3.942,-3.9473,-4.0401,-3.9831,-3.997,-4.0455,-4.0331,-4.0347,-4.0277,-4.0066,-3.991,-3.9768,-3.9925,-3.9711,-3.9481,-3.9696,-3.9553,-3.9409,-3.9409,-3.9553,-3.9681,-3.9636,-3.9309,-3.8948,-3.8711,-3.8326,-3.754,-3.5929,-3.6099,-3.5969,-3.3935,-3.4012,-3.4301,-3.3531,-3.3653,-3.3788,-3.3547,-3.3729,-3.3622,-3.2809,-3.2851,-3.2697,-3.1932,-3.2297,-3.26,-3.2437,-3.308,-3.3484,-3.3499,-3.531,-3.6432,-3.6492,-3.7491,-3.7738,-3.695,-3.7819,-3.7918,-3.7243,-3.8635,-3.9364,-3.9424,-3.9192,-3.9134,-3.9193,-3.9535,-3.9445,-3.9003,-4.0044,-4.0446,-4.047,-4.0924,-4.1091,-4.1033,-4.0365,-4.0481,-4.0953,-3.9857,-4.0426,-4.1577,-3.8486,-3.8128,-3.8036,-3.8965,-3.8935,-3.859,-3.8207,-3.8555,-3.8649,-3.7954,-3.846,-3.8809,-3.8731,-3.9739,-4.0417,-4.0287,-4.1062,-4.1538,-4.1538,-4.1588,-4.1478,-4.129,-4.1512,-4.1654,-4.1736,-4.1736,-4.167,-4.1538,-4.1538,-4.128,-4.0778,-4.1028,-4.0946,-4.0479,-4.0479,-4.0551,-4.0562,-4.0001,-4.0009,-4.0439,-3.9986,-4.0047,-4.0401,-4.0347,-4.0207,-4.0066,-3.9996,-3.9925,-3.9854,-3.9711,-3.9711,-3.9711,-3.9553,-3.9553,-3.9625,-3.9625,-3.9696,-3.9925,-4.0051,-3.9798,-3.9461,-3.9461,-3.9279,-3.8771,-3.7729,-3.7383,-3.6947,-3.5659,-3.5284,-3.5153,-3.4898,-3.4979,-3.5178,-3.5458,-3.5597,-3.5356,-3.4568,-3.4493,-3.3937,-3.245,-3.2421,-3.2571,-3.2512,-3.3484,-3.4277,-3.4711,-3.6567,-3.7674,-3.7674,-3.8471,-3.8594,-3.7712,-3.8534,-3.8635,-3.7853,-3.9292,-3.9828,-3.9424,-3.9755,-3.9579,-3.8958,-3.9136,-3.8884,-3.8441,-3.8891,-3.9328,-3.9673,-4.022,-4.0263,-3.9973,-4.051,-4.0612,-4.0423,-4.0008,-4.0479,-4.1273,-3.832,-3.7757,-3.751,-3.8795,-3.8387,-3.7886,-3.8009,-3.8197,-3.8227,-3.7799,-3.8275,-3.8638,-3.856,-3.9596,-4.0222,-4.0091,-4.0849,-4.1323,-4.1323,-4.1406,-4.1472,-4.1588,-4.1522,-4.1522,-4.1588,-4.1472,-4.1406,-4.1374,-4.1323,-4.1205,-4.1117,-4.1117,-4.0966,-4.073,-4.073,-4.0662,-4.0455,-4.0331,-4.0331,-4.0401,-4.0137,-4.0066,-4.0207,-4.0207,-4.0066,-3.9925,-3.9925,-3.9925,-3.9854,-3.9481,-3.964,-3.9854,-3.9496,-3.9553,-3.9681,-3.9768,-3.9925,-4.0137,-4.0277,-4.0121,-3.991,-4.0066,-3.991,-3.9541,-3.8666,-3.8439,-3.7955,-3.6835,-3.6514,-3.6424,-3.6265,-3.6285,-3.6436,-3.6887,-3.6797,-3.6445,-3.5878,-3.5444,-3.4592,-3.3006,-3.3006,-3.3125,-3.3125,-3.4322,-3.5385,-3.6058,-3.7524,-3.8482,-3.8691,-3.896,-3.8919,-3.8522,-3.8832,-3.8937,-3.882,-3.9666,-3.9963,-3.9723,-3.9978,-3.9697,-3.887,-3.8855,-3.8634,-3.8277,-3.8202,-3.858,-3.9233,-3.9717,-3.9761,-3.9567,-4.0517,-4.0589,-4.0211,-4.04,-4.0727,-4.1075,-3.8182,-3.759,-3.7218,-3.7857,-3.7436,-3.7015,-3.7015,-3.7592,-3.8091,-3.8293,-3.8732,-3.9091,-3.9314,-3.991,-4.0303,-4.0303,-4.0931,-4.1323,-4.1323,-4.1153,-4.1236,-4.1588,-4.139,-4.139,-4.1588,-4.1288,-4.1288,-4.1588,-4.1374,-4.1205,-4.1117,-4.1117,-4.0898,-4.0524,-4.0524,-4.0524,-4.0455,-4.0331,-4.0277,-4.0277,-4.0081,-4.0011,-4.0011,-4.0011,-3.9854,-3.9681,-3.9681,-3.9681,-3.9696,-3.9481,-3.9553,-3.9681,-3.9466,-3.9538,-3.9753,-3.991,-4.0121,-4.0261,-4.0261,-4.0261,-4.0277,-4.0277,-4.0137,-3.9662,-3.8341,-3.8901,-3.9124,-3.7149,-3.7782,-3.8421,-3.7539,-3.7571,-3.7639,-3.7419,-3.6911,-3.6507,-3.6507,-3.5355,-3.4262,-3.3589,-3.4083,-3.4487,-3.4487,-3.5699,-3.6746,-3.7375,-3.8033,-3.8691,-3.9379,-3.8781,-3.862,-3.9075,-3.8466,-3.8748,-4.0055,-3.9666,-3.9753,-4.0382,-3.9738,-3.9265,-3.9104,-3.887,-3.8723,-3.8516,-3.8277,-3.858,-3.9189,-3.9405,-3.977,-4.0089,-4.0339,-4.0432,-4.0505,-4.1149,-4.1239,-4.1184,-3.7326,-3.7063,-3.6924,-3.7264,-3.7002,-3.7033,-3.7592,-3.7904,-3.82,-3.8716,-3.9308,-3.9679,-3.9645,-4.0235,-4.0624,-4.0421,-4.0743,-4.1003,-4.1153,-4.1102,-4.1169,-4.1221,-4.1169,-4.1221,-4.139,-4.1221,-4.1169,-4.1236,-4.107,-4.0867,-4.0677,-4.0677,-4.0608,-4.0539,-4.0401,-4.0331,-4.0331,-4.0051,-3.998,-4.0066,-3.9711,-3.9625,-3.9768,-3.9768,-3.9768,-3.9681,-3.9681,-3.9768,-3.9778,-3.8998,-3.8918,-3.9107,-3.8446,-3.875,-3.923,-3.8583,-3.904,-3.9695,-3.9627,-3.9856,-4.0137,-4.0277,-4.0137,-3.9889,-3.934,-3.9481,-3.938,-3.8172,-3.8192,-3.8267,-3.7524,-3.7863,-3.8177,-3.8093,-3.8347,-3.8377,-3.7883,-3.7479,-3.6656,-3.51,-3.507,-3.519,-3.519,-3.5983,-3.6941,-3.8018,-3.8564,-3.8969,-3.9177,-3.8911,-3.8602,-3.8421,-3.81,-3.8483,-3.9621,-3.9816,-4.004,-4.0397,-4.004,-3.955,-3.887,-3.8649,-3.859,-3.8516,-3.8441,-3.8618,-3.8972,-3.9517,-3.9674,-3.9726,-4.0178,-4.0432,-4.0446,-4.0637,-4.0764,-4.0938,-3.6815,-3.6739,-3.6677,-3.6754,-3.6677,-3.6817,-3.7297,-3.7887,-3.8368,-3.8836,-3.9656,-4.0179,-4.021,-4.0566,-4.073,-4.0662,-4.073,-4.0799,-4.0898,-4.0898,-4.0898,-4.0898,-4.0898,-4.095,-4.1221,-4.095,-4.0966,-4.1117,-4.0882,-4.073,-4.0593,-4.0593,-4.0593,-4.0455,-4.0331,-4.0277,-4.0261,-3.991,-3.9768,-3.9839,-3.9568,-3.9481,-3.9625,-3.9696,-3.9625,-3.9625,-3.9696,-3.9602,-3.9385,-3.8682,-3.8602,-3.881,-3.8605,-3.897,-3.9421,-3.8888,-3.9261,-3.9787,-3.9734,-3.9703,-3.9801,-3.999,-3.998,-3.9849,-3.9561,-3.9627,-3.95,-3.8682,-3.8687,-3.8676,-3.8272,-3.8527,-3.8796,-3.8796,-3.9155,-3.9275,-3.8856,-3.8556,-3.7868,-3.6432,-3.6252,-3.6252,-3.6252,-3.6851,-3.7674,-3.8635,-3.8867,-3.884,-3.8676,-3.8501,-3.8133,-3.7556,-3.7649,-3.806,-3.8661,-3.9565,-4.0085,-4.0397,-4.0234,-3.9654,-3.8782,-3.859,-3.8441,-3.8366,-3.8366,-3.8427,-3.8604,-3.915,-3.9473,-3.951,-4.0074,-4.0459,-4.068,-4.068,-4.0672,-4.0662,-3.6538,-3.66,-3.6492,-3.6492,-3.6492,-3.6507,-3.6569,-3.7677,-3.8573,-3.8704,-3.9699,-4.05,-4.0638,-4.0706,-4.0737,-4.0799,-4.0799,-4.073,-4.0524,-4.0524,-4.0524,-4.0524,-4.0524,-4.0677,-4.1034,-4.0677,-4.0677,-4.1034,-4.0882,-4.0799,-4.0799,-4.0799,-4.0662,-4.0455,-4.0331,-4.0277,-4.0277,-3.9839,-3.9696,-3.9696,-3.9481,-3.9424,-3.9409,-3.9625,-3.9553,-3.9409,-3.9625,-3.9259,-3.8617,-3.8387,-3.8457,-3.8717,-3.932,-3.9718,-3.992,-4.0115,-4.0185,-4.0185,-4.0185,-3.9788,-3.9413,-3.9536,-3.9677,-3.9672,-3.9314,-3.9395,-3.9425,-3.8822,-3.8998,-3.9245,-3.9245,-3.929,-3.9334,-3.9334,-3.9379,-3.9424,-3.9424,-3.8871,-3.8242,-3.7584,-3.7449,-3.7434,-3.7494,-3.8023,-3.8594,-3.906,-3.8811,-3.8458,-3.7898,-3.7824,-3.7372,-3.6629,-3.717,-3.7477,-3.7549,-3.9047,-3.995,-4.0323,-4.0159,-3.9609,-3.887,-3.8604,-3.8352,-3.8277,-3.8277,-3.8277,-3.8352,-3.8708,-3.9106,-3.9542,-3.989,-4.0441,-4.1005,-4.0946,-4.0681,-4.0322,-3.6523,-3.6492,-3.6492,-3.6492,-3.6492,-3.6598,-3.6978,-3.7904,-3.8442,-3.8228,-3.9082,-3.9671,-3.9619,-3.9739,-4.0023,-4.0547,-4.0593,-4.0524,-4.0524,-4.0524,-4.0524,-4.0524,-4.0524,-4.0524,-4.0608,-4.0524,-4.0593,-4.0882,-4.0662,-4.0593,-4.0593,-4.0593,-4.0524,-4.0455,-4.0207,-4.0066,-4.0066,-3.964,-3.9481,-3.9481,-3.9424,-3.9424,-3.9409,-3.9424,-3.9424,-3.9424,-3.9409,-3.9047,-3.8387,-3.7793,-3.7766,-3.7948,-3.7863,-3.8491,-3.9137,-3.8898,-3.9052,-3.9221,-3.9067,-3.941,-3.964,-3.8796,-3.9291,-3.9879,-3.9642,-3.9254,-3.8867,-3.8732,-3.8247,-3.7838,-3.7838,-3.8257,-3.8616,-3.8616,-3.9065,-3.9424,-3.9424,-3.929,-3.8945,-3.8257,-3.7719,-3.7545,-3.7927,-3.8424,-3.8781,-3.8855,-3.8267,-3.7784,-3.7652,-3.701,-3.6603,-3.6614,-3.6589,-3.6804,-3.7227,-3.8944,-3.9845,-3.995,-3.9874,-3.9711,-3.9323,-3.8585,-3.8427,-3.8634,-3.8634,-3.887,-3.9119,-3.9265,-3.9579,-3.9905,-3.9461,-3.9743,-4.0278,-3.9728,-3.9607,-3.9709,-3.643,-3.6492,-3.6492,-3.6492,-3.6414,-3.6459,-3.6685,-3.7311,-3.7689,-3.7557,-3.8351,-3.9036,-3.9305,-3.9388,-3.9801,-4.0462,-4.0524,-4.0524,-4.0524,-4.0524,-4.0524,-4.0524,-4.0524,-4.0455,-4.0401,-4.0401,-4.047,-4.0524,-4.047,-4.0401,-4.0401,-4.0401,-4.0401,-4.0401,-4.0051,-3.9854,-3.9854,-3.9568,-3.9424,-3.9424,-3.9424,-3.9424,-3.9424,-3.9424,-3.9424,-3.9379,-3.905,-3.8497,-3.7913,-3.7883,-3.8022,-3.8226,-3.8702,-3.9294,-3.9854,-4.0028,-4.0277,-4.0299,-3.9631,-3.948,-3.9336,-3.837,-3.8508,-3.8977,-3.9294,-3.9269,-3.9169,-3.9043,-3.8687,-3.8362,-3.8362,-3.8646,-3.8886,-3.8886,-3.9185,-3.9424,-3.9424,-3.9424,-3.9203,-3.8773,-3.8147,-3.7689,-3.7508,-3.7956,-3.8062,-3.7753,-3.7287,-3.6822,-3.6602,-3.611,-3.5936,-3.616,-3.6368,-3.6599,-3.688,-3.856,-3.9298,-3.9028,-3.9885,-3.9932,-3.9148,-3.8587,-3.8501,-3.8782,-3.8782,-3.8943,-3.9104,-3.9192,-3.94,-3.9609,-3.9326,-3.9667,-4.0174,-3.9503,-3.9337,-3.9514,-3.6384,-3.6492,-3.6429,-3.6429,-3.6289,-3.6133,-3.6133,-3.6599,-3.693,-3.6808,-3.7532,-3.829,-3.8855,-3.925,-3.9785,-4.0409,-4.047,-4.047,-4.047,-4.047,-4.047,-4.0524,-4.0524,-4.047,-4.0277,-4.0277,-4.0277,-4.0277,-4.0277,-4.0277,-4.0277,-4.0277,-4.0277,-4.0207,-3.9839,-3.9681,-3.9696,-3.9496,-3.9424,-3.9424,-3.9424,-3.9424,-3.9424,-3.9424,-3.9424,-3.9349,-3.8766,-3.8138,-3.7659,-3.8197,-3.8547,-3.8828,-3.9916,-4.0439,-4.0812,-4.1639,-4.1925,-4.1667,-4.0776,-3.9808,-3.8948,-3.8091,-3.7918,-3.8031,-3.8516,-3.9022,-3.9425,-3.9508,-3.9245,-3.911,-3.923,-3.9245,-3.9245,-3.9245,-3.9245,-3.929,-3.9409,-3.9337,-3.9265,-3.9104,-3.854,-3.7757,-3.6763,-3.708,-3.7184,-3.6572,-3.6356,-3.5979,-3.5456,-3.5325,-3.5507,-3.5878,-3.6406,-3.6743,-3.6846,-3.847,-3.8856,-3.8132,-3.9885,-4.002,-3.8885,-3.8634,-3.8575,-3.8782,-3.8855,-3.887,-3.8943,-3.9104,-3.9103,-3.9013,-3.9292,-3.9679,-4.0008,-3.9574,-3.9424,-3.9499,-3.6476,-3.6352,-3.6274,-3.6274,-3.6085,-3.5973,-3.5816,-3.6455,-3.6763,-3.5963,-3.6736,-3.7388,-3.748,-3.8668,-3.9733,-4.0285,-4.0347,-4.0347,-4.0347,-4.0347,-4.0401,-4.0455,-4.0524,-4.047,-4.0277,-4.0137,-4.0081,-4.0081,-4.0081,-4.0081,-4.0081,-4.0081,-4.0081,-3.9996,-3.9839,-3.9681,-3.9696,-3.9496,-3.9424,-3.9424,-3.9424,-3.9424,-3.9424,-3.9424,-3.9424,-3.9409,-3.932,-3.8841,-3.8272,-3.8362,-3.8392,-3.8597,-3.9305,-3.9933,-4.0606,-4.1265,-4.146,-4.1415,-4.131,-4.0437,-3.933,-3.8024,-3.8266,-3.8554,-3.7521,-3.7646,-3.831,-3.9612,-3.8707,-3.7853,-3.8422,-3.8527,-3.8527,-3.8527,-3.8527,-3.8736,-3.9334,-3.9265,-3.9104,-3.9104,-3.8251,-3.7153,-3.5922,-3.6195,-3.6402,-3.6315,-3.5918,-3.5638,-3.5605,-3.516,-3.5516,-3.6678,-3.6796,-3.7161,-3.792,-3.9283,-3.9225,-3.7899,-3.9432,-3.9829,-3.9121,-3.8704,-3.8575,-3.8782,-3.8943,-3.9177,-3.9337,-3.9337,-3.8994,-3.8586,-3.9185,-3.911,-3.8721,-3.923,-3.9424,-3.9424,-3.6492,-3.6352,-3.6089,-3.5706,-3.5763,-3.571,-3.519,-3.5733,-3.5999,-3.5634,-3.6023,-3.6535,-3.7044,-3.8238,-3.9164,-3.9772,-3.9833,-4.0002,-4.037,-4.0401,-4.047,-4.0524,-4.0524,-4.0385,-4.0137,-4.0081,-3.9925,-3.9839,-3.9839,-3.9839,-3.9839,-3.9839,-3.9839,-3.9839,-3.9625,-3.9553,-3.9553,-3.9424,-3.9424,-3.9424,-3.9424,-3.9424,-3.9424,-3.9424,-3.9424,-3.9424,-3.9424,-3.8975,-3.8452,-3.8841,-3.896,-3.908,-3.9753,-4.0172,-4.0606,-4.1791,-4.2106,-4.2092,-4.1761,-4.1234,-4.0447,-3.881,-3.8817,-3.9003,-3.8273,-3.8122,-3.8172,-3.862,-3.8331,-3.8048,-3.8347,-3.8706,-3.896,-3.896,-3.896,-3.9065,-3.9379,-3.9265,-3.8898,-3.8325,-3.774,-3.6924,-3.5613,-3.5689,-3.5633,-3.527,-3.5049,-3.4957,-3.4957,-3.4747,-3.5268,-3.6726,-3.6755,-3.7296,-3.85,-3.8809,-3.8794,-3.8369,-3.8809,-3.8959,-3.9,-3.887,-3.8958,-3.9104,-3.9265,-3.9337,-3.9424,-3.9424,-3.9301,-3.9118,-3.9305,-3.923,-3.899,-3.9305,-3.9424,-3.9469]}]]